Darstellungsparameter: Aktuell verwendete Einstellungen:
Skalierung der Graphiken ... ?
xyx+y,   Skalierungsfaktor:      Skalierung: Modus: x, Faktor: 1
Darstellungszeitraum ... ?
Vom - - bis: - -   Zeitraum: 13.03.2018 - 12.09.2018
Min/Max/Avg-Anzeige ... ?
Zeige MMA aktuell
Zeige MMA Monat
Zeige MMA alles
Zeige --A aktuell
Zeige --A Monat
Zeige --A alles
Keine MMA-Anzeige
MMA:
Keine MMA-Graphiken
MMA-Basis: 13.03.2018 - 12.09.2018
Quicknavigation für Darstellung... ?
Tage:      1T, 2T, 3T, 5T -1T -2T -3T -5T +1T +2T +3T +5T
Wochen: 1W, 2W, 3W -1W -2W -3W +1W +2W +3W
Monate: 1M, 3M, 6M -1M -3M -6M +1M +3M +6M
Jahre:    1J, 3J, 5J, 10J -1J -3J -5J -10J +1J +3J +5J +10J
Nutze für die Darstellung ... ?
Originaldaten oder Mittelwerte auf ...
Stundenbasis Tagesbasis Wochenbasis
Monatsbasis Jahresbasis      Datenbasis: Original-Daten
Darstellen als:
Statistik (Auto) Statistik J:M      Darstellung:
Zur Graphik,    zurück zur Übersicht aller Sensoren.
 
Tabellarische Datenbersicht: ?
 
Sensor: Nr:Datum:Temp:Feuchte:Taupunkt:
Aussen-T/F 1 13-03-2018 00:00:00 8.2 C 93 % 7.14 C
2 13-03-2018 00:05:00 8.2 C 93 % 7.14 C
3 13-03-2018 00:10:00 8.2 C 93 % 7.14 C
4 13-03-2018 00:15:00 8.2 C 93 % 7.14 C
5 13-03-2018 00:20:00 8.3 C 93 % 7.24 C
6 13-03-2018 00:25:00 8.4 C 92 % 7.18 C
7 13-03-2018 00:30:00 8.4 C 92 % 7.18 C
8 13-03-2018 00:35:00 8.6 C 91 % 7.22 C
9 13-03-2018 00:40:00 8.6 C 91 % 7.22 C
10 13-03-2018 00:45:00 8.7 C 91 % 7.32 C
11 13-03-2018 00:50:00 8.7 C 90 % 7.15 C
12 13-03-2018 00:55:00 8.7 C 90 % 7.15 C
13 13-03-2018 01:00:00 8.7 C 90 % 7.15 C
14 13-03-2018 01:05:00 8.8 C 89 % 7.09 C
15 13-03-2018 01:10:00 8.9 C 88 % 7.02 C
16 13-03-2018 01:15:00 9 C 88 % 7.12 C
17 13-03-2018 01:20:00 9 C 88 % 7.12 C
18 13-03-2018 01:25:00 9.1 C 88 % 7.22 C
19 13-03-2018 01:30:00 9.1 C 88 % 7.22 C
20 13-03-2018 01:35:00 9.1 C 87 % 7.05 C
21 13-03-2018 01:40:00 9.1 C 87 % 7.05 C
22 13-03-2018 01:45:00 9.1 C 87 % 7.05 C
23 13-03-2018 01:50:00 9.2 C 87 % 7.15 C
24 13-03-2018 01:55:00 9.2 C 87 % 7.15 C
25 13-03-2018 02:00:00 9.2 C 87 % 7.15 C
Sensor: Nr:Datum:Temp:Feuchte:Taupunkt:
Aussen-T/F 26 13-03-2018 02:05:00 9.2 C 86 % 6.98 C
27 13-03-2018 02:10:00 9.2 C 86 % 6.98 C
28 13-03-2018 02:15:00 9.2 C 86 % 6.98 C
29 13-03-2018 02:20:00 9.2 C 87 % 7.15 C
30 13-03-2018 02:25:00 9.2 C 88 % 7.32 C
31 13-03-2018 02:30:00 9.1 C 89 % 7.39 C
32 13-03-2018 02:35:00 8.9 C 89 % 7.19 C
33 13-03-2018 02:40:00 8.8 C 89 % 7.09 C
34 13-03-2018 02:45:00 8.8 C 89 % 7.09 C
35 13-03-2018 02:50:00 8.8 C 89 % 7.09 C
36 13-03-2018 02:55:00 8.7 C 89 % 6.99 C
37 13-03-2018 03:00:00 8.7 C 89 % 6.99 C
38 13-03-2018 03:05:00 8.7 C 89 % 6.99 C
39 13-03-2018 03:10:00 8.7 C 88 % 6.83 C
40 13-03-2018 03:15:00 8.8 C 88 % 6.93 C
41 13-03-2018 03:20:00 8.8 C 88 % 6.93 C
42 13-03-2018 03:25:00 8.8 C 88 % 6.93 C
43 13-03-2018 03:30:00 8.8 C 88 % 6.93 C
44 13-03-2018 03:35:00 8.8 C 88 % 6.93 C
45 13-03-2018 03:40:00 8.8 C 88 % 6.93 C
46 13-03-2018 03:45:00 8.8 C 88 % 6.93 C
47 13-03-2018 03:50:00 8.8 C 88 % 6.93 C
48 13-03-2018 03:55:00 8.8 C 88 % 6.93 C
49 13-03-2018 04:00:00 8.7 C 88 % 6.83 C
50 13-03-2018 04:05:00 8.7 C 88 % 6.83 C
Sensor: Nr:Datum:Temp:Feuchte:Taupunkt:
Aussen-T/F 51 13-03-2018 04:10:00 8.8 C 88 % 6.93 C
52 13-03-2018 04:15:00 8.7 C 88 % 6.83 C
53 13-03-2018 04:20:00 8.7 C 88 % 6.83 C
54 13-03-2018 04:25:00 8.7 C 88 % 6.83 C
55 13-03-2018 04:30:00 8.7 C 88 % 6.83 C
56 13-03-2018 04:35:00 8.7 C 88 % 6.83 C
57 13-03-2018 04:40:00 8.7 C 87 % 6.66 C
58 13-03-2018 04:45:00 8.7 C 87 % 6.66 C
59 13-03-2018 04:50:00 8.7 C 87 % 6.66 C
60 13-03-2018 04:55:00 8.7 C 87 % 6.66 C
61 13-03-2018 05:00:00 8.7 C 87 % 6.66 C
62 13-03-2018 05:05:00 8.8 C 87 % 6.76 C
63 13-03-2018 05:10:00 8.7 C 88 % 6.83 C
64 13-03-2018 05:15:00 8.7 C 88 % 6.83 C
65 13-03-2018 05:20:00 8.7 C 88 % 6.83 C
66 13-03-2018 05:25:00 8.7 C 88 % 6.83 C
67 13-03-2018 05:30:00 8.6 C 88 % 6.73 C
68 13-03-2018 05:35:00 8.6 C 88 % 6.73 C
69 13-03-2018 05:40:00 8.6 C 88 % 6.73 C
70 13-03-2018 05:45:00 8.6 C 88 % 6.73 C
71 13-03-2018 05:50:00 8.6 C 88 % 6.73 C
72 13-03-2018 05:55:00 8.6 C 88 % 6.73 C
73 13-03-2018 06:00:00 8.6 C 88 % 6.73 C
74 13-03-2018 06:05:00 8.7 C 87 % 6.66 C
75 13-03-2018 06:10:00 8.6 C 87 % 6.56 C
Sensor: Nr:Datum:Temp:Feuchte:Taupunkt:
Aussen-T/F 76 13-03-2018 06:15:00 8.6 C 88 % 6.73 C
77 13-03-2018 06:20:00 8.6 C 88 % 6.73 C
78 13-03-2018 06:25:00 8.6 C 88 % 6.73 C
79 13-03-2018 06:30:00 8.5 C 88 % 6.63 C
80 13-03-2018 06:35:00 8.6 C 88 % 6.73 C
81 13-03-2018 06:40:00 8.5 C 88 % 6.63 C
82 13-03-2018 06:45:00 8.4 C 89 % 6.7 C
83 13-03-2018 06:50:00 8.4 C 89 % 6.7 C
84 13-03-2018 06:55:00 8.3 C 89 % 6.6 C
85 13-03-2018 07:00:00 8.3 C 90 % 6.76 C
86 13-03-2018 07:05:00 8.2 C 90 % 6.66 C
87 13-03-2018 07:10:00 8.2 C 90 % 6.66 C
88 13-03-2018 07:15:00 8.1 C 90 % 6.56 C
89 13-03-2018 07:20:00 8.1 C 90 % 6.56 C
90 13-03-2018 07:25:00 8.1 C 90 % 6.56 C
91 13-03-2018 07:30:00 8.1 C 89 % 6.4 C
92 13-03-2018 07:35:00 8.1 C 89 % 6.4 C
93 13-03-2018 07:40:00 8.1 C 89 % 6.4 C
94 13-03-2018 07:45:00 8.1 C 89 % 6.4 C
95 13-03-2018 07:50:00 8.1 C 89 % 6.4 C
96 13-03-2018 07:55:00 8.2 C 89 % 6.5 C
97 13-03-2018 08:00:00 8.2 C 89 % 6.5 C
98 13-03-2018 08:05:00 8.2 C 88 % 6.33 C
99 13-03-2018 08:10:00 8.2 C 88 % 6.33 C
100 13-03-2018 08:15:00 8.3 C 88 % 6.43 C
Sensor: Nr:Datum:Temp:Feuchte:Taupunkt:
Aussen-T/F 101 13-03-2018 08:20:00 8.3 C 88 % 6.43 C
102 13-03-2018 08:25:00 8.3 C 88 % 6.43 C
103 13-03-2018 08:30:00 8.4 C 88 % 6.53 C
104 13-03-2018 08:35:00 8.5 C 88 % 6.63 C
105 13-03-2018 08:40:00 8.6 C 88 % 6.73 C
106 13-03-2018 08:45:00 8.7 C 88 % 6.83 C
107 13-03-2018 08:50:00 8.7 C 87 % 6.66 C
108 13-03-2018 08:55:00 8.7 C 87 % 6.66 C
109 13-03-2018 09:00:00 8.8 C 87 % 6.76 C
110 13-03-2018 09:05:00 8.8 C 87 % 6.76 C
111 13-03-2018 09:10:00 8.9 C 87 % 6.86 C
112 13-03-2018 09:15:00 9 C 87 % 6.96 C
113 13-03-2018 09:20:00 9.1 C 87 % 7.05 C
114 13-03-2018 09:25:00 9.1 C 87 % 7.05 C
115 13-03-2018 09:30:00 9.2 C 87 % 7.15 C
116 13-03-2018 09:35:00 9.2 C 87 % 7.15 C
117 13-03-2018 09:40:00 9.3 C 87 % 7.25 C
118 13-03-2018 09:45:00 9.4 C 86 % 7.18 C
119 13-03-2018 09:50:00 9.5 C 86 % 7.28 C
120 13-03-2018 09:55:00 9.6 C 86 % 7.38 C
121 13-03-2018 10:00:00 9.6 C 87 % 7.55 C
122 13-03-2018 10:05:00 9.8 C 86 % 7.57 C
123 13-03-2018 10:10:00 9.8 C 86 % 7.57 C
124 13-03-2018 10:15:00 9.7 C 85 % 7.3 C
125 13-03-2018 10:20:00 9.7 C 86 % 7.47 C
Sensor: Nr:Datum:Temp:Feuchte:Taupunkt:
Aussen-T/F 126 13-03-2018 10:25:00 9.6 C 86 % 7.38 C
127 13-03-2018 10:30:00 9.4 C 87 % 7.35 C
128 13-03-2018 10:35:00 9.3 C 88 % 7.42 C
129 13-03-2018 10:40:00 9.3 C 89 % 7.58 C
130 13-03-2018 10:45:00 9.3 C 89 % 7.58 C
131 13-03-2018 10:50:00 9.4 C 89 % 7.68 C
132 13-03-2018 10:55:00 9.4 C 88 % 7.52 C
133 13-03-2018 11:00:00 9.6 C 87 % 7.55 C
134 13-03-2018 11:05:00 9.7 C 86 % 7.47 C
135 13-03-2018 11:10:00 9.7 C 84 % 7.13 C
136 13-03-2018 11:15:00 9.7 C 83 % 6.96 C
137 13-03-2018 11:20:00 9.7 C 82 % 6.78 C
138 13-03-2018 11:25:00 9.7 C 82 % 6.78 C
139 13-03-2018 11:30:00 9.7 C 82 % 6.78 C
140 13-03-2018 11:35:00 9.7 C 82 % 6.78 C
141 13-03-2018 11:40:00 9.7 C 81 % 6.6 C
142 13-03-2018 11:45:00 9.7 C 81 % 6.6 C
143 13-03-2018 11:50:00 9.7 C 81 % 6.6 C
144 13-03-2018 11:55:00 9.7 C 81 % 6.6 C
145 13-03-2018 12:00:00 9.7 C 80 % 6.42 C
146 13-03-2018 12:05:00 9.7 C 80 % 6.42 C
147 13-03-2018 12:10:00 9.7 C 80 % 6.42 C
148 13-03-2018 12:15:00 9.7 C 81 % 6.6 C
149 13-03-2018 12:20:00 9.7 C 81 % 6.6 C
150 13-03-2018 12:25:00 9.6 C 81 % 6.5 C
Sensor: Nr:Datum:Temp:Feuchte:Taupunkt:
Aussen-T/F 151 13-03-2018 12:30:00 9.4 C 81 % 6.31 C
152 13-03-2018 12:35:00 9.1 C 83 % 6.37 C
153 13-03-2018 12:40:00 8.8 C 85 % 6.42 C
154 13-03-2018 12:45:00 8.6 C 85 % 6.23 C
155 13-03-2018 12:50:00 8.4 C 86 % 6.2 C
156 13-03-2018 12:55:00 8.4 C 86 % 6.2 C
157 13-03-2018 13:00:00 8.5 C 85 % 6.13 C
158 13-03-2018 13:05:00 8.6 C 85 % 6.23 C
159 13-03-2018 13:10:00 8.6 C 84 % 6.05 C
160 13-03-2018 13:15:00 8.4 C 85 % 6.03 C
161 13-03-2018 13:20:00 8.3 C 86 % 6.1 C
162 13-03-2018 13:25:00 8.2 C 88 % 6.33 C
163 13-03-2018 13:30:00 8 C 88 % 6.14 C
164 13-03-2018 13:35:00 7.8 C 88 % 5.94 C
165 13-03-2018 13:40:00 7.7 C 88 % 5.84 C
166 13-03-2018 13:45:00 7.6 C 89 % 5.91 C
167 13-03-2018 13:50:00 7.5 C 89 % 5.81 C
168 13-03-2018 13:55:00 7.4 C 90 % 5.87 C
169 13-03-2018 14:00:00 7.3 C 89 % 5.61 C
170 13-03-2018 14:05:00 7.2 C 89 % 5.51 C
171 13-03-2018 14:10:00 7.2 C 90 % 5.67 C
172 13-03-2018 14:15:00 7.2 C 90 % 5.67 C
173 13-03-2018 14:20:00 7.1 C 90 % 5.57 C
174 13-03-2018 14:25:00 7 C 90 % 5.48 C
175 13-03-2018 14:30:00 7 C 90 % 5.48 C
Sensor: Nr:Datum:Temp:Feuchte:Taupunkt:
Aussen-T/F 176 13-03-2018 14:35:00 7 C 90 % 5.48 C
177 13-03-2018 14:40:00 6.9 C 90 % 5.38 C
178 13-03-2018 14:45:00 7 C 91 % 5.63 C
179 13-03-2018 14:50:00 7 C 91 % 5.63 C
180 13-03-2018 14:55:00 7 C 91 % 5.63 C
181 13-03-2018 15:00:00 7 C 91 % 5.63 C
182 13-03-2018 15:05:00 7 C 91 % 5.63 C
183 13-03-2018 15:10:00 7 C 91 % 5.63 C
184 13-03-2018 15:15:00 7.1 C 91 % 5.73 C
185 13-03-2018 15:20:00 7 C 91 % 5.63 C
186 13-03-2018 15:25:00 7.1 C 92 % 5.89 C
187 13-03-2018 15:30:00 7 C 92 % 5.79 C
188 13-03-2018 15:35:00 7 C 92 % 5.79 C
189 13-03-2018 15:40:00 7.1 C 92 % 5.89 C
190 13-03-2018 15:45:00 7 C 92 % 5.79 C
191 13-03-2018 15:50:00 7 C 92 % 5.79 C
192 13-03-2018 15:55:00 6.9 C 91 % 5.54 C
193 13-03-2018 16:00:00 6.9 C 90 % 5.38 C
194 13-03-2018 16:05:00 6.9 C 90 % 5.38 C
195 13-03-2018 16:10:00 6.9 C 90 % 5.38 C
196 13-03-2018 16:15:00 6.9 C 89 % 5.22 C
197 13-03-2018 16:20:00 7 C 88 % 5.15 C
198 13-03-2018 16:25:00 7.1 C 87 % 5.09 C
199 13-03-2018 16:30:00 7.1 C 87 % 5.09 C
200 13-03-2018 16:35:00 7.1 C 86 % 4.92 C
Sensor: Nr:Datum:Temp:Feuchte:Taupunkt:
Aussen-T/F 201 13-03-2018 16:40:00 7.2 C 86 % 5.02 C
202 13-03-2018 16:45:00 7.2 C 86 % 5.02 C
203 13-03-2018 16:50:00 7.3 C 87 % 5.28 C
204 13-03-2018 16:55:00 7.2 C 86 % 5.02 C
205 13-03-2018 17:00:00 7.2 C 85 % 4.85 C
206 13-03-2018 17:05:00 7.2 C 86 % 5.02 C
207 13-03-2018 17:10:00 7.1 C 85 % 4.75 C
208 13-03-2018 17:15:00 7 C 85 % 4.66 C
209 13-03-2018 17:20:00 6.9 C 85 % 4.56 C
210 13-03-2018 17:25:00 6.9 C 84 % 4.39 C
211 13-03-2018 17:30:00 6.9 C 84 % 4.39 C
212 13-03-2018 17:35:00 6.8 C 85 % 4.46 C
213 13-03-2018 17:40:00 6.7 C 85 % 4.36 C
214 13-03-2018 17:45:00 6.7 C 85 % 4.36 C
215 13-03-2018 17:50:00 6.6 C 86 % 4.43 C
216 13-03-2018 17:55:00 6.5 C 86 % 4.33 C
217 13-03-2018 18:00:00 6.4 C 87 % 4.4 C
218 13-03-2018 18:05:00 6.3 C 87 % 4.3 C
219 13-03-2018 18:10:00 6.3 C 88 % 4.46 C
220 13-03-2018 18:15:00 6.3 C 88 % 4.46 C
221 13-03-2018 18:20:00 6.2 C 88 % 4.36 C
222 13-03-2018 18:25:00 6.2 C 88 % 4.36 C
223 13-03-2018 18:30:00 6.2 C 88 % 4.36 C
224 13-03-2018 18:35:00 6.2 C 88 % 4.36 C
225 13-03-2018 18:40:00 6.2 C 88 % 4.36 C
Sensor: Nr:Datum:Temp:Feuchte:Taupunkt:
Aussen-T/F 226 13-03-2018 18:45:00 6.2 C 88 % 4.36 C
227 13-03-2018 18:50:00 6.2 C 88 % 4.36 C
228 13-03-2018 18:55:00 6.1 C 88 % 4.27 C
229 13-03-2018 19:00:00 6.1 C 89 % 4.43 C
230 13-03-2018 19:05:00 6.1 C 89 % 4.43 C
231 13-03-2018 19:10:00 6.1 C 89 % 4.43 C
232 13-03-2018 19:15:00 6.1 C 90 % 4.59 C
233 13-03-2018 19:20:00 6 C 90 % 4.49 C
234 13-03-2018 19:25:00 6.1 C 89 % 4.43 C
235 13-03-2018 19:30:00 6.1 C 89 % 4.43 C
236 13-03-2018 19:35:00 6.1 C 89 % 4.43 C
237 13-03-2018 19:40:00 6.1 C 89 % 4.43 C
238 13-03-2018 19:45:00 6.1 C 89 % 4.43 C
239 13-03-2018 19:50:00 6.1 C 89 % 4.43 C
240 13-03-2018 19:55:00 6.1 C 89 % 4.43 C
241 13-03-2018 20:00:00 6.1 C 89 % 4.43 C
242 13-03-2018 20:05:00 6.1 C 89 % 4.43 C
243 13-03-2018 20:10:00 6.1 C 89 % 4.43 C
244 13-03-2018 20:15:00 6.1 C 89 % 4.43 C
245 13-03-2018 20:20:00 6.1 C 89 % 4.43 C
246 13-03-2018 20:25:00 6.1 C 89 % 4.43 C
247 13-03-2018 20:30:00 6.1 C 90 % 4.59 C
248 13-03-2018 20:35:00 6 C 89 % 4.33 C
249 13-03-2018 20:40:00 6 C 90 % 4.49 C
250 13-03-2018 20:45:00 5.9 C 90 % 4.39 C
Sensor: Nr:Datum:Temp:Feuchte:Taupunkt:
Aussen-T/F 251 13-03-2018 20:50:00 5.9 C 90 % 4.39 C
252 13-03-2018 20:55:00 5.9 C 90 % 4.39 C
253 13-03-2018 21:00:00 5.9 C 90 % 4.39 C
254 13-03-2018 21:05:00 5.9 C 89 % 4.23 C
255 13-03-2018 21:10:00 5.9 C 89 % 4.23 C
256 13-03-2018 21:15:00 5.9 C 89 % 4.23 C
257 13-03-2018 21:20:00 5.8 C 89 % 4.13 C
258 13-03-2018 21:25:00 5.8 C 89 % 4.13 C
259 13-03-2018 21:30:00 5.8 C 89 % 4.13 C
260 13-03-2018 21:35:00 5.8 C 89 % 4.13 C
261 13-03-2018 21:40:00 5.8 C 90 % 4.29 C
262 13-03-2018 21:45:00 5.7 C 90 % 4.19 C
263 13-03-2018 21:50:00 5.7 C 90 % 4.19 C
264 13-03-2018 21:55:00 5.7 C 90 % 4.19 C
265 13-03-2018 22:00:00 5.7 C 91 % 4.35 C
266 13-03-2018 22:05:00 5.6 C 91 % 4.25 C
267 13-03-2018 22:10:00 5.6 C 91 % 4.25 C
268 13-03-2018 22:15:00 5.6 C 91 % 4.25 C
269 13-03-2018 22:20:00 5.6 C 91 % 4.25 C
270 13-03-2018 22:25:00 5.6 C 91 % 4.25 C
271 13-03-2018 22:30:00 5.6 C 91 % 4.25 C
272 13-03-2018 22:35:00 5.6 C 91 % 4.25 C
273 13-03-2018 22:40:00 5.5 C 91 % 4.15 C
274 13-03-2018 22:45:00 5.5 C 91 % 4.15 C
275 13-03-2018 22:50:00 5.4 C 91 % 4.05 C
Sensor: Nr:Datum:Temp:Feuchte:Taupunkt:
Aussen-T/F 276 13-03-2018 22:55:00 5.3 C 91 % 3.95 C
277 13-03-2018 23:00:00 5.3 C 91 % 3.95 C
278 13-03-2018 23:05:00 5.3 C 91 % 3.95 C
279 13-03-2018 23:10:00 5.3 C 91 % 3.95 C
280 13-03-2018 23:15:00 5.3 C 91 % 3.95 C
281 13-03-2018 23:20:00 5.3 C 91 % 3.95 C
282 13-03-2018 23:25:00 5.3 C 91 % 3.95 C
283 13-03-2018 23:30:00 5.3 C 91 % 3.95 C
284 13-03-2018 23:35:00 5.3 C 91 % 3.95 C
285 13-03-2018 23:40:00 5.2 C 91 % 3.85 C
286 13-03-2018 23:45:00 5.2 C 91 % 3.85 C
287 13-03-2018 23:50:00 5.2 C 91 % 3.85 C
288 13-03-2018 23:55:00 5.2 C 91 % 3.85 C
289 14-03-2018 00:00:00 5.2 C 91 % 3.85 C
290 14-03-2018 00:05:00 5.1 C 91 % 3.76 C
291 14-03-2018 00:10:00 5.2 C 91 % 3.85 C
292 14-03-2018 00:15:00 5.2 C 92 % 4.01 C
293 14-03-2018 00:20:00 5.1 C 92 % 3.91 C
294 14-03-2018 00:25:00 5.2 C 92 % 4.01 C
295 14-03-2018 00:30:00 5.1 C 92 % 3.91 C
296 14-03-2018 00:35:00 5.1 C 92 % 3.91 C
297 14-03-2018 00:40:00 5.1 C 92 % 3.91 C
298 14-03-2018 00:45:00 5.1 C 92 % 3.91 C
299 14-03-2018 00:50:00 5.1 C 92 % 3.91 C
300 14-03-2018 00:55:00 5.1 C 92 % 3.91 C
Sensor: Nr:Datum:Temp:Feuchte:Taupunkt:
Aussen-T/F 301 14-03-2018 01:00:00 5.1 C 92 % 3.91 C
302 14-03-2018 01:05:00 5 C 92 % 3.81 C
303 14-03-2018 01:10:00 5 C 92 % 3.81 C
304 14-03-2018 01:15:00 5 C 92 % 3.81 C
305 14-03-2018 01:20:00 5 C 92 % 3.81 C
306 14-03-2018 01:25:00 5 C 93 % 3.96 C
307 14-03-2018 01:30:00 5 C 93 % 3.96 C
308 14-03-2018 01:35:00 5 C 92 % 3.81 C
309 14-03-2018 01:40:00 5 C 93 % 3.96 C
310 14-03-2018 01:45:00 5 C 93 % 3.96 C
311 14-03-2018 01:50:00 5 C 93 % 3.96 C
312 14-03-2018 01:55:00 5 C 93 % 3.96 C
313 14-03-2018 02:00:00 4.9 C 93 % 3.87 C
314 14-03-2018 02:05:00 4.9 C 92 % 3.71 C
315 14-03-2018 02:10:00 4.9 C 92 % 3.71 C
316 14-03-2018 02:15:00 5 C 92 % 3.81 C
317 14-03-2018 02:20:00 5 C 92 % 3.81 C
318 14-03-2018 02:25:00 5 C 92 % 3.81 C
319 14-03-2018 02:30:00 5 C 92 % 3.81 C
320 14-03-2018 02:35:00 5.1 C 92 % 3.91 C
321 14-03-2018 02:40:00 5.1 C 92 % 3.91 C
322 14-03-2018 02:45:00 5.1 C 92 % 3.91 C
323 14-03-2018 02:50:00 5.1 C 92 % 3.91 C
324 14-03-2018 02:55:00 5.1 C 92 % 3.91 C
325 14-03-2018 03:00:00 5.1 C 92 % 3.91 C
Sensor: Nr:Datum:Temp:Feuchte:Taupunkt:
Aussen-T/F 326 14-03-2018 03:05:00 5.1 C 92 % 3.91 C
327 14-03-2018 03:10:00 5 C 92 % 3.81 C
328 14-03-2018 03:15:00 5 C 92 % 3.81 C
329 14-03-2018 03:20:00 5 C 92 % 3.81 C
330 14-03-2018 03:25:00 5.1 C 92 % 3.91 C
331 14-03-2018 03:30:00 5.1 C 92 % 3.91 C
332 14-03-2018 03:35:00 5.1 C 92 % 3.91 C
333 14-03-2018 03:40:00 5.1 C 92 % 3.91 C
334 14-03-2018 03:45:00 5 C 92 % 3.81 C
335 14-03-2018 03:50:00 5 C 92 % 3.81 C
336 14-03-2018 03:55:00 5 C 92 % 3.81 C
337 14-03-2018 04:00:00 5 C 92 % 3.81 C
338 14-03-2018 04:05:00 5 C 92 % 3.81 C
339 14-03-2018 04:10:00 5 C 92 % 3.81 C
340 14-03-2018 04:15:00 5 C 92 % 3.81 C
341 14-03-2018 04:20:00 5.1 C 92 % 3.91 C
342 14-03-2018 04:25:00 5.1 C 92 % 3.91 C
343 14-03-2018 04:30:00 5.1 C 92 % 3.91 C
344 14-03-2018 04:35:00 5.1 C 92 % 3.91 C
345 14-03-2018 04:40:00 5.1 C 92 % 3.91 C
346 14-03-2018 04:45:00 5.1 C 92 % 3.91 C
347 14-03-2018 04:50:00 5.1 C 92 % 3.91 C
348 14-03-2018 04:55:00 5.1 C 92 % 3.91 C
349 14-03-2018 05:00:00 5.1 C 92 % 3.91 C
350 14-03-2018 05:05:00 5.1 C 92 % 3.91 C
Sensor: Nr:Datum:Temp:Feuchte:Taupunkt:
Aussen-T/F 351 14-03-2018 05:10:00 5.2 C 92 % 4.01 C
352 14-03-2018 05:15:00 5.2 C 92 % 4.01 C
353 14-03-2018 05:20:00 5.2 C 92 % 4.01 C
354 14-03-2018 05:25:00 5.2 C 92 % 4.01 C
355 14-03-2018 05:30:00 5.2 C 92 % 4.01 C
356 14-03-2018 05:35:00 5.2 C 92 % 4.01 C
357 14-03-2018 05:40:00 5.2 C 92 % 4.01 C
358 14-03-2018 05:45:00 5.1 C 92 % 3.91 C
359 14-03-2018 05:50:00 5.1 C 92 % 3.91 C
360 14-03-2018 05:55:00 5.1 C 91 % 3.76 C
361 14-03-2018 06:00:00 5 C 92 % 3.81 C
362 14-03-2018 06:05:00 4.9 C 92 % 3.71 C
363 14-03-2018 06:10:00 4.9 C 92 % 3.71 C
364 14-03-2018 06:15:00 4.8 C 92 % 3.61 C
365 14-03-2018 06:20:00 4.8 C 92 % 3.61 C
366 14-03-2018 06:25:00 4.8 C 92 % 3.61 C
367 14-03-2018 06:30:00 4.8 C 92 % 3.61 C
368 14-03-2018 06:35:00 4.9 C 92 % 3.71 C
369 14-03-2018 06:40:00 4.9 C 93 % 3.87 C
370 14-03-2018 06:45:00 4.9 C 93 % 3.87 C
371 14-03-2018 06:50:00 4.9 C 92 % 3.71 C
372 14-03-2018 06:55:00 4.8 C 92 % 3.61 C
373 14-03-2018 07:00:00 4.8 C 92 % 3.61 C
374 14-03-2018 07:05:00 4.7 C 93 % 3.67 C
375 14-03-2018 07:10:00 4.7 C 93 % 3.67 C
Sensor: Nr:Datum:Temp:Feuchte:Taupunkt:
Aussen-T/F 376 14-03-2018 07:15:00 4.7 C 93 % 3.67 C
377 14-03-2018 07:20:00 4.6 C 93 % 3.57 C
378 14-03-2018 07:25:00 4.6 C 93 % 3.57 C
379 14-03-2018 07:30:00 4.5 C 93 % 3.47 C
380 14-03-2018 07:35:00 4.5 C 93 % 3.47 C
381 14-03-2018 07:40:00 4.4 C 93 % 3.37 C
382 14-03-2018 07:45:00 4.4 C 93 % 3.37 C
383 14-03-2018 07:50:00 4.5 C 93 % 3.47 C
384 14-03-2018 07:55:00 4.6 C 94 % 3.72 C
385 14-03-2018 08:00:00 4.7 C 94 % 3.82 C
386 14-03-2018 08:05:00 4.8 C 93 % 3.77 C
387 14-03-2018 08:10:00 4.9 C 93 % 3.87 C
388 14-03-2018 08:15:00 4.9 C 93 % 3.87 C
389 14-03-2018 08:20:00 5 C 93 % 3.96 C
390 14-03-2018 08:25:00 5.1 C 93 % 4.06 C
391 14-03-2018 08:30:00 5.2 C 92 % 4.01 C
392 14-03-2018 08:35:00 5.2 C 92 % 4.01 C
393 14-03-2018 08:40:00 5.2 C 92 % 4.01 C
394 14-03-2018 08:45:00 5.3 C 92 % 4.11 C
395 14-03-2018 08:50:00 5.4 C 92 % 4.21 C
396 14-03-2018 08:55:00 5.4 C 92 % 4.21 C
397 14-03-2018 09:00:00 5.4 C 92 % 4.21 C
398 14-03-2018 09:05:00 5.5 C 91 % 4.15 C
399 14-03-2018 09:10:00 5.4 C 91 % 4.05 C
400 14-03-2018 09:15:00 5.4 C 91 % 4.05 C
Sensor: Nr:Datum:Temp:Feuchte:Taupunkt:
Aussen-T/F 401 14-03-2018 09:20:00 5.4 C 91 % 4.05 C
402 14-03-2018 09:25:00 5.4 C 91 % 4.05 C
403 14-03-2018 09:30:00 5.3 C 91 % 3.95 C
404 14-03-2018 09:35:00 5.3 C 91 % 3.95 C
405 14-03-2018 09:40:00 5.3 C 91 % 3.95 C
406 14-03-2018 09:45:00 5.5 C 91 % 4.15 C
407 14-03-2018 09:50:00 5.8 C 90 % 4.29 C
408 14-03-2018 09:55:00 6.1 C 89 % 4.43 C
409 14-03-2018 10:00:00 6.4 C 88 % 4.56 C
410 14-03-2018 10:05:00 6.7 C 86 % 4.53 C
411 14-03-2018 10:10:00 6.9 C 85 % 4.56 C
412 14-03-2018 10:15:00 6.9 C 83 % 4.22 C
413 14-03-2018 10:20:00 7.1 C 84 % 4.58 C
414 14-03-2018 10:25:00 7.2 C 84 % 4.68 C
415 14-03-2018 10:30:00 7.3 C 84 % 4.78 C
416 14-03-2018 10:35:00 7.4 C 83 % 4.71 C
417 14-03-2018 10:40:00 7.5 C 83 % 4.81 C
418 14-03-2018 10:45:00 7.6 C 82 % 4.73 C
419 14-03-2018 10:50:00 7.7 C 83 % 5 C
420 14-03-2018 10:55:00 7.8 C 83 % 5.1 C
421 14-03-2018 11:00:00 8 C 83 % 5.29 C
422 14-03-2018 11:05:00 8.1 C 81 % 5.04 C
423 14-03-2018 11:10:00 8.3 C 80 % 5.06 C
424 14-03-2018 11:15:00 8.4 C 79 % 4.98 C
425 14-03-2018 11:20:00 8.5 C 78 % 4.89 C
Sensor: Nr:Datum:Temp:Feuchte:Taupunkt:
Aussen-T/F 426 14-03-2018 11:25:00 8.7 C 79 % 5.27 C
427 14-03-2018 11:30:00 8.7 C 77 % 4.9 C
428 14-03-2018 11:35:00 8.8 C 77 % 5 C
429 14-03-2018 11:40:00 8.8 C 76 % 4.81 C
430 14-03-2018 11:45:00 8.8 C 77 % 5 C
431 14-03-2018 11:50:00 8.9 C 76 % 4.91 C
432 14-03-2018 11:55:00 8.9 C 75 % 4.72 C
433 14-03-2018 12:00:00 9.1 C 76 % 5.1 C
434 14-03-2018 12:05:00 9.3 C 77 % 5.48 C
435 14-03-2018 12:10:00 9.6 C 76 % 5.58 C
436 14-03-2018 12:15:00 9.8 C 75 % 5.59 C
437 14-03-2018 12:20:00 9.9 C 75 % 5.68 C
438 14-03-2018 12:25:00 10.1 C 74 % 5.68 C
439 14-03-2018 12:30:00 10.2 C 73 % 5.58 C
440 14-03-2018 12:35:00 10.1 C 73 % 5.49 C
441 14-03-2018 12:40:00 10.1 C 74 % 5.68 C
442 14-03-2018 12:45:00 10 C 73 % 5.39 C
443 14-03-2018 12:50:00 9.9 C 73 % 5.29 C
444 14-03-2018 12:55:00 9.9 C 72 % 5.1 C
445 14-03-2018 13:00:00 9.8 C 72 % 5 C
446 14-03-2018 13:05:00 9.8 C 72 % 5 C
447 14-03-2018 13:10:00 9.8 C 72 % 5 C
448 14-03-2018 13:15:00 9.8 C 71 % 4.8 C
449 14-03-2018 13:20:00 9.8 C 73 % 5.2 C
450 14-03-2018 13:25:00 9.8 C 72 % 5 C
Sensor: Nr:Datum:Temp:Feuchte:Taupunkt:
Aussen-T/F 451 14-03-2018 13:30:00 9.8 C 71 % 4.8 C
452 14-03-2018 13:35:00 9.9 C 72 % 5.1 C
453 14-03-2018 13:40:00 10.1 C 72 % 5.29 C
454 14-03-2018 13:45:00 10.4 C 73 % 5.78 C
455 14-03-2018 13:50:00 10.5 C 69 % 5.06 C
456 14-03-2018 13:55:00 10.5 C 68 % 4.85 C
457 14-03-2018 14:00:00 10.4 C 68 % 4.76 C
458 14-03-2018 14:05:00 10.4 C 69 % 4.97 C
459 14-03-2018 14:10:00 10.6 C 67 % 4.74 C
460 14-03-2018 14:15:00 10.6 C 68 % 4.95 C
461 14-03-2018 14:20:00 10.7 C 68 % 5.04 C
462 14-03-2018 14:25:00 10.7 C 66 % 4.62 C
463 14-03-2018 14:30:00 10.9 C 66 % 4.81 C
464 14-03-2018 14:35:00 10.9 C 64 % 4.37 C
465 14-03-2018 14:40:00 10.9 C 64 % 4.37 C
466 14-03-2018 14:45:00 11 C 63 % 4.24 C
467 14-03-2018 14:50:00 11.1 C 64 % 4.56 C
468 14-03-2018 14:55:00 11 C 63 % 4.24 C
469 14-03-2018 15:00:00 10.9 C 61 % 3.69 C
470 14-03-2018 15:05:00 10.8 C 63 % 4.05 C
471 14-03-2018 15:10:00 10.8 C 64 % 4.27 C
472 14-03-2018 15:15:00 10.7 C 63 % 3.95 C
473 14-03-2018 15:20:00 10.7 C 65 % 4.4 C
474 14-03-2018 15:25:00 10.8 C 64 % 4.27 C
475 14-03-2018 15:30:00 10.8 C 63 % 4.05 C
Sensor: Nr:Datum:Temp:Feuchte:Taupunkt:
Aussen-T/F 476 14-03-2018 15:35:00 10.9 C 63 % 4.14 C
477 14-03-2018 15:40:00 11 C 62 % 4.01 C
478 14-03-2018 15:45:00 11.3 C 64 % 4.75 C
479 14-03-2018 15:50:00 11.4 C 61 % 4.16 C
480 14-03-2018 15:55:00 11.6 C 63 % 4.81 C
481 14-03-2018 16:00:00 11.8 C 62 % 4.77 C
482 14-03-2018 16:05:00 12 C 60 % 4.49 C
483 14-03-2018 16:10:00 12 C 59 % 4.25 C
484 14-03-2018 16:15:00 11.9 C 58 % 3.91 C
485 14-03-2018 16:20:00 11.8 C 59 % 4.06 C
486 14-03-2018 16:25:00 11.9 C 61 % 4.63 C
487 14-03-2018 16:30:00 12 C 60 % 4.49 C
488 14-03-2018 16:35:00 12 C 60 % 4.49 C
489 14-03-2018 16:40:00 12.2 C 61 % 4.91 C
490 14-03-2018 16:45:00 12.4 C 58 % 4.38 C
491 14-03-2018 16:50:00 12.4 C 59 % 4.62 C
492 14-03-2018 16:55:00 12.2 C 60 % 4.67 C
493 14-03-2018 17:00:00 11.9 C 58 % 3.91 C
494 14-03-2018 17:05:00 11.6 C 65 % 5.25 C
495 14-03-2018 17:10:00 11.4 C 65 % 5.06 C
496 14-03-2018 17:15:00 11.2 C 70 % 5.94 C
497 14-03-2018 17:20:00 11 C 71 % 5.95 C
498 14-03-2018 17:25:00 10.8 C 70 % 5.56 C
499 14-03-2018 17:30:00 10.7 C 73 % 6.07 C
500 14-03-2018 17:35:00 10.6 C 68 % 4.95 C
Sensor: Nr:Datum:Temp:Feuchte:Taupunkt:
Aussen-T/F 501 14-03-2018 17:40:00 10.5 C 73 % 5.87 C
502 14-03-2018 17:45:00 10.4 C 74 % 5.97 C
503 14-03-2018 17:50:00 10.4 C 76 % 6.36 C
504 14-03-2018 17:55:00 10.2 C 76 % 6.16 C
505 14-03-2018 18:00:00 10.1 C 76 % 6.07 C
506 14-03-2018 18:05:00 9.9 C 75 % 5.68 C
507 14-03-2018 18:10:00 9.8 C 76 % 5.78 C
508 14-03-2018 18:15:00 9.7 C 78 % 6.06 C
509 14-03-2018 18:20:00 9.6 C 78 % 5.96 C
510 14-03-2018 18:25:00 9.3 C 79 % 5.85 C
511 14-03-2018 18:30:00 9.2 C 78 % 5.57 C
512 14-03-2018 18:35:00 9.1 C 79 % 5.66 C
513 14-03-2018 18:40:00 9 C 79 % 5.56 C
514 14-03-2018 18:45:00 8.8 C 80 % 5.55 C
515 14-03-2018 18:50:00 8.6 C 79 % 5.17 C
516 14-03-2018 18:55:00 8.4 C 80 % 5.16 C
517 14-03-2018 19:00:00 8.1 C 80 % 4.86 C
518 14-03-2018 19:05:00 7.8 C 80 % 4.57 C
519 14-03-2018 19:10:00 7.5 C 82 % 4.63 C
520 14-03-2018 19:15:00 7.2 C 82 % 4.34 C
521 14-03-2018 19:20:00 7 C 84 % 4.49 C
522 14-03-2018 19:25:00 6.8 C 84 % 4.29 C
523 14-03-2018 19:30:00 6.6 C 85 % 4.26 C
524 14-03-2018 19:35:00 6.4 C 85 % 4.07 C
525 14-03-2018 19:40:00 6.3 C 86 % 4.14 C
Sensor: Nr:Datum:Temp:Feuchte:Taupunkt:
Aussen-T/F 526 14-03-2018 19:45:00 6.2 C 86 % 4.04 C
527 14-03-2018 19:50:00 6.1 C 86 % 3.94 C
528 14-03-2018 19:55:00 5.9 C 87 % 3.91 C
529 14-03-2018 20:00:00 5.9 C 87 % 3.91 C
530 14-03-2018 20:05:00 5.8 C 87 % 3.81 C
531 14-03-2018 20:10:00 5.7 C 87 % 3.71 C
532 14-03-2018 20:15:00 5.6 C 88 % 3.77 C
533 14-03-2018 20:20:00 5.6 C 88 % 3.77 C
534 14-03-2018 20:25:00 5.4 C 88 % 3.58 C
535 14-03-2018 20:30:00 5.3 C 88 % 3.48 C
536 14-03-2018 20:35:00 5.3 C 88 % 3.48 C
537 14-03-2018 20:40:00 5.2 C 89 % 3.54 C
538 14-03-2018 20:45:00 5.1 C 89 % 3.44 C
539 14-03-2018 20:50:00 5.1 C 89 % 3.44 C
540 14-03-2018 20:55:00 5 C 89 % 3.34 C
541 14-03-2018 21:00:00 4.9 C 90 % 3.4 C
542 14-03-2018 21:05:00 4.9 C 90 % 3.4 C
543 14-03-2018 21:10:00 4.9 C 89 % 3.24 C
544 14-03-2018 21:15:00 4.8 C 89 % 3.14 C
545 14-03-2018 21:20:00 4.8 C 89 % 3.14 C
546 14-03-2018 21:25:00 4.7 C 90 % 3.2 C
547 14-03-2018 21:30:00 4.7 C 90 % 3.2 C
548 14-03-2018 21:35:00 4.6 C 90 % 3.1 C
549 14-03-2018 21:40:00 4.6 C 90 % 3.1 C
550 14-03-2018 21:45:00 4.4 C 90 % 2.91 C
Sensor: Nr:Datum:Temp:Feuchte:Taupunkt:
Aussen-T/F 551 14-03-2018 21:50:00 4.4 C 90 % 2.91 C
552 14-03-2018 21:55:00 4.3 C 90 % 2.81 C
553 14-03-2018 22:00:00 4.3 C 90 % 2.81 C
554 14-03-2018 22:05:00 4.2 C 90 % 2.71 C
555 14-03-2018 22:10:00 4.2 C 90 % 2.71 C
556 14-03-2018 22:15:00 4.1 C 90 % 2.61 C
557 14-03-2018 22:20:00 4 C 90 % 2.51 C
558 14-03-2018 22:25:00 3.9 C 90 % 2.41 C
559 14-03-2018 22:30:00 3.9 C 90 % 2.41 C
560 14-03-2018 22:35:00 3.8 C 90 % 2.31 C
561 14-03-2018 22:40:00 3.8 C 90 % 2.31 C
562 14-03-2018 22:45:00 3.9 C 90 % 2.41 C
563 14-03-2018 22:50:00 3.9 C 90 % 2.41 C
564 14-03-2018 22:55:00 3.9 C 90 % 2.41 C
565 14-03-2018 23:00:00 3.9 C 90 % 2.41 C
566 14-03-2018 23:05:00 3.8 C 90 % 2.31 C
567 14-03-2018 23:10:00 3.9 C 90 % 2.41 C
568 14-03-2018 23:15:00 3.8 C 90 % 2.31 C
569 14-03-2018 23:20:00 3.9 C 89 % 2.26 C
570 14-03-2018 23:25:00 3.9 C 89 % 2.26 C
571 14-03-2018 23:30:00 3.8 C 89 % 2.16 C
572 14-03-2018 23:35:00 3.8 C 89 % 2.16 C
573 14-03-2018 23:40:00 3.8 C 90 % 2.31 C
574 14-03-2018 23:45:00 3.7 C 89 % 2.06 C
575 14-03-2018 23:50:00 3.7 C 90 % 2.22 C
Sensor: Nr:Datum:Temp:Feuchte:Taupunkt:
Aussen-T/F 576 14-03-2018 23:55:00 3.6 C 90 % 2.12 C
577 15-03-2018 00:00:00 3.5 C 90 % 2.02 C
578 15-03-2018 00:05:00 3.4 C 90 % 1.92 C
579 15-03-2018 00:10:00 3.4 C 90 % 1.92 C
580 15-03-2018 00:15:00 3.4 C 90 % 1.92 C
581 15-03-2018 00:20:00 3.3 C 90 % 1.82 C
582 15-03-2018 00:25:00 3.3 C 91 % 1.98 C
583 15-03-2018 00:30:00 3.3 C 91 % 1.98 C
584 15-03-2018 00:35:00 3.3 C 91 % 1.98 C
585 15-03-2018 00:40:00 3.3 C 91 % 1.98 C
586 15-03-2018 00:45:00 3.2 C 91 % 1.88 C
587 15-03-2018 00:50:00 3.2 C 91 % 1.88 C
588 15-03-2018 00:55:00 3.1 C 91 % 1.78 C
589 15-03-2018 01:00:00 3 C 91 % 1.68 C
590 15-03-2018 01:05:00 3 C 91 % 1.68 C
591 15-03-2018 01:10:00 3.1 C 92 % 1.93 C
592 15-03-2018 01:15:00 3 C 92 % 1.83 C
593 15-03-2018 01:20:00 3.1 C 92 % 1.93 C
594 15-03-2018 01:25:00 3.1 C 92 % 1.93 C
595 15-03-2018 01:30:00 3.1 C 92 % 1.93 C
596 15-03-2018 01:35:00 3 C 91 % 1.68 C
597 15-03-2018 01:40:00 3 C 92 % 1.83 C
598 15-03-2018 01:45:00 3 C 92 % 1.83 C
599 15-03-2018 01:50:00 2.9 C 92 % 1.73 C
600 15-03-2018 01:55:00 2.9 C 92 % 1.73 C
Sensor: Nr:Datum:Temp:Feuchte:Taupunkt:
Aussen-T/F 601 15-03-2018 02:00:00 2.8 C 92 % 1.63 C
602 15-03-2018 02:05:00 2.8 C 92 % 1.63 C
603 15-03-2018 02:10:00 2.8 C 92 % 1.63 C
604 15-03-2018 02:15:00 2.8 C 92 % 1.63 C
605 15-03-2018 02:20:00 2.8 C 92 % 1.63 C
606 15-03-2018 02:25:00 2.8 C 92 % 1.63 C
607 15-03-2018 02:30:00 2.7 C 92 % 1.53 C
608 15-03-2018 02:35:00 2.7 C 92 % 1.53 C
609 15-03-2018 02:40:00 2.6 C 92 % 1.43 C
610 15-03-2018 02:45:00 2.6 C 92 % 1.43 C
611 15-03-2018 02:50:00 2.5 C 92 % 1.34 C
612 15-03-2018 02:55:00 2.4 C 92 % 1.24 C
613 15-03-2018 03:00:00 2.4 C 92 % 1.24 C
614 15-03-2018 03:05:00 2.4 C 92 % 1.24 C
615 15-03-2018 03:10:00 2.4 C 92 % 1.24 C
616 15-03-2018 03:15:00 2.3 C 92 % 1.14 C
617 15-03-2018 03:20:00 2.3 C 92 % 1.14 C
618 15-03-2018 03:25:00 2.3 C 93 % 1.29 C
619 15-03-2018 03:30:00 2.3 C 93 % 1.29 C
620 15-03-2018 03:35:00 2.2 C 92 % 1.04 C
621 15-03-2018 03:40:00 2.2 C 92 % 1.04 C
622 15-03-2018 03:45:00 2.1 C 92 % 0.94 C
623 15-03-2018 03:50:00 2.1 C 93 % 1.09 C
624 15-03-2018 03:55:00 2.1 C 93 % 1.09 C
625 15-03-2018 04:00:00 2.1 C 93 % 1.09 C
Sensor: Nr:Datum:Temp:Feuchte:Taupunkt:
Aussen-T/F 626 15-03-2018 04:05:00 2.1 C 93 % 1.09 C
627 15-03-2018 04:10:00 2.1 C 93 % 1.09 C
628 15-03-2018 04:15:00 2.1 C 93 % 1.09 C
629 15-03-2018 04:20:00 1.9 C 92 % 0.74 C
630 15-03-2018 04:25:00 1.9 C 92 % 0.74 C
631 15-03-2018 04:30:00 1.8 C 93 % 0.79 C
632 15-03-2018 04:35:00 1.8 C 93 % 0.79 C
633 15-03-2018 04:40:00 1.8 C 93 % 0.79 C
634 15-03-2018 04:45:00 1.7 C 93 % 0.69 C
635 15-03-2018 04:50:00 1.7 C 93 % 0.69 C
636 15-03-2018 04:55:00 1.7 C 93 % 0.69 C
637 15-03-2018 05:00:00 1.6 C 93 % 0.59 C
638 15-03-2018 05:05:00 1.6 C 93 % 0.59 C
639 15-03-2018 05:10:00 1.6 C 93 % 0.59 C
640 15-03-2018 05:15:00 1.6 C 93 % 0.59 C
641 15-03-2018 05:20:00 1.6 C 93 % 0.59 C
642 15-03-2018 05:25:00 1.6 C 93 % 0.59 C
643 15-03-2018 05:30:00 1.6 C 93 % 0.59 C
644 15-03-2018 05:35:00 1.6 C 93 % 0.59 C
645 15-03-2018 05:40:00 1.6 C 93 % 0.59 C
646 15-03-2018 05:45:00 1.5 C 93 % 0.49 C
647 15-03-2018 05:50:00 1.5 C 93 % 0.49 C
648 15-03-2018 05:55:00 1.4 C 93 % 0.4 C
649 15-03-2018 06:00:00 1.5 C 93 % 0.49 C
650 15-03-2018 06:05:00 1.5 C 93 % 0.49 C
Sensor: Nr:Datum:Temp:Feuchte:Taupunkt:
Aussen-T/F 651 15-03-2018 06:10:00 1.4 C 93 % 0.4 C
652 15-03-2018 06:15:00 1.5 C 94 % 0.64 C
653 15-03-2018 06:20:00 1.6 C 94 % 0.74 C
654 15-03-2018 06:25:00 1.6 C 94 % 0.74 C
655 15-03-2018 06:30:00 1.6 C 94 % 0.74 C
656 15-03-2018 06:35:00 1.6 C 94 % 0.74 C
657 15-03-2018 06:40:00 1.7 C 94 % 0.84 C
658 15-03-2018 06:45:00 1.7 C 94 % 0.84 C
659 15-03-2018 06:50:00 1.7 C 93 % 0.69 C
660 15-03-2018 06:55:00 1.7 C 93 % 0.69 C
661 15-03-2018 07:00:00 1.8 C 93 % 0.79 C
662 15-03-2018 07:05:00 1.8 C 94 % 0.94 C
663 15-03-2018 07:10:00 1.9 C 94 % 1.04 C
664 15-03-2018 07:15:00 2 C 94 % 1.14 C
665 15-03-2018 07:20:00 2.1 C 94 % 1.24 C
666 15-03-2018 07:25:00 2.2 C 93 % 1.19 C
667 15-03-2018 07:30:00 2.2 C 93 % 1.19 C
668 15-03-2018 07:35:00 2.2 C 93 % 1.19 C
669 15-03-2018 07:40:00 2.3 C 93 % 1.29 C
670 15-03-2018 07:45:00 2.3 C 93 % 1.29 C
671 15-03-2018 07:50:00 2.2 C 93 % 1.19 C
672 15-03-2018 07:55:00 2.2 C 93 % 1.19 C
673 15-03-2018 08:00:00 2.3 C 93 % 1.29 C
674 15-03-2018 08:05:00 2.4 C 93 % 1.39 C
675 15-03-2018 08:10:00 2.5 C 93 % 1.49 C
Sensor: Nr:Datum:Temp:Feuchte:Taupunkt:
Aussen-T/F 676 15-03-2018 08:15:00 2.6 C 93 % 1.59 C
677 15-03-2018 08:20:00 2.7 C 93 % 1.68 C
678 15-03-2018 08:25:00 2.9 C 94 % 2.03 C
679 15-03-2018 08:30:00 3 C 93 % 1.98 C
680 15-03-2018 08:35:00 3.2 C 93 % 2.18 C
681 15-03-2018 08:40:00 3.4 C 93 % 2.38 C
682 15-03-2018 08:45:00 3.6 C 92 % 2.42 C
683 15-03-2018 08:50:00 3.8 C 91 % 2.47 C
684 15-03-2018 08:55:00 4 C 90 % 2.51 C
685 15-03-2018 09:00:00 4.2 C 90 % 2.71 C
686 15-03-2018 09:05:00 4.4 C 89 % 2.75 C
687 15-03-2018 09:10:00 4.6 C 88 % 2.79 C
688 15-03-2018 09:15:00 4.8 C 86 % 2.66 C
689 15-03-2018 09:20:00 5 C 85 % 2.69 C
690 15-03-2018 09:25:00 5.2 C 85 % 2.89 C
691 15-03-2018 09:30:00 5.4 C 83 % 2.75 C
692 15-03-2018 09:35:00 5.5 C 83 % 2.85 C
693 15-03-2018 09:40:00 5.7 C 83 % 3.04 C
694 15-03-2018 09:45:00 5.8 C 81 % 2.8 C
695 15-03-2018 09:50:00 5.9 C 81 % 2.9 C
696 15-03-2018 09:55:00 6.1 C 81 % 3.09 C
697 15-03-2018 10:00:00 6.2 C 81 % 3.19 C
698 15-03-2018 10:05:00 6.3 C 79 % 2.93 C
699 15-03-2018 10:10:00 6.4 C 79 % 3.03 C
700 15-03-2018 10:15:00 6.6 C 80 % 3.4 C
Sensor: Nr:Datum:Temp:Feuchte:Taupunkt:
Aussen-T/F 701 15-03-2018 10:20:00 6.8 C 80 % 3.6 C
702 15-03-2018 10:25:00 6.9 C 79 % 3.52 C
703 15-03-2018 10:30:00 7.1 C 78 % 3.53 C
704 15-03-2018 10:35:00 7.2 C 78 % 3.63 C
705 15-03-2018 10:40:00 7.3 C 77 % 3.54 C
706 15-03-2018 10:45:00 7.4 C 78 % 3.82 C
707 15-03-2018 10:50:00 7.7 C 77 % 3.93 C
708 15-03-2018 10:55:00 7.8 C 76 % 3.84 C
709 15-03-2018 11:00:00 7.9 C 76 % 3.94 C
710 15-03-2018 11:05:00 8.1 C 76 % 4.13 C
711 15-03-2018 11:10:00 8.3 C 75 % 4.14 C
712 15-03-2018 11:15:00 8.4 C 74 % 4.04 C
713 15-03-2018 11:20:00 8.7 C 73 % 4.14 C
714 15-03-2018 11:25:00 8.9 C 72 % 4.14 C
715 15-03-2018 11:30:00 9.1 C 73 % 4.52 C
716 15-03-2018 11:35:00 9.2 C 71 % 4.22 C
717 15-03-2018 11:40:00 9.3 C 70 % 4.12 C
718 15-03-2018 11:45:00 9.5 C 69 % 4.11 C
719 15-03-2018 11:50:00 9.6 C 69 % 4.2 C
720 15-03-2018 11:55:00 9.7 C 69 % 4.3 C
721 15-03-2018 12:00:00 9.9 C 67 % 4.07 C
722 15-03-2018 12:05:00 10.1 C 69 % 4.68 C
723 15-03-2018 12:10:00 10.3 C 69 % 4.87 C
724 15-03-2018 12:15:00 10.6 C 67 % 4.74 C
725 15-03-2018 12:20:00 10.7 C 67 % 4.83 C
Sensor: Nr:Datum:Temp:Feuchte:Taupunkt:
Aussen-T/F 726 15-03-2018 12:25:00 10.8 C 65 % 4.49 C
727 15-03-2018 12:30:00 10.9 C 65 % 4.59 C
728 15-03-2018 12:35:00 11 C 66 % 4.9 C
729 15-03-2018 12:40:00 11.2 C 64 % 4.65 C
730 15-03-2018 12:45:00 11.3 C 65 % 4.97 C
731 15-03-2018 12:50:00 11.4 C 63 % 4.62 C
732 15-03-2018 12:55:00 11.5 C 63 % 4.71 C
733 15-03-2018 13:00:00 11.6 C 62 % 4.58 C
734 15-03-2018 13:05:00 11.6 C 63 % 4.81 C
735 15-03-2018 13:10:00 11.6 C 61 % 4.35 C
736 15-03-2018 13:15:00 11.5 C 62 % 4.48 C
737 15-03-2018 13:20:00 11.4 C 62 % 4.39 C
738 15-03-2018 13:25:00 11.4 C 63 % 4.62 C
739 15-03-2018 13:30:00 11.4 C 62 % 4.39 C
740 15-03-2018 13:35:00 11.4 C 63 % 4.62 C
741 15-03-2018 13:40:00 11.3 C 62 % 4.29 C
742 15-03-2018 13:45:00 11.3 C 61 % 4.06 C
743 15-03-2018 13:50:00 11.4 C 62 % 4.39 C
744 15-03-2018 13:55:00 11.4 C 62 % 4.39 C
745 15-03-2018 14:00:00 11.4 C 62 % 4.39 C
746 15-03-2018 14:05:00 11.5 C 61 % 4.25 C
747 15-03-2018 14:10:00 11.6 C 60 % 4.11 C
748 15-03-2018 14:15:00 11.6 C 60 % 4.11 C
749 15-03-2018 14:20:00 11.6 C 60 % 4.11 C
750 15-03-2018 14:25:00 11.6 C 60 % 4.11 C
Sensor: Nr:Datum:Temp:Feuchte:Taupunkt:
Aussen-T/F 751 15-03-2018 14:30:00 11.7 C 59 % 3.97 C
752 15-03-2018 14:35:00 11.7 C 59 % 3.97 C
753 15-03-2018 14:40:00 11.7 C 59 % 3.97 C
754 15-03-2018 14:45:00 11.7 C 59 % 3.97 C
755 15-03-2018 14:50:00 11.7 C 60 % 4.2 C
756 15-03-2018 14:55:00 11.7 C 59 % 3.97 C
757 15-03-2018 15:00:00 11.7 C 59 % 3.97 C
758 15-03-2018 15:05:00 11.7 C 59 % 3.97 C
759 15-03-2018 15:10:00 11.7 C 60 % 4.2 C
760 15-03-2018 15:15:00 11.7 C 59 % 3.97 C
761 15-03-2018 15:20:00 11.7 C 61 % 4.44 C
762 15-03-2018 15:25:00 11.7 C 62 % 4.67 C
763 15-03-2018 15:30:00 11.7 C 61 % 4.44 C
764 15-03-2018 15:35:00 11.7 C 61 % 4.44 C
765 15-03-2018 15:40:00 11.7 C 61 % 4.44 C
766 15-03-2018 15:45:00 11.7 C 61 % 4.44 C
767 15-03-2018 15:50:00 11.7 C 61 % 4.44 C
768 15-03-2018 15:55:00 11.7 C 61 % 4.44 C
769 15-03-2018 16:00:00 11.7 C 60 % 4.2 C
770 15-03-2018 16:05:00 11.7 C 61 % 4.44 C
771 15-03-2018 16:10:00 11.7 C 60 % 4.2 C
772 15-03-2018 16:15:00 11.7 C 60 % 4.2 C
773 15-03-2018 16:20:00 11.7 C 62 % 4.67 C
774 15-03-2018 16:25:00 11.7 C 60 % 4.2 C
775 15-03-2018 16:30:00 11.7 C 63 % 4.9 C
Sensor: Nr:Datum:Temp:Feuchte:Taupunkt:
Aussen-T/F 776 15-03-2018 16:35:00 11.6 C 64 % 5.03 C
777 15-03-2018 16:40:00 11.6 C 64 % 5.03 C
778 15-03-2018 16:45:00 11.5 C 61 % 4.25 C
779 15-03-2018 16:50:00 11.4 C 62 % 4.39 C
780 15-03-2018 16:55:00 11.3 C 66 % 5.19 C
781 15-03-2018 17:00:00 11.2 C 65 % 4.87 C
782 15-03-2018 17:05:00 11.2 C 66 % 5.09 C
783 15-03-2018 17:10:00 11.1 C 67 % 5.21 C
784 15-03-2018 17:15:00 11 C 70 % 5.75 C
785 15-03-2018 17:20:00 10.9 C 69 % 5.44 C
786 15-03-2018 17:25:00 10.8 C 71 % 5.76 C
787 15-03-2018 17:30:00 10.6 C 71 % 5.57 C
788 15-03-2018 17:35:00 10.5 C 73 % 5.87 C
789 15-03-2018 17:40:00 10.3 C 73 % 5.68 C
790 15-03-2018 17:45:00 10.1 C 70 % 4.89 C
791 15-03-2018 17:50:00 10 C 73 % 5.39 C
792 15-03-2018 17:55:00 9.9 C 73 % 5.29 C
793 15-03-2018 18:00:00 9.8 C 73 % 5.2 C
794 15-03-2018 18:05:00 9.8 C 76 % 5.78 C
795 15-03-2018 18:10:00 9.7 C 80 % 6.42 C
796 15-03-2018 18:15:00 9.5 C 83 % 6.76 C
797 15-03-2018 18:20:00 9.2 C 86 % 6.98 C
798 15-03-2018 18:25:00 8.9 C 87 % 6.86 C
799 15-03-2018 18:30:00 8.6 C 89 % 6.89 C
800 15-03-2018 18:35:00 8.3 C 90 % 6.76 C
Sensor: Nr:Datum:Temp:Feuchte:Taupunkt:
Aussen-T/F 801 15-03-2018 18:40:00 8.2 C 91 % 6.82 C
802 15-03-2018 18:45:00 8.1 C 91 % 6.72 C
803 15-03-2018 18:50:00 7.9 C 92 % 6.68 C
804 15-03-2018 18:55:00 7.8 C 92 % 6.58 C
805 15-03-2018 19:00:00 7.8 C 92 % 6.58 C
806 15-03-2018 19:05:00 7.7 C 93 % 6.64 C
807 15-03-2018 19:10:00 7.6 C 93 % 6.54 C
808 15-03-2018 19:15:00 7.5 C 93 % 6.44 C
809 15-03-2018 19:20:00 7.4 C 93 % 6.34 C
810 15-03-2018 19:25:00 7.4 C 94 % 6.5 C
811 15-03-2018 19:30:00 7.3 C 94 % 6.4 C
812 15-03-2018 19:35:00 7.3 C 94 % 6.4 C
813 15-03-2018 19:40:00 7.3 C 94 % 6.4 C
814 15-03-2018 19:45:00 7.2 C 94 % 6.3 C
815 15-03-2018 19:50:00 7.2 C 94 % 6.3 C
816 15-03-2018 19:55:00 7.2 C 94 % 6.3 C
817 15-03-2018 20:00:00 7.2 C 94 % 6.3 C
818 15-03-2018 20:05:00 7.1 C 94 % 6.2 C
819 15-03-2018 20:10:00 7.1 C 94 % 6.2 C
820 15-03-2018 20:15:00 7.1 C 95 % 6.35 C
821 15-03-2018 20:20:00 7.1 C 95 % 6.35 C
822 15-03-2018 20:25:00 7.1 C 95 % 6.35 C
823 15-03-2018 20:30:00 7.1 C 95 % 6.35 C
824 15-03-2018 20:35:00 7.1 C 95 % 6.35 C
825 15-03-2018 20:40:00 7 C 95 % 6.26 C
Sensor: Nr:Datum:Temp:Feuchte:Taupunkt:
Aussen-T/F 826 15-03-2018 20:45:00 7 C 95 % 6.26 C
827 15-03-2018 20:50:00 6.9 C 95 % 6.16 C
828 15-03-2018 20:55:00 6.9 C 95 % 6.16 C
829 15-03-2018 21:00:00 6.9 C 95 % 6.16 C
830 15-03-2018 21:05:00 6.9 C 95 % 6.16 C
831 15-03-2018 21:10:00 6.8 C 95 % 6.06 C
832 15-03-2018 21:15:00 6.8 C 95 % 6.06 C
833 15-03-2018 21:20:00 6.8 C 95 % 6.06 C
834 15-03-2018 21:25:00 6.8 C 95 % 6.06 C
835 15-03-2018 21:30:00 6.8 C 95 % 6.06 C
836 15-03-2018 21:35:00 6.8 C 95 % 6.06 C
837 15-03-2018 21:40:00 6.8 C 95 % 6.06 C
838 15-03-2018 21:45:00 6.8 C 95 % 6.06 C
839 15-03-2018 21:50:00 6.7 C 95 % 5.96 C
840 15-03-2018 21:55:00 6.7 C 95 % 5.96 C
841 15-03-2018 22:00:00 6.7 C 95 % 5.96 C
842 15-03-2018 22:05:00 6.7 C 95 % 5.96 C
843 15-03-2018 22:10:00 6.7 C 95 % 5.96 C
844 15-03-2018 22:15:00 6.7 C 95 % 5.96 C
845 15-03-2018 22:20:00 6.7 C 95 % 5.96 C
846 15-03-2018 22:25:00 6.6 C 95 % 5.86 C
847 15-03-2018 22:30:00 6.6 C 95 % 5.86 C
848 15-03-2018 22:35:00 6.6 C 95 % 5.86 C
849 15-03-2018 22:40:00 6.6 C 95 % 5.86 C
850 15-03-2018 22:45:00 6.6 C 95 % 5.86 C
Sensor: Nr:Datum:Temp:Feuchte:Taupunkt:
Aussen-T/F 851 15-03-2018 22:50:00 6.6 C 95 % 5.86 C
852 15-03-2018 22:55:00 6.6 C 95 % 5.86 C
853 15-03-2018 23:00:00 6.6 C 95 % 5.86 C
854 15-03-2018 23:05:00 6.6 C 95 % 5.86 C
855 15-03-2018 23:10:00 6.6 C 95 % 5.86 C
856 15-03-2018 23:15:00 6.6 C 95 % 5.86 C
857 15-03-2018 23:20:00 6.6 C 95 % 5.86 C
858 15-03-2018 23:25:00 6.6 C 95 % 5.86 C
859 15-03-2018 23:30:00 6.6 C 96 % 6.01 C
860 15-03-2018 23:35:00 6.6 C 96 % 6.01 C
861 15-03-2018 23:40:00 6.6 C 96 % 6.01 C
862 15-03-2018 23:45:00 6.6 C 96 % 6.01 C
863 15-03-2018 23:50:00 6.6 C 96 % 6.01 C
864 15-03-2018 23:55:00 6.7 C 96 % 6.11 C
865 16-03-2018 00:00:00 6.7 C 96 % 6.11 C
866 16-03-2018 00:05:00 6.7 C 96 % 6.11 C
867 16-03-2018 00:10:00 6.6 C 96 % 6.01 C
868 16-03-2018 00:15:00 6.6 C 96 % 6.01 C
869 16-03-2018 00:20:00 6.6 C 96 % 6.01 C
870 16-03-2018 00:25:00 6.6 C 96 % 6.01 C
871 16-03-2018 00:30:00 6.6 C 96 % 6.01 C
872 16-03-2018 00:35:00 6.7 C 96 % 6.11 C
873 16-03-2018 00:40:00 6.7 C 96 % 6.11 C
874 16-03-2018 00:45:00 6.7 C 96 % 6.11 C
875 16-03-2018 00:50:00 6.8 C 96 % 6.21 C
Sensor: Nr:Datum:Temp:Feuchte:Taupunkt:
Aussen-T/F 876 16-03-2018 00:55:00 6.8 C 96 % 6.21 C
877 16-03-2018 01:00:00 6.8 C 96 % 6.21 C
878 16-03-2018 01:05:00 6.8 C 96 % 6.21 C
879 16-03-2018 01:10:00 6.8 C 96 % 6.21 C
880 16-03-2018 01:15:00 6.8 C 96 % 6.21 C
881 16-03-2018 01:20:00 6.8 C 96 % 6.21 C
882 16-03-2018 01:25:00 6.9 C 96 % 6.31 C
883 16-03-2018 01:30:00 6.9 C 96 % 6.31 C
884 16-03-2018 01:35:00 6.9 C 96 % 6.31 C
885 16-03-2018 01:40:00 6.9 C 96 % 6.31 C
886 16-03-2018 01:45:00 6.9 C 96 % 6.31 C
887 16-03-2018 01:50:00 6.9 C 96 % 6.31 C
888 16-03-2018 01:55:00 6.9 C 96 % 6.31 C
889 16-03-2018 02:00:00 6.9 C 96 % 6.31 C
890 16-03-2018 02:05:00 6.9 C 96 % 6.31 C
891 16-03-2018 02:10:00 6.9 C 96 % 6.31 C
892 16-03-2018 02:15:00 6.9 C 96 % 6.31 C
893 16-03-2018 02:20:00 6.9 C 96 % 6.31 C
894 16-03-2018 02:25:00 6.9 C 96 % 6.31 C
895 16-03-2018 02:30:00 6.9 C 96 % 6.31 C
896 16-03-2018 02:35:00 6.8 C 96 % 6.21 C
897 16-03-2018 02:40:00 6.7 C 96 % 6.11 C
898 16-03-2018 02:45:00 6.6 C 95 % 5.86 C
899 16-03-2018 02:50:00 6.5 C 95 % 5.76 C
900 16-03-2018 02:55:00 6.4 C 96 % 5.81 C
Sensor: Nr:Datum:Temp:Feuchte:Taupunkt:
Aussen-T/F 901 16-03-2018 03:00:00 6.5 C 96 % 5.91 C
902 16-03-2018 03:05:00 6.5 C 96 % 5.91 C
903 16-03-2018 03:10:00 6.4 C 96 % 5.81 C
904 16-03-2018 03:15:00 6.5 C 96 % 5.91 C
905 16-03-2018 03:20:00 6.6 C 96 % 6.01 C
906 16-03-2018 03:25:00 6.6 C 96 % 6.01 C
907 16-03-2018 03:30:00 6.7 C 96 % 6.11 C
908 16-03-2018 03:35:00 6.7 C 96 % 6.11 C
909 16-03-2018 03:40:00 6.7 C 96 % 6.11 C
910 16-03-2018 03:45:00 6.7 C 96 % 6.11 C
911 16-03-2018 03:50:00 6.7 C 96 % 6.11 C
912 16-03-2018 03:55:00 6.7 C 96 % 6.11 C
913 16-03-2018 04:00:00 6.7 C 96 % 6.11 C
914 16-03-2018 04:05:00 6.7 C 96 % 6.11 C
915 16-03-2018 04:10:00 6.7 C 96 % 6.11 C
916 16-03-2018 04:15:00 6.7 C 96 % 6.11 C
917 16-03-2018 04:20:00 6.8 C 96 % 6.21 C
918 16-03-2018 04:25:00 6.8 C 96 % 6.21 C
919 16-03-2018 04:30:00 6.8 C 96 % 6.21 C
920 16-03-2018 04:35:00 6.8 C 96 % 6.21 C
921 16-03-2018 04:40:00 6.8 C 96 % 6.21 C
922 16-03-2018 04:45:00 6.8 C 96 % 6.21 C
923 16-03-2018 04:50:00 6.8 C 96 % 6.21 C
924 16-03-2018 04:55:00 6.8 C 96 % 6.21 C
925 16-03-2018 05:00:00 6.8 C 96 % 6.21 C
Sensor: Nr:Datum:Temp:Feuchte:Taupunkt:
Aussen-T/F 926 16-03-2018 05:05:00 6.8 C 96 % 6.21 C
927 16-03-2018 05:10:00 6.8 C 96 % 6.21 C
928 16-03-2018 05:15:00 6.8 C 96 % 6.21 C
929 16-03-2018 05:20:00 6.9 C 96 % 6.31 C
930 16-03-2018 05:25:00 6.9 C 96 % 6.31 C
931 16-03-2018 05:30:00 6.9 C 96 % 6.31 C
932 16-03-2018 05:35:00 6.9 C 96 % 6.31 C
933 16-03-2018 05:40:00 6.9 C 96 % 6.31 C
934 16-03-2018 05:45:00 6.9 C 96 % 6.31 C
935 16-03-2018 05:50:00 6.9 C 96 % 6.31 C
936 16-03-2018 05:55:00 6.9 C 96 % 6.31 C
937 16-03-2018 06:00:00 6.9 C 96 % 6.31 C
938 16-03-2018 06:05:00 6.9 C 96 % 6.31 C
939 16-03-2018 06:10:00 6.9 C 96 % 6.31 C
940 16-03-2018 06:15:00 6.8 C 96 % 6.21 C
941 16-03-2018 06:20:00 6.8 C 96 % 6.21 C
942 16-03-2018 06:25:00 6.8 C 96 % 6.21 C
943 16-03-2018 06:30:00 6.9 C 96 % 6.31 C
944 16-03-2018 06:35:00 6.9 C 96 % 6.31 C
945 16-03-2018 06:40:00 6.9 C 96 % 6.31 C
946 16-03-2018 06:45:00 6.9 C 96 % 6.31 C
947 16-03-2018 06:50:00 6.9 C 96 % 6.31 C
948 16-03-2018 06:55:00 6.9 C 96 % 6.31 C
949 16-03-2018 07:00:00 6.9 C 97 % 6.46 C
950 16-03-2018 07:05:00 6.9 C 97 % 6.46 C
Sensor: Nr:Datum:Temp:Feuchte:Taupunkt:
Aussen-T/F 951 16-03-2018 07:10:00 6.9 C 97 % 6.46 C
952 16-03-2018 07:15:00 7 C 96 % 6.41 C
953 16-03-2018 07:20:00 7 C 96 % 6.41 C
954 16-03-2018 07:25:00 7.1 C 97 % 6.66 C
955 16-03-2018 07:30:00 7.1 C 97 % 6.66 C
956 16-03-2018 07:35:00 7.1 C 97 % 6.66 C
957 16-03-2018 07:40:00 7.1 C 97 % 6.66 C
958 16-03-2018 07:45:00 7.1 C 97 % 6.66 C
959 16-03-2018 07:50:00 7.2 C 97 % 6.76 C
960 16-03-2018 07:55:00 7.2 C 97 % 6.76 C
961 16-03-2018 08:00:00 7.2 C 97 % 6.76 C
962 16-03-2018 08:05:00 7.2 C 97 % 6.76 C
963 16-03-2018 08:10:00 7.2 C 97 % 6.76 C
964 16-03-2018 08:15:00 7.2 C 97 % 6.76 C
965 16-03-2018 08:20:00 7.3 C 97 % 6.86 C
966 16-03-2018 08:25:00 7.3 C 97 % 6.86 C
967 16-03-2018 08:30:00 7.3 C 97 % 6.86 C
968 16-03-2018 08:35:00 7.4 C 97 % 6.96 C
969 16-03-2018 08:40:00 7.4 C 97 % 6.96 C
970 16-03-2018 08:45:00 7.4 C 97 % 6.96 C
971 16-03-2018 08:50:00 7.4 C 97 % 6.96 C
972 16-03-2018 08:55:00 7.4 C 97 % 6.96 C
973 16-03-2018 09:00:00 7.5 C 97 % 7.06 C
974 16-03-2018 09:05:00 7.6 C 97 % 7.16 C
975 16-03-2018 09:10:00 7.6 C 97 % 7.16 C
Sensor: Nr:Datum:Temp:Feuchte:Taupunkt:
Aussen-T/F 976 16-03-2018 09:15:00 7.7 C 97 % 7.25 C
977 16-03-2018 09:20:00 7.7 C 97 % 7.25 C
978 16-03-2018 09:25:00 7.8 C 97 % 7.35 C
979 16-03-2018 09:30:00 7.8 C 97 % 7.35 C
980 16-03-2018 09:35:00 7.8 C 97 % 7.35 C
981 16-03-2018 09:40:00 7.8 C 97 % 7.35 C
982 16-03-2018 09:45:00 7.8 C 97 % 7.35 C
983 16-03-2018 09:50:00 7.9 C 97 % 7.45 C
984 16-03-2018 09:55:00 7.9 C 97 % 7.45 C
985 16-03-2018 10:00:00 7.9 C 97 % 7.45 C
986 16-03-2018 10:05:00 8 C 97 % 7.55 C
987 16-03-2018 10:10:00 8.1 C 97 % 7.65 C
988 16-03-2018 10:15:00 8.1 C 97 % 7.65 C
989 16-03-2018 10:20:00 8.1 C 97 % 7.65 C
990 16-03-2018 10:25:00 8.1 C 97 % 7.65 C
991 16-03-2018 10:30:00 8.2 C 97 % 7.75 C
992 16-03-2018 10:35:00 8.2 C 97 % 7.75 C
993 16-03-2018 10:40:00 8.3 C 97 % 7.85 C
994 16-03-2018 10:45:00 8.3 C 97 % 7.85 C
995 16-03-2018 10:50:00 8.3 C 97 % 7.85 C
996 16-03-2018 10:55:00 8.4 C 97 % 7.95 C
997 16-03-2018 11:00:00 8.6 C 97 % 8.15 C
998 16-03-2018 11:05:00 8.7 C 97 % 8.25 C
999 16-03-2018 11:10:00 8.8 C 97 % 8.35 C
1000 16-03-2018 11:15:00 8.9 C 97 % 8.45 C
Sensor: Nr:Datum:Temp:Feuchte:Taupunkt:
Aussen-T/F 1001 16-03-2018 11:20:00 9.1 C 97 % 8.65 C
1002 16-03-2018 11:25:00 9.2 C 96 % 8.6 C
1003 16-03-2018 11:30:00 9.3 C 96 % 8.7 C
1004 16-03-2018 11:35:00 9.3 C 96 % 8.7 C
1005 16-03-2018 11:40:00 9.4 C 95 % 8.64 C
1006 16-03-2018 11:45:00 9.6 C 95 % 8.84 C
1007 16-03-2018 11:50:00 9.7 C 95 % 8.94 C
1008 16-03-2018 11:55:00 9.7 C 93 % 8.62 C
1009 16-03-2018 12:00:00 9.8 C 93 % 8.72 C
1010 16-03-2018 12:05:00 9.9 C 92 % 8.66 C
1011 16-03-2018 12:10:00 9.9 C 92 % 8.66 C
1012 16-03-2018 12:15:00 10 C 91 % 8.6 C
1013 16-03-2018 12:20:00 10.2 C 92 % 8.96 C
1014 16-03-2018 12:25:00 10.3 C 90 % 8.73 C
1015 16-03-2018 12:30:00 10.3 C 90 % 8.73 C
1016 16-03-2018 12:35:00 10.4 C 90 % 8.83 C
1017 16-03-2018 12:40:00 10.5 C 89 % 8.77 C
1018 16-03-2018 12:45:00 10.4 C 88 % 8.5 C
1019 16-03-2018 12:50:00 10.4 C 88 % 8.5 C
1020 16-03-2018 12:55:00 10.3 C 88 % 8.4 C
1021 16-03-2018 13:00:00 10.3 C 88 % 8.4 C
1022 16-03-2018 13:05:00 10.3 C 88 % 8.4 C
1023 16-03-2018 13:10:00 10.3 C 88 % 8.4 C
1024 16-03-2018 13:15:00 10.3 C 88 % 8.4 C
1025 16-03-2018 13:20:00 10.3 C 87 % 8.23 C
Sensor: Nr:Datum:Temp:Feuchte:Taupunkt:
Aussen-T/F 1026 16-03-2018 13:25:00 10.3 C 88 % 8.4 C
1027 16-03-2018 13:30:00 10.3 C 88 % 8.4 C
1028 16-03-2018 13:35:00 10.3 C 88 % 8.4 C
1029 16-03-2018 13:40:00 10.3 C 88 % 8.4 C
1030 16-03-2018 13:45:00 10.4 C 89 % 8.67 C
1031 16-03-2018 13:50:00 10.4 C 89 % 8.67 C
1032 16-03-2018 13:55:00 10.4 C 89 % 8.67 C
1033 16-03-2018 14:00:00 10.4 C 90 % 8.83 C
1034 16-03-2018 14:05:00 10.5 C 90 % 8.93 C
1035 16-03-2018 14:10:00 10.4 C 89 % 8.67 C
1036 16-03-2018 14:15:00 10.4 C 89 % 8.67 C
1037 16-03-2018 14:20:00 10.3 C 89 % 8.57 C
1038 16-03-2018 14:25:00 10.1 C 89 % 8.37 C
1039 16-03-2018 14:30:00 9.7 C 90 % 8.14 C
1040 16-03-2018 14:35:00 9.4 C 90 % 7.85 C
1041 16-03-2018 14:40:00 9.3 C 91 % 7.91 C
1042 16-03-2018 14:45:00 9.2 C 92 % 7.97 C
1043 16-03-2018 14:50:00 9.1 C 92 % 7.87 C
1044 16-03-2018 14:55:00 9.2 C 93 % 8.13 C
1045 16-03-2018 15:00:00 9.3 C 94 % 8.39 C
1046 16-03-2018 15:05:00 9.5 C 94 % 8.58 C
1047 16-03-2018 15:10:00 9.6 C 95 % 8.84 C
1048 16-03-2018 15:15:00 9.7 C 95 % 8.94 C
1049 16-03-2018 15:20:00 9.8 C 95 % 9.04 C
1050 16-03-2018 15:25:00 9.8 C 95 % 9.04 C
Sensor: Nr:Datum:Temp:Feuchte:Taupunkt:
Aussen-T/F 1051 16-03-2018 15:30:00 9.8 C 95 % 9.04 C
1052 16-03-2018 15:35:00 9.8 C 95 % 9.04 C
1053 16-03-2018 15:40:00 9.8 C 95 % 9.04 C
1054 16-03-2018 15:45:00 9.9 C 95 % 9.14 C
1055 16-03-2018 15:50:00 10.1 C 95 % 9.34 C
1056 16-03-2018 15:55:00 10.1 C 95 % 9.34 C
1057 16-03-2018 16:00:00 10.1 C 95 % 9.34 C
1058 16-03-2018 16:05:00 9.9 C 94 % 8.98 C
1059 16-03-2018 16:10:00 9.8 C 94 % 8.88 C
1060 16-03-2018 16:15:00 9.8 C 94 % 8.88 C
1061 16-03-2018 16:20:00 9.7 C 95 % 8.94 C
1062 16-03-2018 16:25:00 9.6 C 95 % 8.84 C
1063 16-03-2018 16:30:00 9.6 C 94 % 8.68 C
1064 16-03-2018 16:35:00 9.3 C 94 % 8.39 C
1065 16-03-2018 16:40:00 9.3 C 94 % 8.39 C
1066 16-03-2018 16:45:00 9.2 C 94 % 8.29 C
1067 16-03-2018 16:50:00 9.1 C 94 % 8.19 C
1068 16-03-2018 16:55:00 9.1 C 95 % 8.34 C
1069 16-03-2018 17:00:00 9.1 C 95 % 8.34 C
1070 16-03-2018 17:05:00 9 C 95 % 8.24 C
1071 16-03-2018 17:10:00 9 C 95 % 8.24 C
1072 16-03-2018 17:15:00 9 C 95 % 8.24 C
1073 16-03-2018 17:20:00 9.1 C 95 % 8.34 C
1074 16-03-2018 17:25:00 9.1 C 95 % 8.34 C
1075 16-03-2018 17:30:00 9.1 C 95 % 8.34 C
Sensor: Nr:Datum:Temp:Feuchte:Taupunkt:
Aussen-T/F 1076 16-03-2018 17:35:00 9.1 C 96 % 8.5 C
1077 16-03-2018 17:40:00 9.1 C 96 % 8.5 C
1078 16-03-2018 17:45:00 9.1 C 95 % 8.34 C
1079 16-03-2018 17:50:00 9 C 95 % 8.24 C
1080 16-03-2018 17:55:00 8.9 C 95 % 8.14 C
1081 16-03-2018 18:00:00 8.9 C 95 % 8.14 C
1082 16-03-2018 18:05:00 8.8 C 96 % 8.2 C
1083 16-03-2018 18:10:00 8.8 C 96 % 8.2 C
1084 16-03-2018 18:15:00 8.8 C 95 % 8.04 C
1085 16-03-2018 18:20:00 8.7 C 95 % 7.94 C
1086 16-03-2018 18:25:00 8.7 C 95 % 7.94 C
1087 16-03-2018 18:30:00 8.7 C 96 % 8.1 C
1088 16-03-2018 18:35:00 8.6 C 96 % 8 C
1089 16-03-2018 18:40:00 8.6 C 96 % 8 C
1090 16-03-2018 18:45:00 8.6 C 96 % 8 C
1091 16-03-2018 18:50:00 8.5 C 96 % 7.9 C
1092 16-03-2018 18:55:00 8.5 C 96 % 7.9 C
1093 16-03-2018 19:00:00 8.4 C 96 % 7.8 C
1094 16-03-2018 19:05:00 8.4 C 96 % 7.8 C
1095 16-03-2018 19:10:00 8.4 C 96 % 7.8 C
1096 16-03-2018 19:15:00 8.3 C 96 % 7.7 C
1097 16-03-2018 19:20:00 8.3 C 96 % 7.7 C
1098 16-03-2018 19:25:00 8.3 C 96 % 7.7 C
1099 16-03-2018 19:30:00 8.3 C 96 % 7.7 C
1100 16-03-2018 19:35:00 8.2 C 96 % 7.6 C
Sensor: Nr:Datum:Temp:Feuchte:Taupunkt:
Aussen-T/F 1101 16-03-2018 19:40:00 8.2 C 96 % 7.6 C
1102 16-03-2018 19:45:00 8.1 C 96 % 7.5 C
1103 16-03-2018 19:50:00 8.1 C 96 % 7.5 C
1104 16-03-2018 19:55:00 8.1 C 96 % 7.5 C
1105 16-03-2018 20:00:00 8 C 96 % 7.4 C
1106 16-03-2018 20:05:00 8 C 96 % 7.4 C
1107 16-03-2018 20:10:00 7.9 C 96 % 7.3 C
1108 16-03-2018 20:15:00 7.9 C 96 % 7.3 C
1109 16-03-2018 20:20:00 7.9 C 96 % 7.3 C
1110 16-03-2018 20:25:00 7.9 C 96 % 7.3 C
1111 16-03-2018 20:30:00 7.9 C 96 % 7.3 C
1112 16-03-2018 20:35:00 7.9 C 96 % 7.3 C
1113 16-03-2018 20:40:00 7.9 C 96 % 7.3 C
1114 16-03-2018 20:45:00 7.8 C 96 % 7.2 C
1115 16-03-2018 20:50:00 7.3 C 95 % 6.55 C
1116 16-03-2018 20:55:00 7 C 95 % 6.26 C
1117 16-03-2018 21:00:00 6.7 C 95 % 5.96 C
1118 16-03-2018 21:05:00 6.4 C 95 % 5.66 C
1119 16-03-2018 21:10:00 6.2 C 94 % 5.31 C
1120 16-03-2018 21:15:00 6.1 C 94 % 5.21 C
1121 16-03-2018 21:20:00 5.8 C 94 % 4.91 C
1122 16-03-2018 21:25:00 5.7 C 94 % 4.81 C
1123 16-03-2018 21:30:00 5.5 C 93 % 4.46 C
1124 16-03-2018 21:35:00 5.3 C 93 % 4.26 C
1125 16-03-2018 21:40:00 5.3 C 93 % 4.26 C
Sensor: Nr:Datum:Temp:Feuchte:Taupunkt:
Aussen-T/F 1126 16-03-2018 21:45:00 5.2 C 93 % 4.16 C
1127 16-03-2018 21:50:00 5.1 C 93 % 4.06 C
1128 16-03-2018 21:55:00 4.9 C 93 % 3.87 C
1129 16-03-2018 22:00:00 4.8 C 93 % 3.77 C
1130 16-03-2018 22:05:00 4.7 C 93 % 3.67 C
1131 16-03-2018 22:10:00 4.5 C 93 % 3.47 C
1132 16-03-2018 22:15:00 4.3 C 92 % 3.12 C
1133 16-03-2018 22:20:00 4.2 C 92 % 3.02 C
1134 16-03-2018 22:25:00 4 C 93 % 2.97 C
1135 16-03-2018 22:30:00 3.9 C 93 % 2.87 C
1136 16-03-2018 22:35:00 3.9 C 93 % 2.87 C
1137 16-03-2018 22:40:00 3.8 C 93 % 2.77 C
1138 16-03-2018 22:45:00 3.7 C 93 % 2.68 C
1139 16-03-2018 22:50:00 3.7 C 93 % 2.68 C
1140 16-03-2018 22:55:00 3.6 C 93 % 2.58 C
1141 16-03-2018 23:00:00 3.6 C 92 % 2.42 C
1142 16-03-2018 23:05:00 3.5 C 92 % 2.33 C
1143 16-03-2018 23:10:00 3.4 C 92 % 2.23 C
1144 16-03-2018 23:15:00 3.4 C 92 % 2.23 C
1145 16-03-2018 23:20:00 3.4 C 93 % 2.38 C
1146 16-03-2018 23:25:00 3.3 C 92 % 2.13 C
1147 16-03-2018 23:30:00 3.2 C 92 % 2.03 C
1148 16-03-2018 23:35:00 3.2 C 92 % 2.03 C
1149 16-03-2018 23:40:00 3.2 C 92 % 2.03 C
1150 16-03-2018 23:45:00 3.1 C 92 % 1.93 C
Sensor: Nr:Datum:Temp:Feuchte:Taupunkt:
Aussen-T/F 1151 16-03-2018 23:50:00 3.1 C 92 % 1.93 C
1152 16-03-2018 23:55:00 3 C 92 % 1.83 C
1153 17-03-2018 00:00:00 3 C 92 % 1.83 C
1154 17-03-2018 00:05:00 3 C 92 % 1.83 C
1155 17-03-2018 00:10:00 2.9 C 91 % 1.58 C
1156 17-03-2018 00:15:00 2.8 C 90 % 1.33 C
1157 17-03-2018 00:20:00 2.8 C 90 % 1.33 C
1158 17-03-2018 00:25:00 2.8 C 90 % 1.33 C
1159 17-03-2018 00:30:00 2.7 C 90 % 1.23 C
1160 17-03-2018 00:35:00 2.7 C 90 % 1.23 C
1161 17-03-2018 00:40:00 2.7 C 89 % 1.07 C
1162 17-03-2018 00:45:00 2.6 C 90 % 1.13 C
1163 17-03-2018 00:50:00 2.6 C 89 % 0.97 C
1164 17-03-2018 00:55:00 2.5 C 89 % 0.88 C
1165 17-03-2018 01:00:00 2.4 C 89 % 0.78 C
1166 17-03-2018 01:05:00 2.4 C 90 % 0.93 C
1167 17-03-2018 01:10:00 2.3 C 89 % 0.68 C
1168 17-03-2018 01:15:00 2.3 C 89 % 0.68 C
1169 17-03-2018 01:20:00 2.3 C 89 % 0.68 C
1170 17-03-2018 01:25:00 2.2 C 89 % 0.58 C
1171 17-03-2018 01:30:00 2.2 C 89 % 0.58 C
1172 17-03-2018 01:35:00 2.2 C 89 % 0.58 C
1173 17-03-2018 01:40:00 2.1 C 89 % 0.48 C
1174 17-03-2018 01:45:00 2.1 C 89 % 0.48 C
1175 17-03-2018 01:50:00 2 C 89 % 0.38 C
Sensor: Nr:Datum:Temp:Feuchte:Taupunkt:
Aussen-T/F 1176 17-03-2018 01:55:00 1.9 C 89 % 0.28 C
1177 17-03-2018 02:00:00 1.9 C 89 % 0.28 C
1178 17-03-2018 02:05:00 1.9 C 88 % 0.13 C
1179 17-03-2018 02:10:00 1.9 C 89 % 0.28 C
1180 17-03-2018 02:15:00 1.9 C 89 % 0.28 C
1181 17-03-2018 02:20:00 1.8 C 88 % 0.03 C
1182 17-03-2018 02:25:00 1.7 C 88 % -0.07 C
1183 17-03-2018 02:30:00 1.7 C 87 % -0.23 C
1184 17-03-2018 02:35:00 1.7 C 87 % -0.23 C
1185 17-03-2018 02:40:00 1.6 C 86 % -0.48 C
1186 17-03-2018 02:45:00 1.6 C 87 % -0.32 C
1187 17-03-2018 02:50:00 1.6 C 86 % -0.48 C
1188 17-03-2018 02:55:00 1.6 C 87 % -0.32 C
1189 17-03-2018 03:00:00 1.5 C 86 % -0.58 C
1190 17-03-2018 03:05:00 1.4 C 86 % -0.68 C
1191 17-03-2018 03:10:00 1.4 C 87 % -0.52 C
1192 17-03-2018 03:15:00 1.4 C 86 % -0.68 C
1193 17-03-2018 03:20:00 1.4 C 87 % -0.52 C
1194 17-03-2018 03:25:00 1.3 C 86 % -0.78 C
1195 17-03-2018 03:30:00 1.3 C 86 % -0.78 C
1196 17-03-2018 03:35:00 1.2 C 86 % -0.88 C
1197 17-03-2018 03:40:00 1.3 C 86 % -0.78 C
1198 17-03-2018 03:45:00 1.2 C 86 % -0.88 C
1199 17-03-2018 03:50:00 1.2 C 86 % -0.88 C
1200 17-03-2018 03:55:00 1.2 C 86 % -0.88 C
Sensor: Nr:Datum:Temp:Feuchte:Taupunkt:
Aussen-T/F 1201 17-03-2018 04:00:00 1.2 C 86 % -0.88 C
1202 17-03-2018 04:05:00 1.1 C 86 % -0.97 C
1203 17-03-2018 04:10:00 1.1 C 86 % -0.97 C
1204 17-03-2018 04:15:00 1.1 C 86 % -0.97 C
1205 17-03-2018 04:20:00 1.1 C 86 % -0.97 C
1206 17-03-2018 04:25:00 1 C 86 % -1.07 C
1207 17-03-2018 04:30:00 1 C 86 % -1.07 C
1208 17-03-2018 04:35:00 1 C 87 % -0.91 C
1209 17-03-2018 04:40:00 1 C 86 % -1.07 C
1210 17-03-2018 04:45:00 1 C 86 % -1.07 C
1211 17-03-2018 04:50:00 0.9 C 86 % -1.17 C
1212 17-03-2018 04:55:00 0.9 C 86 % -1.17 C
1213 17-03-2018 05:00:00 0.9 C 86 % -1.17 C
1214 17-03-2018 05:05:00 0.9 C 86 % -1.17 C
1215 17-03-2018 05:10:00 0.9 C 87 % -1.01 C
1216 17-03-2018 05:15:00 0.9 C 87 % -1.01 C
1217 17-03-2018 05:20:00 0.9 C 87 % -1.01 C
1218 17-03-2018 05:25:00 0.8 C 88 % -0.96 C
1219 17-03-2018 05:30:00 0.7 C 88 % -1.05 C
1220 17-03-2018 05:35:00 0.6 C 89 % -1 C
1221 17-03-2018 05:40:00 0.6 C 89 % -1 C
1222 17-03-2018 05:45:00 0.5 C 89 % -1.1 C
1223 17-03-2018 05:50:00 0.5 C 89 % -1.1 C
1224 17-03-2018 05:55:00 0.4 C 89 % -1.2 C
1225 17-03-2018 06:00:00 0.4 C 89 % -1.2 C
Sensor: Nr:Datum:Temp:Feuchte:Taupunkt:
Aussen-T/F 1226 17-03-2018 06:05:00 0.4 C 89 % -1.2 C
1227 17-03-2018 06:10:00 0.3 C 89 % -1.29 C
1228 17-03-2018 06:15:00 0.3 C 89 % -1.29 C
1229 17-03-2018 06:20:00 0.3 C 89 % -1.29 C
1230 17-03-2018 06:25:00 0.3 C 89 % -1.29 C
1231 17-03-2018 06:30:00 0.3 C 89 % -1.29 C
1232 17-03-2018 06:35:00 0.3 C 89 % -1.29 C
1233 17-03-2018 06:40:00 0.3 C 89 % -1.29 C
1234 17-03-2018 06:45:00 0.3 C 89 % -1.29 C
1235 17-03-2018 06:50:00 0.2 C 89 % -1.39 C
1236 17-03-2018 06:55:00 0.1 C 89 % -1.49 C
1237 17-03-2018 07:00:00 0.1 C 89 % -1.49 C
1238 17-03-2018 07:05:00 0 C 90 % -1.44 C
1239 17-03-2018 07:10:00 0 C 90 % -1.44 C
1240 17-03-2018 07:15:00 -0.1 C 90 % -1.54 C
1241 17-03-2018 07:20:00 -0.1 C 90 % -1.54 C
1242 17-03-2018 07:25:00 -0.1 C 91 % -1.39 C
1243 17-03-2018 07:30:00 -0.1 C 91 % -1.39 C
1244 17-03-2018 07:35:00 -0.1 C 91 % -1.39 C
1245 17-03-2018 07:40:00 -0.2 C 91 % -1.49 C
1246 17-03-2018 07:45:00 -0.2 C 91 % -1.49 C
1247 17-03-2018 07:50:00 -0.2 C 91 % -1.49 C
1248 17-03-2018 07:55:00 -0.2 C 91 % -1.49 C
1249 17-03-2018 08:00:00 -0.2 C 90 % -1.64 C
1250 17-03-2018 08:05:00 -0.2 C 90 % -1.64 C
Sensor: Nr:Datum:Temp:Feuchte:Taupunkt:
Aussen-T/F 1251 17-03-2018 08:10:00 -0.2 C 90 % -1.64 C
1252 17-03-2018 08:15:00 -0.2 C 89 % -1.79 C
1253 17-03-2018 08:20:00 -0.2 C 89 % -1.79 C
1254 17-03-2018 08:25:00 -0.2 C 89 % -1.79 C
1255 17-03-2018 08:30:00 -0.2 C 88 % -1.94 C
1256 17-03-2018 08:35:00 -0.2 C 87 % -2.1 C
1257 17-03-2018 08:40:00 -0.2 C 87 % -2.1 C
1258 17-03-2018 08:45:00 -0.2 C 87 % -2.1 C
1259 17-03-2018 08:50:00 -0.2 C 86 % -2.25 C
1260 17-03-2018 08:55:00 -0.2 C 86 % -2.25 C
1261 17-03-2018 09:00:00 -0.2 C 86 % -2.25 C
1262 17-03-2018 09:05:00 -0.2 C 86 % -2.25 C
1263 17-03-2018 09:10:00 -0.3 C 86 % -2.35 C
1264 17-03-2018 09:15:00 -0.3 C 86 % -2.35 C
1265 17-03-2018 09:20:00 -0.3 C 87 % -2.2 C
1266 17-03-2018 09:25:00 -0.2 C 87 % -2.1 C
1267 17-03-2018 09:30:00 -0.3 C 86 % -2.35 C
1268 17-03-2018 09:35:00 -0.3 C 86 % -2.35 C
1269 17-03-2018 09:40:00 -0.3 C 87 % -2.2 C
1270 17-03-2018 09:45:00 -0.4 C 87 % -2.29 C
1271 17-03-2018 09:50:00 -0.4 C 88 % -2.14 C
1272 17-03-2018 09:55:00 -0.5 C 87 % -2.39 C
1273 17-03-2018 10:00:00 -0.6 C 88 % -2.34 C
1274 17-03-2018 10:05:00 -0.7 C 88 % -2.44 C
1275 17-03-2018 10:10:00 -0.8 C 89 % -2.38 C
Sensor: Nr:Datum:Temp:Feuchte:Taupunkt:
Aussen-T/F 1276 17-03-2018 10:15:00 -0.7 C 89 % -2.28 C
1277 17-03-2018 10:20:00 -0.7 C 90 % -2.13 C
1278 17-03-2018 10:25:00 -0.7 C 89 % -2.28 C
1279 17-03-2018 10:30:00 -0.7 C 88 % -2.44 C
1280 17-03-2018 10:35:00 -0.7 C 88 % -2.44 C
1281 17-03-2018 10:40:00 -0.6 C 87 % -2.49 C
1282 17-03-2018 10:45:00 -0.6 C 86 % -2.65 C
1283 17-03-2018 10:50:00 -0.6 C 86 % -2.65 C
1284 17-03-2018 10:55:00 -0.6 C 85 % -2.8 C
1285 17-03-2018 11:00:00 -0.7 C 85 % -2.9 C
1286 17-03-2018 11:05:00 -0.7 C 85 % -2.9 C
1287 17-03-2018 11:10:00 -0.7 C 85 % -2.9 C
1288 17-03-2018 11:15:00 -0.7 C 85 % -2.9 C
1289 17-03-2018 11:20:00 -0.8 C 84 % -3.16 C
1290 17-03-2018 11:25:00 -0.8 C 86 % -2.84 C
1291 17-03-2018 11:30:00 -1 C 85 % -3.2 C
1292 17-03-2018 11:35:00 -1.1 C 86 % -3.14 C
1293 17-03-2018 11:40:00 -1.1 C 85 % -3.29 C
1294 17-03-2018 11:45:00 -1.1 C 85 % -3.29 C
1295 17-03-2018 11:50:00 -1.1 C 84 % -3.45 C
1296 17-03-2018 11:55:00 -1.1 C 84 % -3.45 C
1297 17-03-2018 12:00:00 -1 C 83 % -3.51 C
1298 17-03-2018 12:05:00 -1 C 83 % -3.51 C
1299 17-03-2018 12:10:00 -0.9 C 83 % -3.42 C
1300 17-03-2018 12:15:00 -0.9 C 83 % -3.42 C
Sensor: Nr:Datum:Temp:Feuchte:Taupunkt:
Aussen-T/F 1301 17-03-2018 12:20:00 -1.1 C 82 % -3.77 C
1302 17-03-2018 12:25:00 -1.2 C 82 % -3.87 C
1303 17-03-2018 12:30:00 -1.2 C 82 % -3.87 C
1304 17-03-2018 12:35:00 -1.1 C 82 % -3.77 C
1305 17-03-2018 12:40:00 -1.1 C 81 % -3.94 C
1306 17-03-2018 12:45:00 -1.2 C 81 % -4.04 C
1307 17-03-2018 12:50:00 -1.2 C 81 % -4.04 C
1308 17-03-2018 12:55:00 -1.2 C 82 % -3.87 C
1309 17-03-2018 13:00:00 -1.2 C 81 % -4.04 C
1310 17-03-2018 13:05:00 -1.2 C 80 % -4.2 C
1311 17-03-2018 13:10:00 -1.2 C 82 % -3.87 C
1312 17-03-2018 13:15:00 -1.2 C 82 % -3.87 C
1313 17-03-2018 13:20:00 -1.2 C 81 % -4.04 C
1314 17-03-2018 13:25:00 -1.2 C 81 % -4.04 C
1315 17-03-2018 13:30:00 -1.3 C 80 % -4.3 C
1316 17-03-2018 13:35:00 -1.3 C 80 % -4.3 C
1317 17-03-2018 13:40:00 -1.4 C 80 % -4.4 C
1318 17-03-2018 13:45:00 -1.4 C 80 % -4.4 C
1319 17-03-2018 13:50:00 -1.4 C 79 % -4.56 C
1320 17-03-2018 13:55:00 -1.4 C 79 % -4.56 C
1321 17-03-2018 14:00:00 -1.5 C 79 % -4.66 C
1322 17-03-2018 14:05:00 -1.6 C 79 % -4.76 C
1323 17-03-2018 14:10:00 -1.5 C 79 % -4.66 C
1324 17-03-2018 14:15:00 -1.4 C 78 % -4.73 C
1325 17-03-2018 14:20:00 -1.5 C 78 % -4.83 C
Sensor: Nr:Datum:Temp:Feuchte:Taupunkt:
Aussen-T/F 1326 17-03-2018 14:25:00 -1.5 C 78 % -4.83 C
1327 17-03-2018 14:30:00 -1.4 C 78 % -4.73 C
1328 17-03-2018 14:35:00 -1.4 C 77 % -4.9 C
1329 17-03-2018 14:40:00 -1.3 C 78 % -4.63 C
1330 17-03-2018 14:45:00 -1.4 C 77 % -4.9 C
1331 17-03-2018 14:50:00 -1.4 C 77 % -4.9 C
1332 17-03-2018 14:55:00 -1.4 C 77 % -4.9 C
1333 17-03-2018 15:00:00 -1.4 C 77 % -4.9 C
1334 17-03-2018 15:05:00 -1.4 C 77 % -4.9 C
1335 17-03-2018 15:10:00 -1.4 C 77 % -4.9 C
1336 17-03-2018 15:15:00 -1.4 C 78 % -4.73 C
1337 17-03-2018 15:20:00 -1.5 C 77 % -5 C
1338 17-03-2018 15:25:00 -1.6 C 77 % -5.1 C
1339 17-03-2018 15:30:00 -1.6 C 77 % -5.1 C
1340 17-03-2018 15:35:00 -1.6 C 77 % -5.1 C
1341 17-03-2018 15:40:00 -1.6 C 77 % -5.1 C
1342 17-03-2018 15:45:00 -1.6 C 77 % -5.1 C
1343 17-03-2018 15:50:00 -1.6 C 77 % -5.1 C
1344 17-03-2018 15:55:00 -1.6 C 77 % -5.1 C
1345 17-03-2018 16:00:00 -1.6 C 77 % -5.1 C
1346 17-03-2018 16:05:00 -1.6 C 77 % -5.1 C
1347 17-03-2018 16:10:00 -1.6 C 77 % -5.1 C
1348 17-03-2018 16:15:00 -1.6 C 77 % -5.1 C
1349 17-03-2018 16:20:00 -1.7 C 77 % -5.19 C
1350 17-03-2018 16:25:00 -1.7 C 77 % -5.19 C
Sensor: Nr:Datum:Temp:Feuchte:Taupunkt:
Aussen-T/F 1351 17-03-2018 16:30:00 -1.7 C 77 % -5.19 C
1352 17-03-2018 16:35:00 -1.7 C 77 % -5.19 C
1353 17-03-2018 16:40:00 -1.7 C 77 % -5.19 C
1354 17-03-2018 16:45:00 -1.7 C 77 % -5.19 C
1355 17-03-2018 16:50:00 -1.7 C 78 % -5.02 C
1356 17-03-2018 16:55:00 -1.7 C 76 % -5.36 C
1357 17-03-2018 17:00:00 -1.7 C 77 % -5.19 C
1358 17-03-2018 17:05:00 -1.8 C 77 % -5.29 C
1359 17-03-2018 17:10:00 -1.8 C 77 % -5.29 C
1360 17-03-2018 17:15:00 -1.8 C 76 % -5.46 C
1361 17-03-2018 17:20:00 -1.8 C 76 % -5.46 C
1362 17-03-2018 17:25:00 -1.8 C 77 % -5.29 C
1363 17-03-2018 17:30:00 -1.8 C 77 % -5.29 C
1364 17-03-2018 17:35:00 -1.8 C 77 % -5.29 C
1365 17-03-2018 18:25:00 -1.8 C 77 % -5.29 C
1366 17-03-2018 18:30:00 -1.8 C 77 % -5.29 C
1367 17-03-2018 18:35:00 -1.8 C 77 % -5.29 C
1368 17-03-2018 18:40:00 -1.8 C 76 % -5.46 C
1369 17-03-2018 18:45:00 -1.8 C 77 % -5.29 C
1370 17-03-2018 18:50:00 -1.8 C 76 % -5.46 C
1371 17-03-2018 18:55:00 -1.8 C 77 % -5.29 C
1372 17-03-2018 19:00:00 -1.8 C 76 % -5.46 C
1373 17-03-2018 19:05:00 -1.8 C 77 % -5.29 C
1374 17-03-2018 19:10:00 -1.8 C 76 % -5.46 C
1375 17-03-2018 19:15:00 -1.8 C 77 % -5.29 C
Sensor: Nr:Datum:Temp:Feuchte:Taupunkt:
Aussen-T/F 1376 17-03-2018 19:20:00 -1.8 C 76 % -5.46 C
1377 17-03-2018 19:25:00 -1.8 C 77 % -5.29 C
1378 17-03-2018 19:30:00 -1.8 C 77 % -5.29 C
1379 17-03-2018 19:35:00 -1.8 C 77 % -5.29 C
1380 17-03-2018 19:40:00 -1.8 C 77 % -5.29 C
1381 17-03-2018 19:45:00 -1.8 C 77 % -5.29 C
1382 17-03-2018 19:50:00 -1.8 C 77 % -5.29 C
1383 17-03-2018 19:55:00 -1.8 C 76 % -5.46 C
1384 17-03-2018 20:00:00 -1.8 C 77 % -5.29 C
1385 17-03-2018 20:05:00 -1.8 C 77 % -5.29 C
1386 17-03-2018 20:10:00 -1.8 C 76 % -5.46 C
1387 17-03-2018 20:15:00 -1.8 C 77 % -5.29 C
1388 17-03-2018 20:20:00 -1.8 C 76 % -5.46 C
1389 17-03-2018 20:25:00 -1.8 C 77 % -5.29 C
1390 17-03-2018 20:30:00 -1.8 C 77 % -5.29 C
1391 17-03-2018 20:35:00 -1.8 C 77 % -5.29 C
1392 17-03-2018 20:40:00 -1.8 C 76 % -5.46 C
1393 17-03-2018 20:45:00 -1.8 C 77 % -5.29 C
1394 17-03-2018 20:50:00 -1.8 C 76 % -5.46 C
1395 17-03-2018 20:55:00 -1.8 C 77 % -5.29 C
1396 17-03-2018 21:00:00 -1.8 C 78 % -5.12 C
1397 17-03-2018 21:05:00 -1.8 C 78 % -5.12 C
1398 17-03-2018 21:10:00 -1.8 C 78 % -5.12 C
1399 17-03-2018 21:15:00 -1.8 C 78 % -5.12 C
1400 17-03-2018 21:20:00 -1.8 C 77 % -5.29 C
Sensor: Nr:Datum:Temp:Feuchte:Taupunkt:
Aussen-T/F 1401 17-03-2018 21:25:00 -1.8 C 77 % -5.29 C
1402 17-03-2018 21:30:00 -1.8 C 77 % -5.29 C
1403 17-03-2018 21:35:00 -1.8 C 77 % -5.29 C
1404 17-03-2018 21:40:00 -1.8 C 78 % -5.12 C
1405 17-03-2018 21:45:00 -1.8 C 77 % -5.29 C
1406 17-03-2018 21:50:00 -1.8 C 78 % -5.12 C
1407 17-03-2018 21:55:00 -1.8 C 78 % -5.12 C
1408 17-03-2018 22:00:00 -1.8 C 78 % -5.12 C
1409 17-03-2018 22:05:00 -1.8 C 78 % -5.12 C
1410 17-03-2018 22:10:00 -1.8 C 78 % -5.12 C
1411 17-03-2018 22:15:00 -1.8 C 77 % -5.29 C
1412 17-03-2018 22:20:00 -1.8 C 78 % -5.12 C
1413 17-03-2018 22:25:00 -1.8 C 78 % -5.12 C
1414 17-03-2018 22:30:00 -1.8 C 78 % -5.12 C
1415 17-03-2018 22:35:00 -1.8 C 78 % -5.12 C
1416 17-03-2018 22:40:00 -1.8 C 78 % -5.12 C
1417 17-03-2018 22:45:00 -1.8 C 78 % -5.12 C
1418 17-03-2018 22:50:00 -1.8 C 78 % -5.12 C
1419 17-03-2018 22:55:00 -1.8 C 78 % -5.12 C
1420 17-03-2018 23:00:00 -1.8 C 78 % -5.12 C
1421 17-03-2018 23:05:00 -1.8 C 77 % -5.29 C
1422 17-03-2018 23:10:00 -1.8 C 77 % -5.29 C
1423 17-03-2018 23:15:00 -1.8 C 78 % -5.12 C
1424 17-03-2018 23:20:00 -1.8 C 78 % -5.12 C
1425 17-03-2018 23:25:00 -1.8 C 78 % -5.12 C
Sensor: Nr:Datum:Temp:Feuchte:Taupunkt:
Aussen-T/F 1426 17-03-2018 23:30:00 -1.8 C 77 % -5.29 C
1427 17-03-2018 23:35:00 -1.8 C 78 % -5.12 C
1428 17-03-2018 23:40:00 -1.8 C 78 % -5.12 C
1429 17-03-2018 23:45:00 -1.7 C 79 % -4.85 C
1430 17-03-2018 23:50:00 -1.7 C 79 % -4.85 C
1431 17-03-2018 23:55:00 -1.7 C 79 % -4.85 C
1432 18-03-2018 00:00:00 -1.7 C 78 % -5.02 C
1433 18-03-2018 00:05:00 -1.7 C 79 % -4.85 C
1434 18-03-2018 00:10:00 -1.7 C 79 % -4.85 C
1435 18-03-2018 00:15:00 -1.7 C 79 % -4.85 C
1436 18-03-2018 00:20:00 -1.7 C 79 % -4.85 C
1437 18-03-2018 00:25:00 -1.7 C 79 % -4.85 C
1438 18-03-2018 00:30:00 -1.7 C 78 % -5.02 C
1439 18-03-2018 00:35:00 -1.7 C 79 % -4.85 C
1440 18-03-2018 00:40:00 -1.7 C 79 % -4.85 C
1441 18-03-2018 00:45:00 -1.7 C 79 % -4.85 C
1442 18-03-2018 00:50:00 -1.7 C 79 % -4.85 C
1443 18-03-2018 00:55:00 -1.7 C 79 % -4.85 C
1444 18-03-2018 01:00:00 -1.7 C 79 % -4.85 C
1445 18-03-2018 01:05:00 -1.7 C 79 % -4.85 C
1446 18-03-2018 01:10:00 -1.7 C 78 % -5.02 C
1447 18-03-2018 01:15:00 -1.7 C 79 % -4.85 C
1448 18-03-2018 01:20:00 -1.7 C 78 % -5.02 C
1449 18-03-2018 01:25:00 -1.7 C 79 % -4.85 C
1450 18-03-2018 01:30:00 -1.7 C 79 % -4.85 C
Sensor: Nr:Datum:Temp:Feuchte:Taupunkt:
Aussen-T/F 1451 18-03-2018 01:35:00 -1.7 C 78 % -5.02 C
1452 18-03-2018 01:40:00 -1.7 C 78 % -5.02 C
1453 18-03-2018 01:45:00 -1.7 C 79 % -4.85 C
1454 18-03-2018 01:50:00 -1.7 C 79 % -4.85 C
1455 18-03-2018 01:55:00 -1.7 C 78 % -5.02 C
1456 18-03-2018 02:00:00 -1.7 C 79 % -4.85 C
1457 18-03-2018 02:05:00 -1.7 C 78 % -5.02 C
1458 18-03-2018 02:10:00 -1.7 C 78 % -5.02 C
1459 18-03-2018 02:15:00 -1.7 C 79 % -4.85 C
1460 18-03-2018 02:20:00 -1.7 C 79 % -4.85 C
1461 18-03-2018 02:25:00 -1.7 C 79 % -4.85 C
1462 18-03-2018 02:30:00 -1.8 C 80 % -4.79 C
1463 18-03-2018 02:35:00 -1.8 C 80 % -4.79 C
1464 18-03-2018 02:40:00 -1.8 C 81 % -4.62 C
1465 18-03-2018 02:45:00 -1.8 C 81 % -4.62 C
1466 18-03-2018 02:50:00 -1.8 C 81 % -4.62 C
1467 18-03-2018 02:55:00 -1.9 C 82 % -4.56 C
1468 18-03-2018 03:00:00 -1.9 C 82 % -4.56 C
1469 18-03-2018 03:05:00 -2 C 83 % -4.49 C
1470 18-03-2018 03:10:00 -2.1 C 83 % -4.59 C
1471 18-03-2018 03:15:00 -2.1 C 83 % -4.59 C
1472 18-03-2018 03:20:00 -2.2 C 84 % -4.53 C
1473 18-03-2018 03:25:00 -2.2 C 84 % -4.53 C
1474 18-03-2018 03:30:00 -2.2 C 84 % -4.53 C
1475 18-03-2018 03:35:00 -2.2 C 84 % -4.53 C
Sensor: Nr:Datum:Temp:Feuchte:Taupunkt:
Aussen-T/F 1476 18-03-2018 03:40:00 -2.2 C 84 % -4.53 C
1477 18-03-2018 03:45:00 -2.2 C 85 % -4.37 C
1478 18-03-2018 03:50:00 -2.3 C 85 % -4.47 C
1479 18-03-2018 03:55:00 -2.3 C 85 % -4.47 C
1480 18-03-2018 04:00:00 -2.3 C 85 % -4.47 C
1481 18-03-2018 04:05:00 -2.3 C 85 % -4.47 C
1482 18-03-2018 04:10:00 -2.4 C 86 % -4.42 C
1483 18-03-2018 04:15:00 -2.4 C 86 % -4.42 C
1484 18-03-2018 04:20:00 -2.4 C 87 % -4.26 C
1485 18-03-2018 04:25:00 -2.5 C 87 % -4.36 C
1486 18-03-2018 04:30:00 -2.6 C 87 % -4.46 C
1487 18-03-2018 04:35:00 -2.6 C 87 % -4.46 C
1488 18-03-2018 04:40:00 -2.6 C 86 % -4.61 C
1489 18-03-2018 04:45:00 -2.6 C 86 % -4.61 C
1490 18-03-2018 04:50:00 -2.6 C 86 % -4.61 C
1491 18-03-2018 04:55:00 -2.6 C 86 % -4.61 C
1492 18-03-2018 05:00:00 -2.7 C 86 % -4.71 C
1493 18-03-2018 05:05:00 -2.7 C 86 % -4.71 C
1494 18-03-2018 05:10:00 -2.7 C 85 % -4.87 C
1495 18-03-2018 05:15:00 -2.6 C 85 % -4.77 C
1496 18-03-2018 05:20:00 -2.6 C 85 % -4.77 C
1497 18-03-2018 05:25:00 -2.6 C 85 % -4.77 C
1498 18-03-2018 05:30:00 -2.6 C 85 % -4.77 C
1499 18-03-2018 05:35:00 -2.6 C 85 % -4.77 C
1500 18-03-2018 05:40:00 -2.6 C 85 % -4.77 C
Sensor: Nr:Datum:Temp:Feuchte:Taupunkt:
Aussen-T/F 1501 18-03-2018 05:45:00 -2.6 C 86 % -4.61 C
1502 18-03-2018 05:50:00 -2.7 C 86 % -4.71 C
1503 18-03-2018 05:55:00 -2.8 C 87 % -4.66 C
1504 18-03-2018 06:00:00 -2.8 C 88 % -4.51 C
1505 18-03-2018 06:05:00 -2.9 C 88 % -4.6 C
1506 18-03-2018 06:10:00 -2.9 C 89 % -4.45 C
1507 18-03-2018 06:15:00 -2.9 C 88 % -4.6 C
1508 18-03-2018 06:20:00 -3 C 88 % -4.7 C
1509 18-03-2018 06:25:00 -3 C 87 % -4.85 C
1510 18-03-2018 06:30:00 -3 C 87 % -4.85 C
1511 18-03-2018 06:35:00 -3 C 87 % -4.85 C
1512 18-03-2018 06:40:00 -3.1 C 87 % -4.95 C
1513 18-03-2018 06:45:00 -3.1 C 87 % -4.95 C
1514 18-03-2018 06:50:00 -3.2 C 86 % -5.2 C
1515 18-03-2018 06:55:00 -3.2 C 87 % -5.05 C
1516 18-03-2018 07:00:00 -3.2 C 87 % -5.05 C
1517 18-03-2018 07:05:00 -3.2 C 87 % -5.05 C
1518 18-03-2018 07:10:00 -3.2 C 88 % -4.9 C
1519 18-03-2018 07:15:00 -3.3 C 87 % -5.15 C
1520 18-03-2018 07:20:00 -3.3 C 87 % -5.15 C
1521 18-03-2018 07:25:00 -3.3 C 87 % -5.15 C
1522 18-03-2018 07:30:00 -3.3 C 86 % -5.3 C
1523 18-03-2018 07:35:00 -3.2 C 85 % -5.36 C
1524 18-03-2018 07:40:00 -3.2 C 85 % -5.36 C
1525 18-03-2018 07:45:00 -3.2 C 85 % -5.36 C
Sensor: Nr:Datum:Temp:Feuchte:Taupunkt:
Aussen-T/F 1526 18-03-2018 07:50:00 -3.2 C 85 % -5.36 C
1527 18-03-2018 07:55:00 -3.1 C 85 % -5.26 C
1528 18-03-2018 08:00:00 -3.1 C 85 % -5.26 C
1529 18-03-2018 08:05:00 -3.1 C 84 % -5.41 C
1530 18-03-2018 08:10:00 -3.1 C 84 % -5.41 C
1531 18-03-2018 08:15:00 -3.1 C 84 % -5.41 C
1532 18-03-2018 08:20:00 -3.1 C 84 % -5.41 C
1533 18-03-2018 08:25:00 -3.1 C 85 % -5.26 C
1534 18-03-2018 08:30:00 -3.1 C 85 % -5.26 C
1535 18-03-2018 08:35:00 -3.1 C 85 % -5.26 C
1536 18-03-2018 08:40:00 -3.2 C 85 % -5.36 C
1537 18-03-2018 08:45:00 -3.2 C 85 % -5.36 C
1538 18-03-2018 08:50:00 -3.2 C 85 % -5.36 C
1539 18-03-2018 08:55:00 -3.2 C 84 % -5.51 C
1540 18-03-2018 09:00:00 -3.2 C 84 % -5.51 C
1541 18-03-2018 09:05:00 -3.2 C 84 % -5.51 C
1542 18-03-2018 09:10:00 -3.1 C 85 % -5.26 C
1543 18-03-2018 09:15:00 -3.1 C 84 % -5.41 C
1544 18-03-2018 09:20:00 -3 C 84 % -5.32 C
1545 18-03-2018 09:25:00 -3 C 84 % -5.32 C
1546 18-03-2018 09:30:00 -3 C 83 % -5.47 C
1547 18-03-2018 09:35:00 -2.9 C 83 % -5.38 C
1548 18-03-2018 09:40:00 -2.8 C 83 % -5.28 C
1549 18-03-2018 09:45:00 -2.8 C 82 % -5.44 C
1550 18-03-2018 09:50:00 -2.7 C 81 % -5.5 C
Sensor: Nr:Datum:Temp:Feuchte:Taupunkt:
Aussen-T/F 1551 18-03-2018 09:55:00 -2.7 C 82 % -5.34 C
1552 18-03-2018 10:00:00 -2.7 C 81 % -5.5 C
1553 18-03-2018 10:05:00 -2.7 C 81 % -5.5 C
1554 18-03-2018 10:10:00 -2.7 C 81 % -5.5 C
1555 18-03-2018 10:15:00 -2.8 C 80 % -5.76 C
1556 18-03-2018 10:20:00 -2.8 C 81 % -5.6 C
1557 18-03-2018 10:25:00 -2.8 C 81 % -5.6 C
1558 18-03-2018 10:30:00 -2.8 C 81 % -5.6 C
1559 18-03-2018 10:35:00 -2.8 C 81 % -5.6 C
1560 18-03-2018 10:40:00 -2.8 C 81 % -5.6 C
1561 18-03-2018 10:45:00 -2.7 C 80 % -5.66 C
1562 18-03-2018 10:50:00 -2.7 C 80 % -5.66 C
1563 18-03-2018 10:55:00 -2.6 C 80 % -5.57 C
1564 18-03-2018 11:00:00 -2.6 C 80 % -5.57 C
1565 18-03-2018 11:05:00 -2.5 C 80 % -5.47 C
1566 18-03-2018 11:10:00 -2.5 C 80 % -5.47 C
1567 18-03-2018 11:15:00 -2.5 C 80 % -5.47 C
1568 18-03-2018 11:20:00 -2.4 C 80 % -5.37 C
1569 18-03-2018 11:25:00 -2.4 C 81 % -5.21 C
1570 18-03-2018 11:30:00 -2.3 C 80 % -5.27 C
1571 18-03-2018 11:35:00 -2.3 C 80 % -5.27 C
1572 18-03-2018 11:40:00 -2.3 C 80 % -5.27 C
1573 18-03-2018 11:45:00 -2.3 C 80 % -5.27 C
1574 18-03-2018 11:50:00 -2.4 C 80 % -5.37 C
1575 18-03-2018 11:55:00 -2.4 C 79 % -5.54 C
Sensor: Nr:Datum:Temp:Feuchte:Taupunkt:
Aussen-T/F 1576 18-03-2018 12:00:00 -2.3 C 79 % -5.44 C
1577 18-03-2018 12:05:00 -2.3 C 79 % -5.44 C
1578 18-03-2018 12:10:00 -2.3 C 78 % -5.61 C
1579 18-03-2018 12:15:00 -2.2 C 78 % -5.51 C
1580 18-03-2018 12:20:00 -2.1 C 78 % -5.41 C
1581 18-03-2018 12:25:00 -1.9 C 77 % -5.39 C
1582 18-03-2018 12:30:00 -1.8 C 76 % -5.46 C
1583 18-03-2018 12:35:00 -1.8 C 76 % -5.46 C
1584 18-03-2018 12:40:00 -1.7 C 74 % -5.71 C
1585 18-03-2018 12:45:00 -1.7 C 75 % -5.54 C
1586 18-03-2018 12:50:00 -1.6 C 74 % -5.62 C
1587 18-03-2018 12:55:00 -1.6 C 73 % -5.8 C
1588 18-03-2018 13:00:00 -1.4 C 74 % -5.42 C
1589 18-03-2018 13:05:00 -1.2 C 73 % -5.41 C
1590 18-03-2018 13:10:00 -1.1 C 72 % -5.5 C
1591 18-03-2018 13:15:00 -0.9 C 71 % -5.49 C
1592 18-03-2018 13:20:00 -0.7 C 71 % -5.29 C
1593 18-03-2018 13:25:00 -0.5 C 70 % -5.29 C
1594 18-03-2018 13:30:00 -0.3 C 69 % -5.29 C
1595 18-03-2018 13:35:00 -0.2 C 67 % -5.58 C
1596 18-03-2018 13:40:00 -0.2 C 67 % -5.58 C
1597 18-03-2018 13:45:00 -0.1 C 67 % -5.48 C
1598 18-03-2018 13:50:00 -0.2 C 67 % -5.58 C
1599 18-03-2018 13:55:00 -0.2 C 67 % -5.58 C
1600 18-03-2018 14:00:00 -0.2 C 67 % -5.58 C
Sensor: Nr:Datum:Temp:Feuchte:Taupunkt:
Aussen-T/F 1601 18-03-2018 14:05:00 -0.2 C 67 % -5.58 C
1602 18-03-2018 14:10:00 -0.2 C 67 % -5.58 C
1603 18-03-2018 14:15:00 -0.2 C 67 % -5.58 C
1604 18-03-2018 14:20:00 -0.1 C 67 % -5.48 C
1605 18-03-2018 14:25:00 -0.1 C 66 % -5.68 C
1606 18-03-2018 14:30:00 -0.1 C 67 % -5.48 C
1607 18-03-2018 14:35:00 -0.3 C 66 % -5.87 C
1608 18-03-2018 14:40:00 -0.3 C 66 % -5.87 C
1609 18-03-2018 14:45:00 -0.3 C 66 % -5.87 C
1610 18-03-2018 14:50:00 -0.2 C 67 % -5.58 C
1611 18-03-2018 14:55:00 -0.1 C 67 % -5.48 C
1612 18-03-2018 15:00:00 0 C 65 % -5.78 C
1613 18-03-2018 15:05:00 0 C 66 % -5.58 C
1614 18-03-2018 15:10:00 -0.1 C 65 % -5.88 C
1615 18-03-2018 15:15:00 -0.2 C 65 % -5.97 C
1616 18-03-2018 15:20:00 -0.2 C 66 % -5.77 C
1617 18-03-2018 15:25:00 -0.2 C 66 % -5.77 C
1618 18-03-2018 15:30:00 -0.2 C 67 % -5.58 C
1619 18-03-2018 15:35:00 -0.1 C 66 % -5.68 C
1620 18-03-2018 15:40:00 0.1 C 66 % -5.48 C
1621 18-03-2018 15:45:00 0.2 C 65 % -5.58 C
1622 18-03-2018 15:50:00 0.2 C 65 % -5.58 C
1623 18-03-2018 15:55:00 0.2 C 66 % -5.38 C
1624 18-03-2018 16:00:00 0.3 C 65 % -5.49 C
1625 18-03-2018 16:05:00 0.3 C 65 % -5.49 C
Sensor: Nr:Datum:Temp:Feuchte:Taupunkt:
Aussen-T/F 1626 18-03-2018 16:10:00 0.2 C 64 % -5.79 C
1627 18-03-2018 16:15:00 0.1 C 65 % -5.68 C
1628 18-03-2018 16:20:00 0.1 C 65 % -5.68 C
1629 18-03-2018 16:25:00 0.1 C 65 % -5.68 C
1630 18-03-2018 16:30:00 0 C 65 % -5.78 C
1631 18-03-2018 16:35:00 -0.1 C 65 % -5.88 C
1632 18-03-2018 16:40:00 -0.1 C 66 % -5.68 C
1633 18-03-2018 16:45:00 -0.1 C 66 % -5.68 C
1634 18-03-2018 16:50:00 0 C 66 % -5.58 C
1635 18-03-2018 16:55:00 -0.1 C 66 % -5.68 C
1636 18-03-2018 17:00:00 0 C 66 % -5.58 C
1637 18-03-2018 17:05:00 0 C 66 % -5.58 C
1638 18-03-2018 17:10:00 0.1 C 66 % -5.48 C
1639 18-03-2018 17:15:00 0.1 C 66 % -5.48 C
1640 18-03-2018 17:20:00 0 C 66 % -5.58 C
1641 18-03-2018 17:25:00 -0.1 C 65 % -5.88 C
1642 18-03-2018 17:30:00 -0.1 C 66 % -5.68 C
1643 18-03-2018 17:35:00 -0.1 C 65 % -5.88 C
1644 18-03-2018 17:40:00 -0.2 C 65 % -5.97 C
1645 18-03-2018 17:45:00 -0.2 C 66 % -5.77 C
1646 18-03-2018 17:50:00 -0.2 C 66 % -5.77 C
1647 18-03-2018 17:55:00 -0.3 C 65 % -6.07 C
1648 18-03-2018 18:00:00 -0.3 C 66 % -5.87 C
1649 18-03-2018 18:05:00 -0.3 C 67 % -5.67 C
1650 18-03-2018 18:10:00 -0.3 C 65 % -6.07 C
Sensor: Nr:Datum:Temp:Feuchte:Taupunkt:
Aussen-T/F 1651 18-03-2018 18:15:00 -0.3 C 66 % -5.87 C
1652 18-03-2018 18:20:00 -0.3 C 67 % -5.67 C
1653 18-03-2018 18:25:00 -0.4 C 67 % -5.77 C
1654 18-03-2018 18:30:00 -0.4 C 66 % -5.96 C
1655 18-03-2018 18:35:00 -0.4 C 66 % -5.96 C
1656 18-03-2018 18:40:00 -0.4 C 68 % -5.57 C
1657 18-03-2018 18:45:00 -0.5 C 66 % -6.06 C
1658 18-03-2018 18:50:00 -0.6 C 66 % -6.16 C
1659 18-03-2018 18:55:00 -0.6 C 66 % -6.16 C
1660 18-03-2018 19:00:00 -0.6 C 68 % -5.76 C
1661 18-03-2018 19:05:00 -0.6 C 67 % -5.96 C
1662 18-03-2018 19:10:00 -0.6 C 67 % -5.96 C
1663 18-03-2018 19:15:00 -0.7 C 68 % -5.86 C
1664 18-03-2018 19:20:00 -0.7 C 67 % -6.05 C
1665 18-03-2018 19:25:00 -0.7 C 66 % -6.25 C
1666 18-03-2018 19:30:00 -0.7 C 66 % -6.25 C
1667 18-03-2018 19:35:00 -0.7 C 67 % -6.05 C
1668 18-03-2018 19:40:00 -0.7 C 67 % -6.05 C
1669 18-03-2018 19:45:00 -0.8 C 66 % -6.35 C
1670 18-03-2018 19:50:00 -0.8 C 66 % -6.35 C
1671 18-03-2018 19:55:00 -0.8 C 66 % -6.35 C
1672 18-03-2018 20:00:00 -0.8 C 66 % -6.35 C
1673 18-03-2018 20:05:00 -0.8 C 67 % -6.15 C
1674 18-03-2018 20:10:00 -0.9 C 65 % -6.64 C
1675 18-03-2018 20:15:00 -0.9 C 65 % -6.64 C
Sensor: Nr:Datum:Temp:Feuchte:Taupunkt:
Aussen-T/F 1676 18-03-2018 20:20:00 -0.9 C 65 % -6.64 C
1677 18-03-2018 20:25:00 -0.9 C 66 % -6.44 C
1678 18-03-2018 20:30:00 -1 C 65 % -6.74 C
1679 18-03-2018 20:35:00 -1 C 65 % -6.74 C
1680 18-03-2018 20:40:00 -1.1 C 67 % -6.44 C
1681 18-03-2018 20:45:00 -1.1 C 66 % -6.63 C
1682 18-03-2018 20:50:00 -1.2 C 67 % -6.53 C
1683 18-03-2018 20:55:00 -1.2 C 67 % -6.53 C
1684 18-03-2018 21:00:00 -1.2 C 67 % -6.53 C
1685 18-03-2018 21:05:00 -1.3 C 67 % -6.63 C
1686 18-03-2018 21:10:00 -1.3 C 67 % -6.63 C
1687 18-03-2018 21:15:00 -1.3 C 68 % -6.43 C
1688 18-03-2018 21:20:00 -1.3 C 68 % -6.43 C
1689 18-03-2018 21:25:00 -1.4 C 69 % -6.34 C
1690 18-03-2018 21:30:00 -1.4 C 68 % -6.53 C
1691 18-03-2018 21:35:00 -1.4 C 69 % -6.34 C
1692 18-03-2018 21:40:00 -1.4 C 69 % -6.34 C
1693 18-03-2018 21:45:00 -1.4 C 69 % -6.34 C
1694 18-03-2018 21:50:00 -1.5 C 70 % -6.25 C
1695 18-03-2018 21:55:00 -1.5 C 69 % -6.44 C
1696 18-03-2018 22:00:00 -1.6 C 69 % -6.53 C
1697 18-03-2018 22:05:00 -1.6 C 71 % -6.16 C
1698 18-03-2018 22:10:00 -1.6 C 70 % -6.34 C
1699 18-03-2018 22:15:00 -1.6 C 70 % -6.34 C
1700 18-03-2018 22:20:00 -1.6 C 70 % -6.34 C
Sensor: Nr:Datum:Temp:Feuchte:Taupunkt:
Aussen-T/F 1701 18-03-2018 22:25:00 -1.6 C 70 % -6.34 C
1702 18-03-2018 22:30:00 -1.7 C 70 % -6.44 C
1703 18-03-2018 22:35:00 -1.7 C 70 % -6.44 C
1704 18-03-2018 22:40:00 -1.7 C 69 % -6.63 C
1705 18-03-2018 22:45:00 -1.6 C 69 % -6.53 C
1706 18-03-2018 22:50:00 -1.7 C 69 % -6.63 C
1707 18-03-2018 22:55:00 -1.7 C 70 % -6.44 C
1708 18-03-2018 23:00:00 -1.7 C 69 % -6.63 C
1709 18-03-2018 23:05:00 -1.6 C 68 % -6.72 C
1710 18-03-2018 23:10:00 -1.6 C 68 % -6.72 C
1711 18-03-2018 23:15:00 -1.6 C 68 % -6.72 C
1712 18-03-2018 23:20:00 -1.6 C 66 % -7.11 C
1713 18-03-2018 23:25:00 -1.6 C 67 % -6.91 C
1714 18-03-2018 23:30:00 -1.6 C 67 % -6.91 C
1715 18-03-2018 23:35:00 -1.6 C 66 % -7.11 C
1716 18-03-2018 23:40:00 -1.5 C 67 % -6.82 C
1717 18-03-2018 23:45:00 -1.5 C 65 % -7.21 C
1718 18-03-2018 23:50:00 -1.5 C 66 % -7.01 C
1719 18-03-2018 23:55:00 -1.5 C 65 % -7.21 C
1720 19-03-2018 00:00:00 -1.5 C 65 % -7.21 C
1721 19-03-2018 00:05:00 -1.5 C 65 % -7.21 C
1722 19-03-2018 00:10:00 -1.5 C 65 % -7.21 C
1723 19-03-2018 00:15:00 -1.5 C 65 % -7.21 C
1724 19-03-2018 00:20:00 -1.5 C 65 % -7.21 C
1725 19-03-2018 00:25:00 -1.4 C 66 % -6.92 C
Sensor: Nr:Datum:Temp:Feuchte:Taupunkt:
Aussen-T/F 1726 19-03-2018 00:30:00 -1.5 C 65 % -7.21 C
1727 19-03-2018 00:35:00 -1.5 C 64 % -7.41 C
1728 19-03-2018 00:40:00 -1.5 C 65 % -7.21 C
1729 19-03-2018 00:45:00 -1.5 C 65 % -7.21 C
1730 19-03-2018 00:50:00 -1.5 C 64 % -7.41 C
1731 19-03-2018 00:55:00 -1.5 C 65 % -7.21 C
1732 19-03-2018 01:00:00 -1.5 C 66 % -7.01 C
1733 19-03-2018 01:05:00 -1.5 C 66 % -7.01 C
1734 19-03-2018 01:10:00 -1.5 C 66 % -7.01 C
1735 19-03-2018 01:15:00 -1.6 C 65 % -7.31 C
1736 19-03-2018 01:20:00 -1.6 C 65 % -7.31 C
1737 19-03-2018 01:25:00 -1.6 C 66 % -7.11 C
1738 19-03-2018 01:30:00 -1.6 C 65 % -7.31 C
1739 19-03-2018 01:35:00 -1.6 C 67 % -6.91 C
1740 19-03-2018 01:40:00 -1.6 C 66 % -7.11 C
1741 19-03-2018 01:45:00 -1.6 C 66 % -7.11 C
1742 19-03-2018 01:50:00 -1.6 C 65 % -7.31 C
1743 19-03-2018 01:55:00 -1.6 C 65 % -7.31 C
1744 19-03-2018 02:00:00 -1.6 C 65 % -7.31 C
1745 19-03-2018 02:05:00 -1.7 C 65 % -7.4 C
1746 19-03-2018 02:10:00 -1.7 C 65 % -7.4 C
1747 19-03-2018 02:15:00 -1.7 C 65 % -7.4 C
1748 19-03-2018 02:20:00 -1.7 C 65 % -7.4 C
1749 19-03-2018 02:25:00 -1.7 C 66 % -7.2 C
1750 19-03-2018 02:30:00 -1.7 C 65 % -7.4 C
Sensor: Nr:Datum:Temp:Feuchte:Taupunkt:
Aussen-T/F 1751 19-03-2018 02:35:00 -1.7 C 66 % -7.2 C
1752 19-03-2018 02:40:00 -1.7 C 66 % -7.2 C
1753 19-03-2018 02:45:00 -1.7 C 66 % -7.2 C
1754 19-03-2018 02:50:00 -1.7 C 66 % -7.2 C
1755 19-03-2018 02:55:00 -1.8 C 65 % -7.5 C
1756 19-03-2018 03:00:00 -1.8 C 66 % -7.3 C
1757 19-03-2018 03:05:00 -1.8 C 65 % -7.5 C
1758 19-03-2018 03:10:00 -1.8 C 65 % -7.5 C
1759 19-03-2018 03:15:00 -1.8 C 66 % -7.3 C
1760 19-03-2018 03:20:00 -1.8 C 66 % -7.3 C
1761 19-03-2018 03:25:00 -1.8 C 66 % -7.3 C
1762 19-03-2018 03:30:00 -1.8 C 66 % -7.3 C
1763 19-03-2018 03:35:00 -1.8 C 66 % -7.3 C
1764 19-03-2018 03:40:00 -1.8 C 66 % -7.3 C
1765 19-03-2018 03:45:00 -1.9 C 67 % -7.2 C
1766 19-03-2018 03:50:00 -1.9 C 67 % -7.2 C
1767 19-03-2018 03:55:00 -1.9 C 67 % -7.2 C
1768 19-03-2018 04:00:00 -1.9 C 67 % -7.2 C
1769 19-03-2018 04:05:00 -1.9 C 67 % -7.2 C
1770 19-03-2018 04:10:00 -1.9 C 67 % -7.2 C
1771 19-03-2018 04:15:00 -1.9 C 68 % -7.01 C
1772 19-03-2018 04:20:00 -2 C 67 % -7.3 C
1773 19-03-2018 04:25:00 -2 C 69 % -6.92 C
1774 19-03-2018 04:30:00 -2 C 69 % -6.92 C
1775 19-03-2018 04:35:00 -2 C 69 % -6.92 C
Sensor: Nr:Datum:Temp:Feuchte:Taupunkt:
Aussen-T/F 1776 19-03-2018 04:40:00 -2 C 69 % -6.92 C
1777 19-03-2018 04:45:00 -2 C 70 % -6.73 C
1778 19-03-2018 04:50:00 -2.1 C 69 % -7.01 C
1779 19-03-2018 04:55:00 -2.1 C 69 % -7.01 C
1780 19-03-2018 05:00:00 -2.1 C 69 % -7.01 C
1781 19-03-2018 05:05:00 -2.1 C 70 % -6.83 C
1782 19-03-2018 05:10:00 -2.1 C 70 % -6.83 C
1783 19-03-2018 05:15:00 -2.2 C 70 % -6.92 C
1784 19-03-2018 05:20:00 -2.2 C 70 % -6.92 C
1785 19-03-2018 05:25:00 -2.2 C 70 % -6.92 C
1786 19-03-2018 05:30:00 -2.2 C 70 % -6.92 C
1787 19-03-2018 05:35:00 -2.2 C 70 % -6.92 C
1788 19-03-2018 05:40:00 -2.2 C 69 % -7.11 C
1789 19-03-2018 05:45:00 -2.2 C 69 % -7.11 C
1790 19-03-2018 05:50:00 -2.2 C 70 % -6.92 C
1791 19-03-2018 05:55:00 -2.2 C 70 % -6.92 C
1792 19-03-2018 06:00:00 -2.3 C 69 % -7.2 C
1793 19-03-2018 06:05:00 -2.3 C 70 % -7.02 C
1794 19-03-2018 06:10:00 -2.3 C 69 % -7.2 C
1795 19-03-2018 06:15:00 -2.3 C 70 % -7.02 C
1796 19-03-2018 06:20:00 -2.3 C 70 % -7.02 C
1797 19-03-2018 06:25:00 -2.4 C 69 % -7.3 C
1798 19-03-2018 06:30:00 -2.4 C 69 % -7.3 C
1799 19-03-2018 06:35:00 -2.5 C 69 % -7.4 C
1800 19-03-2018 06:40:00 -2.5 C 71 % -7.03 C
Sensor: Nr:Datum:Temp:Feuchte:Taupunkt:
Aussen-T/F 1801 19-03-2018 06:45:00 -2.5 C 70 % -7.21 C
1802 19-03-2018 06:50:00 -2.5 C 70 % -7.21 C
1803 19-03-2018 06:55:00 -2.5 C 70 % -7.21 C
1804 19-03-2018 07:00:00 -2.5 C 69 % -7.4 C
1805 19-03-2018 07:05:00 -2.5 C 70 % -7.21 C
1806 19-03-2018 07:10:00 -2.6 C 69 % -7.49 C
1807 19-03-2018 07:15:00 -2.6 C 70 % -7.31 C
1808 19-03-2018 07:20:00 -2.6 C 69 % -7.49 C
1809 19-03-2018 07:25:00 -2.6 C 69 % -7.49 C
1810 19-03-2018 07:30:00 -2.6 C 69 % -7.49 C
1811 19-03-2018 07:35:00 -2.6 C 69 % -7.49 C
1812 19-03-2018 07:40:00 -2.5 C 69 % -7.4 C
1813 19-03-2018 07:45:00 -2.5 C 69 % -7.4 C
1814 19-03-2018 07:50:00 -2.5 C 69 % -7.4 C
1815 19-03-2018 07:55:00 -2.5 C 69 % -7.4 C
1816 19-03-2018 08:00:00 -2.5 C 69 % -7.4 C
1817 19-03-2018 08:05:00 -2.5 C 69 % -7.4 C
1818 19-03-2018 08:10:00 -2.4 C 69 % -7.3 C
1819 19-03-2018 08:15:00 -2.4 C 69 % -7.3 C
1820 19-03-2018 08:20:00 -2.4 C 69 % -7.3 C
1821 19-03-2018 08:25:00 -2.4 C 69 % -7.3 C
1822 19-03-2018 08:30:00 -2.4 C 69 % -7.3 C
1823 19-03-2018 08:35:00 -2.3 C 69 % -7.2 C
1824 19-03-2018 08:40:00 -2.3 C 69 % -7.2 C
1825 19-03-2018 08:45:00 -2.3 C 69 % -7.2 C
Sensor: Nr:Datum:Temp:Feuchte:Taupunkt:
Aussen-T/F 1826 19-03-2018 08:50:00 -2.3 C 68 % -7.39 C
1827 19-03-2018 08:55:00 -2.3 C 68 % -7.39 C
1828 19-03-2018 09:00:00 -2.3 C 69 % -7.2 C
1829 19-03-2018 09:05:00 -2.2 C 68 % -7.3 C
1830 19-03-2018 09:10:00 -2.2 C 69 % -7.11 C
1831 19-03-2018 09:15:00 -2.2 C 68 % -7.3 C
1832 19-03-2018 09:20:00 -2.1 C 68 % -7.2 C
1833 19-03-2018 09:25:00 -2.1 C 68 % -7.2 C
1834 19-03-2018 09:30:00 -2 C 68 % -7.11 C
1835 19-03-2018 09:35:00 -1.9 C 68 % -7.01 C
1836 19-03-2018 09:40:00 -1.8 C 68 % -6.91 C
1837 19-03-2018 09:45:00 -1.8 C 68 % -6.91 C
1838 19-03-2018 09:50:00 -1.8 C 67 % -7.11 C
1839 19-03-2018 09:55:00 -1.7 C 68 % -6.82 C
1840 19-03-2018 10:00:00 -1.6 C 68 % -6.72 C
1841 19-03-2018 10:05:00 -1.5 C 67 % -6.82 C
1842 19-03-2018 10:10:00 -1.5 C 67 % -6.82 C
1843 19-03-2018 10:15:00 -1.5 C 68 % -6.63 C
1844 19-03-2018 10:20:00 -1.4 C 67 % -6.72 C
1845 19-03-2018 10:25:00 -1.4 C 66 % -6.92 C
1846 19-03-2018 10:30:00 -1.3 C 68 % -6.43 C
1847 19-03-2018 10:35:00 -1.3 C 66 % -6.82 C
1848 19-03-2018 10:40:00 -1.2 C 66 % -6.73 C
1849 19-03-2018 10:45:00 -1.1 C 66 % -6.63 C
1850 19-03-2018 10:50:00 -0.9 C 65 % -6.64 C
Sensor: Nr:Datum:Temp:Feuchte:Taupunkt:
Aussen-T/F 1851 19-03-2018 10:55:00 -0.7 C 66 % -6.25 C
1852 19-03-2018 11:00:00 -0.6 C 66 % -6.16 C
1853 19-03-2018 11:05:00 -0.7 C 64 % -6.65 C
1854 19-03-2018 11:10:00 -0.7 C 64 % -6.65 C
1855 19-03-2018 11:15:00 -0.8 C 64 % -6.75 C
1856 19-03-2018 11:20:00 -0.7 C 65 % -6.45 C
1857 19-03-2018 11:25:00 -0.5 C 65 % -6.26 C
1858 19-03-2018 11:30:00 -0.3 C 64 % -6.27 C
1859 19-03-2018 11:35:00 -0.2 C 64 % -6.18 C
1860 19-03-2018 11:40:00 -0.2 C 63 % -6.38 C
1861 19-03-2018 11:45:00 -0.2 C 63 % -6.38 C
1862 19-03-2018 11:50:00 -0.3 C 63 % -6.48 C
1863 19-03-2018 11:55:00 -0.3 C 63 % -6.48 C
1864 19-03-2018 12:00:00 -0.2 C 63 % -6.38 C
1865 19-03-2018 12:05:00 -0.1 C 63 % -6.29 C
1866 19-03-2018 12:10:00 -0.1 C 63 % -6.29 C
1867 19-03-2018 12:15:00 0 C 62 % -6.39 C
1868 19-03-2018 12:20:00 0.1 C 61 % -6.51 C
1869 19-03-2018 12:25:00 0.2 C 63 % -5.99 C
1870 19-03-2018 12:30:00 0.4 C 61 % -6.23 C
1871 19-03-2018 12:35:00 0.4 C 61 % -6.23 C
1872 19-03-2018 12:40:00 0.6 C 62 % -5.82 C
1873 19-03-2018 12:45:00 0.6 C 61 % -6.04 C
1874 19-03-2018 12:50:00 0.9 C 61 % -5.75 C
1875 19-03-2018 12:55:00 1.1 C 59 % -6 C
Sensor: Nr:Datum:Temp:Feuchte:Taupunkt:
Aussen-T/F 1876 19-03-2018 13:00:00 1.2 C 60 % -5.69 C
1877 19-03-2018 13:05:00 1.2 C 59 % -5.91 C
1878 19-03-2018 13:10:00 1.2 C 60 % -5.69 C
1879 19-03-2018 13:15:00 1.2 C 59 % -5.91 C
1880 19-03-2018 13:20:00 1.1 C 59 % -6 C
1881 19-03-2018 13:25:00 1 C 60 % -5.87 C
1882 19-03-2018 13:30:00 1 C 59 % -6.09 C
1883 19-03-2018 13:35:00 0.9 C 59 % -6.19 C
1884 19-03-2018 13:40:00 1 C 59 % -6.09 C
1885 19-03-2018 13:45:00 1.1 C 60 % -5.78 C
1886 19-03-2018 13:50:00 1.2 C 60 % -5.69 C
1887 19-03-2018 13:55:00 1.3 C 59 % -5.81 C
1888 19-03-2018 14:00:00 1.5 C 60 % -5.4 C
1889 19-03-2018 14:05:00 1.7 C 58 % -5.66 C
1890 19-03-2018 14:10:00 1.9 C 58 % -5.47 C
1891 19-03-2018 14:15:00 2.1 C 56 % -5.74 C
1892 19-03-2018 14:20:00 2.1 C 56 % -5.74 C
1893 19-03-2018 14:25:00 2.1 C 56 % -5.74 C
1894 19-03-2018 14:30:00 2.1 C 56 % -5.74 C
1895 19-03-2018 14:35:00 2.2 C 56 % -5.65 C
1896 19-03-2018 14:40:00 2.2 C 57 % -5.42 C
1897 19-03-2018 14:45:00 2.3 C 56 % -5.56 C
1898 19-03-2018 14:50:00 2.3 C 56 % -5.56 C
1899 19-03-2018 14:55:00 2.4 C 57 % -5.23 C
1900 19-03-2018 15:00:00 2.5 C 55 % -5.61 C
Sensor: Nr:Datum:Temp:Feuchte:Taupunkt:
Aussen-T/F 1901 19-03-2018 15:05:00 2.4 C 57 % -5.23 C
1902 19-03-2018 15:10:00 2.6 C 57 % -5.04 C
1903 19-03-2018 15:15:00 2.7 C 56 % -5.18 C
1904 19-03-2018 15:20:00 2.8 C 55 % -5.33 C
1905 19-03-2018 15:25:00 2.9 C 54 % -5.47 C
1906 19-03-2018 15:30:00 2.8 C 54 % -5.57 C
1907 19-03-2018 15:35:00 2.8 C 54 % -5.57 C
1908 19-03-2018 15:40:00 2.9 C 53 % -5.72 C
1909 19-03-2018 15:45:00 2.9 C 52 % -5.97 C
1910 19-03-2018 15:50:00 3.1 C 52 % -5.78 C
1911 19-03-2018 15:55:00 3.2 C 52 % -5.69 C
1912 19-03-2018 16:00:00 3.1 C 50 % -6.29 C
1913 19-03-2018 16:05:00 3.1 C 50 % -6.29 C
1914 19-03-2018 16:10:00 3.1 C 52 % -5.78 C
1915 19-03-2018 16:15:00 3.1 C 51 % -6.03 C
1916 19-03-2018 16:20:00 3.1 C 50 % -6.29 C
1917 19-03-2018 16:25:00 3 C 50 % -6.39 C
1918 19-03-2018 16:30:00 3.1 C 50 % -6.29 C
1919 19-03-2018 16:35:00 3.2 C 49 % -6.46 C
1920 19-03-2018 16:40:00 3.3 C 51 % -5.85 C
1921 19-03-2018 16:45:00 3.3 C 51 % -5.85 C
1922 19-03-2018 16:50:00 3.3 C 50 % -6.11 C
1923 19-03-2018 16:55:00 3.4 C 49 % -6.28 C
1924 19-03-2018 17:00:00 3.7 C 49 % -6 C
1925 19-03-2018 17:05:00 3.9 C 49 % -5.82 C
Sensor: Nr:Datum:Temp:Feuchte:Taupunkt:
Aussen-T/F 1926 19-03-2018 17:10:00 3.9 C 48 % -6.09 C
1927 19-03-2018 17:15:00 4.1 C 48 % -5.9 C
1928 19-03-2018 17:20:00 4.1 C 47 % -6.18 C
1929 19-03-2018 17:25:00 4.1 C 47 % -6.18 C
1930 19-03-2018 17:30:00 3.9 C 48 % -6.09 C
1931 19-03-2018 17:35:00 3.8 C 49 % -5.91 C
1932 19-03-2018 17:40:00 3.8 C 52 % -5.13 C
1933 19-03-2018 17:45:00 3.6 C 50 % -5.83 C
1934 19-03-2018 17:50:00 3.4 C 51 % -5.76 C
1935 19-03-2018 17:55:00 3.4 C 53 % -5.25 C
1936 19-03-2018 18:00:00 3.5 C 50 % -5.92 C
1937 19-03-2018 18:05:00 3.7 C 52 % -5.22 C
1938 19-03-2018 18:10:00 3.7 C 56 % -4.25 C
1939 19-03-2018 18:15:00 3.4 C 51 % -5.76 C
1940 19-03-2018 18:20:00 3.1 C 59 % -4.12 C
1941 19-03-2018 18:25:00 2.6 C 62 % -3.93 C
1942 19-03-2018 18:30:00 2 C 65 % -3.87 C
1943 19-03-2018 18:35:00 1.4 C 65 % -4.44 C
1944 19-03-2018 18:40:00 1 C 66 % -4.62 C
1945 19-03-2018 18:45:00 0.6 C 67 % -4.81 C
1946 19-03-2018 18:50:00 0.3 C 67 % -5.09 C
1947 19-03-2018 18:55:00 0.1 C 68 % -5.09 C
1948 19-03-2018 19:00:00 -0.2 C 68 % -5.38 C
1949 19-03-2018 19:05:00 -0.3 C 69 % -5.29 C
1950 19-03-2018 19:10:00 -0.4 C 70 % -5.19 C
Sensor: Nr:Datum:Temp:Feuchte:Taupunkt:
Aussen-T/F 1951 19-03-2018 19:15:00 -0.4 C 71 % -5.01 C
1952 19-03-2018 19:20:00 -0.5 C 71 % -5.1 C
1953 19-03-2018 19:25:00 -0.6 C 71 % -5.2 C
1954 19-03-2018 19:30:00 -0.6 C 72 % -5.01 C
1955 19-03-2018 19:35:00 -0.7 C 73 % -4.93 C
1956 19-03-2018 19:40:00 -0.7 C 74 % -4.75 C
1957 19-03-2018 19:45:00 -0.7 C 74 % -4.75 C
1958 19-03-2018 19:50:00 -0.8 C 76 % -4.49 C
1959 19-03-2018 19:55:00 -0.8 C 75 % -4.67 C
1960 19-03-2018 20:00:00 -0.9 C 75 % -4.76 C
1961 19-03-2018 20:05:00 -0.9 C 76 % -4.59 C
1962 19-03-2018 20:10:00 -0.9 C 76 % -4.59 C
1963 19-03-2018 20:15:00 -0.9 C 77 % -4.42 C
1964 19-03-2018 20:20:00 -1 C 78 % -4.34 C
1965 19-03-2018 20:25:00 -1.1 C 78 % -4.44 C
1966 19-03-2018 20:30:00 -1.1 C 79 % -4.27 C
1967 19-03-2018 20:35:00 -1.2 C 78 % -4.54 C
1968 19-03-2018 20:40:00 -1.2 C 78 % -4.54 C
1969 19-03-2018 20:45:00 -1.2 C 76 % -4.88 C
1970 19-03-2018 20:50:00 -1.2 C 76 % -4.88 C
1971 19-03-2018 20:55:00 -1.2 C 76 % -4.88 C
1972 19-03-2018 21:00:00 -1.3 C 77 % -4.8 C
1973 19-03-2018 21:05:00 -1.3 C 77 % -4.8 C
1974 19-03-2018 21:10:00 -1.3 C 77 % -4.8 C
1975 19-03-2018 21:15:00 -1.3 C 78 % -4.63 C
Sensor: Nr:Datum:Temp:Feuchte:Taupunkt:
Aussen-T/F 1976 19-03-2018 21:20:00 -1.4 C 75 % -5.25 C
1977 19-03-2018 21:25:00 -1.3 C 76 % -4.98 C
1978 19-03-2018 21:30:00 -1.3 C 76 % -4.98 C
1979 19-03-2018 21:35:00 -1.2 C 74 % -5.23 C
1980 19-03-2018 21:40:00 -1.2 C 73 % -5.41 C
1981 19-03-2018 21:45:00 -1.2 C 74 % -5.23 C
1982 19-03-2018 21:50:00 -1.2 C 73 % -5.41 C
1983 19-03-2018 21:55:00 -1.2 C 73 % -5.41 C
1984 19-03-2018 22:00:00 -1.3 C 75 % -5.15 C
1985 19-03-2018 22:05:00 -1.3 C 76 % -4.98 C
1986 19-03-2018 22:10:00 -1.4 C 77 % -4.9 C
1987 19-03-2018 22:15:00 -1.6 C 77 % -5.1 C
1988 19-03-2018 22:20:00 -1.7 C 78 % -5.02 C
1989 19-03-2018 22:25:00 -1.7 C 78 % -5.02 C
1990 19-03-2018 22:30:00 -1.8 C 79 % -4.95 C
1991 19-03-2018 22:35:00 -1.8 C 80 % -4.79 C
1992 19-03-2018 22:40:00 -1.8 C 79 % -4.95 C
1993 19-03-2018 22:45:00 -1.9 C 79 % -5.05 C
1994 19-03-2018 22:50:00 -2 C 78 % -5.31 C
1995 19-03-2018 22:55:00 -2 C 77 % -5.48 C
1996 19-03-2018 23:00:00 -1.9 C 77 % -5.39 C
1997 19-03-2018 23:05:00 -1.9 C 77 % -5.39 C
1998 19-03-2018 23:10:00 -1.9 C 78 % -5.22 C
1999 19-03-2018 23:15:00 -2 C 78 % -5.31 C
2000 19-03-2018 23:20:00 -2.1 C 78 % -5.41 C
Sensor: Nr:Datum:Temp:Feuchte:Taupunkt:
Aussen-T/F 2001 19-03-2018 23:25:00 -2.2 C 78 % -5.51 C
2002 19-03-2018 23:30:00 -2.2 C 77 % -5.68 C
2003 19-03-2018 23:35:00 -2.2 C 77 % -5.68 C
2004 19-03-2018 23:40:00 -2.2 C 77 % -5.68 C
2005 19-03-2018 23:45:00 -2.1 C 79 % -5.24 C
2006 19-03-2018 23:50:00 -2.1 C 79 % -5.24 C
2007 19-03-2018 23:55:00 -2.2 C 79 % -5.34 C
2008 20-03-2018 00:00:00 -2.2 C 79 % -5.34 C
2009 20-03-2018 00:05:00 -2.3 C 80 % -5.27 C
2010 20-03-2018 00:10:00 -2.3 C 79 % -5.44 C
2011 20-03-2018 00:15:00 -2.4 C 80 % -5.37 C
2012 20-03-2018 00:20:00 -2.6 C 80 % -5.57 C
2013 20-03-2018 00:25:00 -2.6 C 80 % -5.57 C
2014 20-03-2018 00:30:00 -2.6 C 80 % -5.57 C
2015 20-03-2018 00:35:00 -2.7 C 79 % -5.83 C
2016 20-03-2018 00:40:00 -2.6 C 79 % -5.73 C
2017 20-03-2018 00:45:00 -2.6 C 79 % -5.73 C
2018 20-03-2018 00:50:00 -2.6 C 79 % -5.73 C
2019 20-03-2018 00:55:00 -2.7 C 79 % -5.83 C
2020 20-03-2018 01:00:00 -2.7 C 78 % -5.99 C
2021 20-03-2018 01:05:00 -2.8 C 79 % -5.93 C
2022 20-03-2018 01:10:00 -2.8 C 79 % -5.93 C
2023 20-03-2018 01:15:00 -2.9 C 79 % -6.02 C
2024 20-03-2018 01:20:00 -2.9 C 79 % -6.02 C
2025 20-03-2018 01:25:00 -3.1 C 79 % -6.22 C
Sensor: Nr:Datum:Temp:Feuchte:Taupunkt:
Aussen-T/F 2026 20-03-2018 01:30:00 -3.1 C 79 % -6.22 C
2027 20-03-2018 01:35:00 -3.2 C 79 % -6.32 C
2028 20-03-2018 01:40:00 -3.2 C 79 % -6.32 C
2029 20-03-2018 01:45:00 -3.2 C 79 % -6.32 C
2030 20-03-2018 01:50:00 -3.3 C 79 % -6.41 C
2031 20-03-2018 01:55:00 -3.3 C 80 % -6.25 C
2032 20-03-2018 02:00:00 -3.3 C 80 % -6.25 C
2033 20-03-2018 02:05:00 -3.3 C 80 % -6.25 C
2034 20-03-2018 02:10:00 -3.4 C 80 % -6.35 C
2035 20-03-2018 02:15:00 -3.4 C 81 % -6.18 C
2036 20-03-2018 02:20:00 -3.5 C 81 % -6.28 C
2037 20-03-2018 02:25:00 -3.6 C 82 % -6.22 C
2038 20-03-2018 02:30:00 -3.6 C 82 % -6.22 C
2039 20-03-2018 02:35:00 -3.7 C 82 % -6.32 C
2040 20-03-2018 02:40:00 -3.7 C 83 % -6.16 C
2041 20-03-2018 02:45:00 -3.8 C 83 % -6.26 C
2042 20-03-2018 02:50:00 -3.9 C 83 % -6.35 C
2043 20-03-2018 02:55:00 -4 C 84 % -6.3 C
2044 20-03-2018 03:00:00 -4.1 C 84 % -6.39 C
2045 20-03-2018 03:05:00 -4.2 C 84 % -6.49 C
2046 20-03-2018 03:10:00 -4.3 C 84 % -6.59 C
2047 20-03-2018 03:15:00 -4.3 C 84 % -6.59 C
2048 20-03-2018 03:20:00 -4.2 C 84 % -6.49 C
2049 20-03-2018 03:25:00 -4.2 C 83 % -6.65 C
2050 20-03-2018 03:30:00 -4.2 C 83 % -6.65 C
Sensor: Nr:Datum:Temp:Feuchte:Taupunkt:
Aussen-T/F 2051 20-03-2018 03:35:00 -4.2 C 82 % -6.81 C
2052 20-03-2018 03:40:00 -4.2 C 82 % -6.81 C
2053 20-03-2018 03:45:00 -4.2 C 81 % -6.97 C
2054 20-03-2018 03:50:00 -4.2 C 80 % -7.13 C
2055 20-03-2018 03:55:00 -4.2 C 79 % -7.29 C
2056 20-03-2018 04:00:00 -4.2 C 79 % -7.29 C
2057 20-03-2018 04:05:00 -4.2 C 79 % -7.29 C
2058 20-03-2018 04:10:00 -4.2 C 80 % -7.13 C
2059 20-03-2018 04:15:00 -4.3 C 80 % -7.22 C
2060 20-03-2018 04:20:00 -4.3 C 81 % -7.06 C
2061 20-03-2018 04:25:00 -4.3 C 80 % -7.22 C
2062 20-03-2018 04:30:00 -4.3 C 80 % -7.22 C
2063 20-03-2018 04:35:00 -4.3 C 80 % -7.22 C
2064 20-03-2018 04:40:00 -4.3 C 81 % -7.06 C
2065 20-03-2018 04:45:00 -4.3 C 82 % -6.9 C
2066 20-03-2018 04:50:00 -4.3 C 82 % -6.9 C
2067 20-03-2018 04:55:00 -4.4 C 82 % -7 C
2068 20-03-2018 05:00:00 -4.5 C 83 % -6.94 C
2069 20-03-2018 05:05:00 -4.6 C 83 % -7.04 C
2070 20-03-2018 05:10:00 -4.7 C 84 % -6.98 C
2071 20-03-2018 05:15:00 -4.8 C 84 % -7.08 C
2072 20-03-2018 05:20:00 -4.9 C 84 % -7.18 C
2073 20-03-2018 05:25:00 -5 C 84 % -7.28 C
2074 20-03-2018 05:30:00 -5.1 C 85 % -7.22 C
2075 20-03-2018 05:35:00 -5.3 C 85 % -7.42 C
Sensor: Nr:Datum:Temp:Feuchte:Taupunkt:
Aussen-T/F 2076 20-03-2018 05:40:00 -5.3 C 86 % -7.27 C
2077 20-03-2018 05:45:00 -5.4 C 86 % -7.37 C
2078 20-03-2018 05:50:00 -5.4 C 87 % -7.22 C
2079 20-03-2018 05:55:00 -5.4 C 87 % -7.22 C
2080 20-03-2018 06:00:00 -5.3 C 87 % -7.12 C
2081 20-03-2018 06:05:00 -5.2 C 88 % -6.87 C
2082 20-03-2018 06:10:00 -5.1 C 88 % -6.77 C
2083 20-03-2018 06:15:00 -4.9 C 88 % -6.58 C
2084 20-03-2018 06:20:00 -4.7 C 88 % -6.38 C
2085 20-03-2018 06:25:00 -4.5 C 88 % -6.18 C
2086 20-03-2018 06:30:00 -4.3 C 88 % -5.98 C
2087 20-03-2018 06:35:00 -4.2 C 87 % -6.03 C
2088 20-03-2018 06:40:00 -4.1 C 87 % -5.94 C
2089 20-03-2018 06:45:00 -3.9 C 87 % -5.74 C
2090 20-03-2018 06:50:00 -3.8 C 86 % -5.79 C
2091 20-03-2018 06:55:00 -3.6 C 86 % -5.6 C
2092 20-03-2018 07:00:00 -3.5 C 85 % -5.65 C
2093 20-03-2018 07:05:00 -3.4 C 85 % -5.55 C
2094 20-03-2018 07:10:00 -3.4 C 85 % -5.55 C
2095 20-03-2018 07:15:00 -3.3 C 84 % -5.61 C
2096 20-03-2018 07:20:00 -3.2 C 84 % -5.51 C
2097 20-03-2018 07:25:00 -3.2 C 84 % -5.51 C
2098 20-03-2018 07:30:00 -3.1 C 84 % -5.41 C
2099 20-03-2018 07:35:00 -3.1 C 84 % -5.41 C
2100 20-03-2018 07:40:00 -3 C 84 % -5.32 C
Sensor: Nr:Datum:Temp:Feuchte:Taupunkt:
Aussen-T/F 2101 20-03-2018 07:45:00 -2.9 C 84 % -5.22 C
2102 20-03-2018 07:50:00 -2.8 C 84 % -5.12 C
2103 20-03-2018 07:55:00 -2.7 C 84 % -5.02 C
2104 20-03-2018 08:00:00 -2.6 C 84 % -4.92 C
2105 20-03-2018 08:05:00 -2.5 C 83 % -4.98 C
2106 20-03-2018 08:10:00 -2.4 C 82 % -5.05 C
2107 20-03-2018 08:15:00 -2.3 C 82 % -4.95 C
2108 20-03-2018 08:20:00 -2.3 C 82 % -4.95 C
2109 20-03-2018 08:25:00 -2.2 C 82 % -4.85 C
2110 20-03-2018 08:30:00 -2.2 C 83 % -4.69 C
2111 20-03-2018 08:35:00 -2.2 C 83 % -4.69 C
2112 20-03-2018 08:40:00 -2.2 C 83 % -4.69 C
2113 20-03-2018 08:45:00 -2.1 C 83 % -4.59 C
2114 20-03-2018 08:50:00 -2.1 C 83 % -4.59 C
2115 20-03-2018 08:55:00 -2 C 84 % -4.34 C
2116 20-03-2018 09:00:00 -2 C 84 % -4.34 C
2117 20-03-2018 09:05:00 -1.9 C 83 % -4.4 C
2118 20-03-2018 09:10:00 -1.9 C 83 % -4.4 C
2119 20-03-2018 09:15:00 -1.8 C 83 % -4.3 C
2120 20-03-2018 09:20:00 -1.8 C 84 % -4.14 C
2121 20-03-2018 09:25:00 -1.8 C 84 % -4.14 C
2122 20-03-2018 09:30:00 -1.8 C 84 % -4.14 C
2123 20-03-2018 09:35:00 -1.7 C 84 % -4.04 C
2124 20-03-2018 09:40:00 -1.7 C 85 % -3.88 C
2125 20-03-2018 09:45:00 -1.7 C 85 % -3.88 C
Sensor: Nr:Datum:Temp:Feuchte:Taupunkt:
Aussen-T/F 2126 20-03-2018 09:50:00 -1.7 C 85 % -3.88 C
2127 20-03-2018 09:55:00 -1.7 C 85 % -3.88 C
2128 20-03-2018 10:00:00 -1.7 C 85 % -3.88 C
2129 20-03-2018 10:05:00 -1.5 C 86 % -3.53 C
2130 20-03-2018 10:10:00 -1.3 C 85 % -3.49 C
2131 20-03-2018 10:15:00 -1.3 C 84 % -3.65 C
2132 20-03-2018 10:20:00 -1.2 C 84 % -3.55 C
2133 20-03-2018 10:25:00 -1.1 C 84 % -3.45 C
2134 20-03-2018 10:30:00 -1 C 84 % -3.35 C
2135 20-03-2018 10:35:00 -0.9 C 84 % -3.26 C
2136 20-03-2018 10:40:00 -0.9 C 84 % -3.26 C
2137 20-03-2018 10:45:00 -0.8 C 84 % -3.16 C
2138 20-03-2018 10:50:00 -0.8 C 84 % -3.16 C
2139 20-03-2018 10:55:00 -0.7 C 86 % -2.74 C
2140 20-03-2018 11:00:00 -0.6 C 87 % -2.49 C
2141 20-03-2018 11:05:00 -0.4 C 88 % -2.14 C
2142 20-03-2018 11:10:00 -0.2 C 88 % -1.94 C
2143 20-03-2018 11:15:00 -0.1 C 88 % -1.84 C
2144 20-03-2018 11:20:00 -0.1 C 89 % -1.69 C
2145 20-03-2018 11:25:00 0.1 C 89 % -1.49 C
2146 20-03-2018 11:30:00 0.2 C 89 % -1.39 C
2147 20-03-2018 11:35:00 0.3 C 89 % -1.29 C
2148 20-03-2018 11:40:00 0.4 C 89 % -1.2 C
2149 20-03-2018 11:45:00 0.6 C 89 % -1 C
2150 20-03-2018 11:50:00 0.6 C 89 % -1 C
Sensor: Nr:Datum:Temp:Feuchte:Taupunkt:
Aussen-T/F 2151 20-03-2018 11:55:00 0.7 C 89 % -0.9 C
2152 20-03-2018 12:00:00 0.7 C 89 % -0.9 C
2153 20-03-2018 12:05:00 0.8 C 89 % -0.8 C
2154 20-03-2018 12:10:00 0.8 C 89 % -0.8 C
2155 20-03-2018 12:15:00 0.8 C 89 % -0.8 C
2156 20-03-2018 12:20:00 0.9 C 89 % -0.7 C
2157 20-03-2018 12:25:00 0.9 C 89 % -0.7 C
2158 20-03-2018 12:30:00 0.9 C 89 % -0.7 C
2159 20-03-2018 12:35:00 0.9 C 89 % -0.7 C
2160 20-03-2018 12:40:00 1 C 89 % -0.6 C
2161 20-03-2018 12:45:00 1.1 C 89 % -0.51 C
2162 20-03-2018 12:50:00 1.1 C 89 % -0.51 C
2163 20-03-2018 12:55:00 1.2 C 89 % -0.41 C
2164 20-03-2018 13:00:00 1.3 C 89 % -0.31 C
2165 20-03-2018 13:05:00 1.4 C 89 % -0.21 C
2166 20-03-2018 13:10:00 1.6 C 89 % -0.01 C
2167 20-03-2018 13:15:00 1.7 C 89 % 0.09 C
2168 20-03-2018 13:20:00 1.8 C 89 % 0.19 C
2169 20-03-2018 13:25:00 2.1 C 88 % 0.33 C
2170 20-03-2018 13:30:00 2.4 C 87 % 0.46 C
2171 20-03-2018 13:35:00 2.6 C 86 % 0.5 C
2172 20-03-2018 13:40:00 2.9 C 84 % 0.47 C
2173 20-03-2018 13:45:00 3.3 C 82 % 0.53 C
2174 20-03-2018 13:50:00 3.6 C 81 % 0.65 C
2175 20-03-2018 13:55:00 3.9 C 80 % 0.77 C
Sensor: Nr:Datum:Temp:Feuchte:Taupunkt:
Aussen-T/F 2176 20-03-2018 14:00:00 4.2 C 77 % 0.54 C
2177 20-03-2018 14:05:00 4.4 C 74 % 0.18 C
2178 20-03-2018 14:10:00 4.7 C 72 % 0.09 C
2179 20-03-2018 14:15:00 4.9 C 69 % -0.3 C
2180 20-03-2018 14:20:00 5.2 C 66 % -0.62 C
2181 20-03-2018 14:25:00 5.5 C 62 % -1.19 C
2182 20-03-2018 14:30:00 5.8 C 57 % -2.04 C
2183 20-03-2018 14:35:00 6.1 C 57 % -1.76 C
2184 20-03-2018 14:40:00 6.2 C 56 % -1.91 C
2185 20-03-2018 14:45:00 6.3 C 56 % -1.82 C
2186 20-03-2018 14:50:00 6.3 C 57 % -1.58 C
2187 20-03-2018 14:55:00 6.4 C 53 % -2.47 C
2188 20-03-2018 15:00:00 6.6 C 52 % -2.54 C
2189 20-03-2018 15:05:00 6.8 C 50 % -2.88 C
2190 20-03-2018 15:10:00 6.8 C 51 % -2.61 C
2191 20-03-2018 15:15:00 6.8 C 51 % -2.61 C
2192 20-03-2018 15:20:00 6.9 C 50 % -2.79 C
2193 20-03-2018 15:25:00 7.1 C 48 % -3.15 C
2194 20-03-2018 15:30:00 7.2 C 45 % -3.92 C
2195 20-03-2018 15:35:00 7.2 C 42 % -4.83 C
2196 20-03-2018 15:40:00 7.2 C 41 % -5.15 C
2197 20-03-2018 15:45:00 7.2 C 42 % -4.83 C
2198 20-03-2018 15:50:00 7.1 C 43 % -4.61 C
2199 20-03-2018 15:55:00 6.9 C 43 % -4.79 C
2200 20-03-2018 16:00:00 7.2 C 42 % -4.83 C
Sensor: Nr:Datum:Temp:Feuchte:Taupunkt:
Aussen-T/F 2201 20-03-2018 16:05:00 7.3 C 40 % -5.38 C
2202 20-03-2018 16:10:00 7.4 C 41 % -4.97 C
2203 20-03-2018 16:15:00 7.4 C 42 % -4.65 C
2204 20-03-2018 16:20:00 7.6 C 40 % -5.11 C
2205 20-03-2018 16:25:00 7.6 C 39 % -5.45 C
2206 20-03-2018 16:30:00 7.6 C 39 % -5.45 C
2207 20-03-2018 16:35:00 7.7 C 40 % -5.02 C
2208 20-03-2018 16:40:00 7.8 C 38 % -5.61 C
2209 20-03-2018 16:45:00 7.8 C 38 % -5.61 C
2210 20-03-2018 16:50:00 7.8 C 37 % -5.96 C
2211 20-03-2018 16:55:00 7.8 C 37 % -5.96 C
2212 20-03-2018 17:00:00 7.9 C 37 % -5.87 C
2213 20-03-2018 17:05:00 7.9 C 38 % -5.52 C
2214 20-03-2018 17:10:00 7.9 C 37 % -5.87 C
2215 20-03-2018 17:15:00 7.9 C 37 % -5.87 C
2216 20-03-2018 17:20:00 7.8 C 38 % -5.61 C
2217 20-03-2018 17:25:00 7.7 C 37 % -6.05 C
2218 20-03-2018 17:30:00 7.6 C 38 % -5.79 C
2219 20-03-2018 17:35:00 7.3 C 37 % -6.4 C
2220 20-03-2018 17:40:00 6.9 C 37 % -6.76 C
2221 20-03-2018 17:45:00 6.9 C 39 % -6.07 C
2222 20-03-2018 17:50:00 6.8 C 40 % -5.83 C
2223 20-03-2018 17:55:00 7 C 41 % -5.33 C
2224 20-03-2018 18:00:00 7.1 C 41 % -5.24 C
2225 20-03-2018 18:05:00 7.1 C 40 % -5.56 C
Sensor: Nr:Datum:Temp:Feuchte:Taupunkt:
Aussen-T/F 2226 20-03-2018 18:10:00 7 C 39 % -5.98 C
2227 20-03-2018 18:15:00 6.9 C 39 % -6.07 C
2228 20-03-2018 18:20:00 6.8 C 41 % -5.51 C
2229 20-03-2018 18:25:00 6.7 C 41 % -5.6 C
2230 20-03-2018 18:30:00 6.4 C 42 % -5.56 C
2231 20-03-2018 18:35:00 6.2 C 42 % -5.74 C
2232 20-03-2018 18:40:00 6 C 43 % -5.61 C
2233 20-03-2018 18:45:00 5.8 C 45 % -5.19 C
2234 20-03-2018 18:50:00 5.7 C 44 % -5.58 C
2235 20-03-2018 18:55:00 5.5 C 45 % -5.47 C
2236 20-03-2018 19:00:00 5.4 C 47 % -4.99 C
2237 20-03-2018 19:05:00 5.1 C 48 % -4.99 C
2238 20-03-2018 19:10:00 4.8 C 49 % -4.99 C
2239 20-03-2018 19:15:00 4.7 C 51 % -4.55 C
2240 20-03-2018 19:20:00 4.3 C 56 % -3.69 C
2241 20-03-2018 19:25:00 3.8 C 58 % -3.69 C
2242 20-03-2018 19:30:00 3.3 C 60 % -3.71 C
2243 20-03-2018 19:35:00 2.9 C 62 % -3.65 C
2244 20-03-2018 19:40:00 2.6 C 64 % -3.51 C
2245 20-03-2018 19:45:00 2.4 C 65 % -3.49 C
2246 20-03-2018 19:50:00 2.3 C 66 % -3.38 C
2247 20-03-2018 19:55:00 2.2 C 66 % -3.48 C
2248 20-03-2018 20:00:00 2.1 C 67 % -3.37 C
2249 20-03-2018 20:05:00 2 C 67 % -3.47 C
2250 20-03-2018 20:10:00 1.9 C 68 % -3.37 C
Sensor: Nr:Datum:Temp:Feuchte:Taupunkt:
Aussen-T/F 2251 20-03-2018 20:15:00 1.8 C 68 % -3.46 C
2252 20-03-2018 20:20:00 1.8 C 69 % -3.27 C
2253 20-03-2018 20:25:00 1.7 C 70 % -3.17 C
2254 20-03-2018 20:30:00 1.6 C 71 % -3.08 C
2255 20-03-2018 20:35:00 1.4 C 71 % -3.27 C
2256 20-03-2018 20:40:00 1.3 C 71 % -3.36 C
2257 20-03-2018 20:45:00 1.2 C 72 % -3.27 C
2258 20-03-2018 20:50:00 1 C 73 % -3.28 C
2259 20-03-2018 20:55:00 0.9 C 74 % -3.2 C
2260 20-03-2018 21:00:00 0.9 C 74 % -3.2 C
2261 20-03-2018 21:05:00 0.8 C 74 % -3.29 C
2262 20-03-2018 21:10:00 0.7 C 75 % -3.21 C
2263 20-03-2018 21:15:00 0.6 C 75 % -3.31 C
2264 20-03-2018 21:20:00 0.4 C 76 % -3.32 C
2265 20-03-2018 21:25:00 0.3 C 76 % -3.42 C
2266 20-03-2018 21:30:00 0.3 C 75 % -3.6 C
2267 20-03-2018 21:35:00 0.2 C 76 % -3.52 C
2268 20-03-2018 21:40:00 0.2 C 76 % -3.52 C
2269 20-03-2018 21:45:00 0.2 C 76 % -3.52 C
2270 20-03-2018 21:50:00 0.1 C 77 % -3.44 C
2271 20-03-2018 21:55:00 0.1 C 78 % -3.27 C
2272 20-03-2018 22:00:00 0 C 78 % -3.37 C
2273 20-03-2018 22:05:00 -0.1 C 78 % -3.47 C
2274 20-03-2018 22:10:00 -0.1 C 78 % -3.47 C
2275 20-03-2018 22:15:00 -0.1 C 79 % -3.3 C
Sensor: Nr:Datum:Temp:Feuchte:Taupunkt:
Aussen-T/F 2276 20-03-2018 22:20:00 -0.2 C 80 % -3.23 C
2277 20-03-2018 22:25:00 -0.2 C 81 % -3.06 C
2278 20-03-2018 22:30:00 -0.3 C 81 % -3.16 C
2279 20-03-2018 22:35:00 -0.3 C 80 % -3.32 C
2280 20-03-2018 22:40:00 -0.3 C 80 % -3.32 C
2281 20-03-2018 22:45:00 -0.3 C 80 % -3.32 C
2282 20-03-2018 22:50:00 -0.4 C 81 % -3.25 C
2283 20-03-2018 22:55:00 -0.4 C 81 % -3.25 C
2284 20-03-2018 23:00:00 -0.4 C 80 % -3.42 C
2285 20-03-2018 23:05:00 -0.3 C 77 % -3.83 C
2286 20-03-2018 23:10:00 -0.3 C 78 % -3.66 C
2287 20-03-2018 23:15:00 -0.2 C 78 % -3.56 C
2288 20-03-2018 23:20:00 -0.2 C 78 % -3.56 C
2289 20-03-2018 23:25:00 -0.2 C 77 % -3.74 C
2290 20-03-2018 23:30:00 -0.2 C 76 % -3.91 C
2291 20-03-2018 23:35:00 -0.2 C 77 % -3.74 C
2292 20-03-2018 23:40:00 -0.2 C 78 % -3.56 C
2293 20-03-2018 23:45:00 -0.2 C 77 % -3.74 C
2294 20-03-2018 23:50:00 -0.2 C 77 % -3.74 C
2295 20-03-2018 23:55:00 -0.2 C 77 % -3.74 C
2296 21-03-2018 00:00:00 -0.2 C 78 % -3.56 C
2297 21-03-2018 00:05:00 -0.3 C 79 % -3.49 C
2298 21-03-2018 00:10:00 -0.3 C 79 % -3.49 C
2299 21-03-2018 00:15:00 -0.4 C 78 % -3.76 C
2300 21-03-2018 00:20:00 -0.4 C 79 % -3.59 C
Sensor: Nr:Datum:Temp:Feuchte:Taupunkt:
Aussen-T/F 2301 21-03-2018 00:25:00 -0.4 C 79 % -3.59 C
2302 21-03-2018 00:30:00 -0.5 C 81 % -3.35 C
2303 21-03-2018 00:35:00 -0.6 C 81 % -3.45 C
2304 21-03-2018 00:40:00 -0.6 C 81 % -3.45 C
2305 21-03-2018 00:45:00 -0.7 C 82 % -3.38 C
2306 21-03-2018 00:50:00 -0.7 C 83 % -3.22 C
2307 21-03-2018 00:55:00 -0.7 C 83 % -3.22 C
2308 21-03-2018 01:00:00 -0.7 C 83 % -3.22 C
2309 21-03-2018 01:05:00 -0.7 C 83 % -3.22 C
2310 21-03-2018 01:10:00 -0.8 C 83 % -3.32 C
2311 21-03-2018 01:15:00 -0.8 C 83 % -3.32 C
2312 21-03-2018 01:20:00 -0.8 C 83 % -3.32 C
2313 21-03-2018 01:25:00 -0.8 C 83 % -3.32 C
2314 21-03-2018 01:30:00 -0.8 C 83 % -3.32 C
2315 21-03-2018 01:35:00 -0.8 C 83 % -3.32 C
2316 21-03-2018 01:40:00 -0.9 C 84 % -3.26 C
2317 21-03-2018 01:45:00 -1.1 C 84 % -3.45 C
2318 21-03-2018 01:50:00 -1.2 C 84 % -3.55 C
2319 21-03-2018 01:55:00 -1.4 C 85 % -3.59 C
2320 21-03-2018 02:00:00 -1.5 C 85 % -3.69 C
2321 21-03-2018 02:05:00 -1.7 C 86 % -3.73 C
2322 21-03-2018 02:10:00 -1.7 C 86 % -3.73 C
2323 21-03-2018 02:15:00 -1.8 C 86 % -3.83 C
2324 21-03-2018 02:20:00 -1.8 C 87 % -3.67 C
2325 21-03-2018 02:25:00 -1.9 C 87 % -3.77 C
Sensor: Nr:Datum:Temp:Feuchte:Taupunkt:
Aussen-T/F 2326 21-03-2018 02:30:00 -1.9 C 87 % -3.77 C
2327 21-03-2018 02:35:00 -2 C 87 % -3.87 C
2328 21-03-2018 02:40:00 -2.1 C 87 % -3.97 C
2329 21-03-2018 02:45:00 -2.2 C 87 % -4.07 C
2330 21-03-2018 02:50:00 -2.3 C 87 % -4.16 C
2331 21-03-2018 02:55:00 -2.3 C 88 % -4.01 C
2332 21-03-2018 03:00:00 -2.4 C 88 % -4.11 C
2333 21-03-2018 03:05:00 -2.4 C 89 % -3.96 C
2334 21-03-2018 03:10:00 -2.4 C 89 % -3.96 C
2335 21-03-2018 03:15:00 -2.5 C 89 % -4.06 C
2336 21-03-2018 03:20:00 -2.6 C 88 % -4.31 C
2337 21-03-2018 03:25:00 -2.7 C 89 % -4.26 C
2338 21-03-2018 03:30:00 -2.8 C 89 % -4.36 C
2339 21-03-2018 03:35:00 -2.8 C 89 % -4.36 C
2340 21-03-2018 03:40:00 -2.8 C 89 % -4.36 C
2341 21-03-2018 03:45:00 -2.9 C 89 % -4.45 C
2342 21-03-2018 03:50:00 -2.9 C 90 % -4.31 C
2343 21-03-2018 03:55:00 -3 C 90 % -4.4 C
2344 21-03-2018 04:00:00 -3 C 90 % -4.4 C
2345 21-03-2018 04:05:00 -3.1 C 90 % -4.5 C
2346 21-03-2018 04:10:00 -3.1 C 90 % -4.5 C
2347 21-03-2018 04:15:00 -3.1 C 90 % -4.5 C
2348 21-03-2018 04:20:00 -3.1 C 90 % -4.5 C
2349 21-03-2018 04:25:00 -3.1 C 91 % -4.36 C
2350 21-03-2018 04:30:00 -3.1 C 91 % -4.36 C
Sensor: Nr:Datum:Temp:Feuchte:Taupunkt:
Aussen-T/F 2351 21-03-2018 04:35:00 -3.2 C 90 % -4.6 C
2352 21-03-2018 04:40:00 -3.2 C 90 % -4.6 C
2353 21-03-2018 04:45:00 -3.3 C 90 % -4.7 C
2354 21-03-2018 04:50:00 -3.3 C 90 % -4.7 C
2355 21-03-2018 04:55:00 -3.4 C 91 % -4.65 C
2356 21-03-2018 05:00:00 -3.4 C 90 % -4.8 C
2357 21-03-2018 05:05:00 -3.5 C 91 % -4.75 C
2358 21-03-2018 05:10:00 -3.6 C 91 % -4.85 C
2359 21-03-2018 05:15:00 -3.6 C 91 % -4.85 C
2360 21-03-2018 05:20:00 -3.6 C 91 % -4.85 C
2361 21-03-2018 05:25:00 -3.6 C 91 % -4.85 C
2362 21-03-2018 05:30:00 -3.6 C 91 % -4.85 C
2363 21-03-2018 05:35:00 -3.6 C 91 % -4.85 C
2364 21-03-2018 05:40:00 -3.6 C 91 % -4.85 C
2365 21-03-2018 05:45:00 -3.7 C 91 % -4.95 C
2366 21-03-2018 05:50:00 -3.7 C 91 % -4.95 C
2367 21-03-2018 05:55:00 -3.8 C 91 % -5.05 C
2368 21-03-2018 06:00:00 -3.8 C 91 % -5.05 C
2369 21-03-2018 06:05:00 -3.8 C 91 % -5.05 C
2370 21-03-2018 06:10:00 -3.9 C 91 % -5.15 C
2371 21-03-2018 06:15:00 -3.9 C 92 % -5 C
2372 21-03-2018 06:20:00 -4 C 92 % -5.1 C
2373 21-03-2018 06:25:00 -4 C 92 % -5.1 C
2374 21-03-2018 06:30:00 -4 C 92 % -5.1 C
2375 21-03-2018 06:35:00 -4 C 92 % -5.1 C
Sensor: Nr:Datum:Temp:Feuchte:Taupunkt:
Aussen-T/F 2376 21-03-2018 06:40:00 -4 C 92 % -5.1 C
2377 21-03-2018 06:45:00 -4 C 92 % -5.1 C
2378 21-03-2018 06:50:00 -4 C 92 % -5.1 C
2379 21-03-2018 06:55:00 -3.9 C 92 % -5 C
2380 21-03-2018 07:00:00 -3.9 C 93 % -4.86 C
2381 21-03-2018 07:05:00 -3.8 C 93 % -4.76 C
2382 21-03-2018 07:10:00 -3.7 C 93 % -4.66 C
2383 21-03-2018 07:15:00 -3.7 C 93 % -4.66 C
2384 21-03-2018 07:20:00 -3.7 C 93 % -4.66 C
2385 21-03-2018 07:25:00 -3.7 C 93 % -4.66 C
2386 21-03-2018 07:30:00 -3.6 C 93 % -4.56 C
2387 21-03-2018 07:35:00 -3.6 C 93 % -4.56 C
2388 21-03-2018 07:40:00 -3.5 C 93 % -4.47 C
2389 21-03-2018 07:45:00 -3.5 C 93 % -4.47 C
2390 21-03-2018 07:50:00 -3.4 C 93 % -4.37 C
2391 21-03-2018 07:55:00 -3.3 C 93 % -4.27 C
2392 21-03-2018 08:00:00 -3.1 C 93 % -4.07 C
2393 21-03-2018 08:05:00 -2.9 C 93 % -3.87 C
2394 21-03-2018 08:10:00 -2.8 C 93 % -3.77 C
2395 21-03-2018 08:15:00 -2.8 C 92 % -3.92 C
2396 21-03-2018 08:20:00 -2.7 C 92 % -3.82 C
2397 21-03-2018 08:25:00 -2.6 C 92 % -3.72 C
2398 21-03-2018 08:30:00 -2.5 C 92 % -3.62 C
2399 21-03-2018 08:35:00 -2.4 C 92 % -3.52 C
2400 21-03-2018 08:40:00 -2.3 C 92 % -3.42 C
Sensor: Nr:Datum:Temp:Feuchte:Taupunkt:
Aussen-T/F 2401 21-03-2018 08:45:00 -2.2 C 92 % -3.32 C
2402 21-03-2018 08:50:00 -2.1 C 92 % -3.22 C
2403 21-03-2018 08:55:00 -2 C 92 % -3.12 C
2404 21-03-2018 09:00:00 -1.9 C 92 % -3.02 C
2405 21-03-2018 09:05:00 -1.8 C 92 % -2.92 C
2406 21-03-2018 09:10:00 -1.7 C 92 % -2.83 C
2407 21-03-2018 09:15:00 -1.6 C 91 % -2.87 C
2408 21-03-2018 09:20:00 -1.4 C 91 % -2.68 C
2409 21-03-2018 09:25:00 -1.3 C 91 % -2.58 C
2410 21-03-2018 09:30:00 -1.2 C 91 % -2.48 C
2411 21-03-2018 09:35:00 -1.1 C 91 % -2.38 C
2412 21-03-2018 09:40:00 -0.9 C 91 % -2.18 C
2413 21-03-2018 09:45:00 -0.7 C 91 % -1.98 C
2414 21-03-2018 09:50:00 -0.4 C 90 % -1.84 C
2415 21-03-2018 09:55:00 -0.2 C 89 % -1.79 C
2416 21-03-2018 10:00:00 0.1 C 88 % -1.65 C
2417 21-03-2018 10:05:00 0.3 C 87 % -1.6 C
2418 21-03-2018 10:10:00 0.6 C 86 % -1.46 C
2419 21-03-2018 10:15:00 0.7 C 84 % -1.69 C
2420 21-03-2018 10:20:00 0.9 C 84 % -1.49 C
2421 21-03-2018 10:25:00 1.1 C 83 % -1.46 C
2422 21-03-2018 10:30:00 1.3 C 82 % -1.43 C
2423 21-03-2018 10:35:00 1.6 C 80 % -1.47 C
2424 21-03-2018 10:40:00 1.8 C 78 % -1.62 C
2425 21-03-2018 10:45:00 2.1 C 77 % -1.5 C
Sensor: Nr:Datum:Temp:Feuchte:Taupunkt:
Aussen-T/F 2426 21-03-2018 10:50:00 2.3 C 76 % -1.48 C
2427 21-03-2018 10:55:00 2.4 C 75 % -1.57 C
2428 21-03-2018 11:00:00 2.6 C 77 % -1.02 C
2429 21-03-2018 11:05:00 2.7 C 75 % -1.28 C
2430 21-03-2018 11:10:00 2.8 C 73 % -1.55 C
2431 21-03-2018 11:15:00 3.1 C 72 % -1.45 C
2432 21-03-2018 11:20:00 3.4 C 70 % -1.54 C
2433 21-03-2018 11:25:00 3.6 C 69 % -1.54 C
2434 21-03-2018 11:30:00 3.8 C 69 % -1.35 C
2435 21-03-2018 11:35:00 3.9 C 68 % -1.45 C
2436 21-03-2018 11:40:00 4.1 C 66 % -1.67 C
2437 21-03-2018 11:45:00 4.1 C 66 % -1.67 C
2438 21-03-2018 11:50:00 4.2 C 66 % -1.57 C
2439 21-03-2018 11:55:00 4.3 C 66 % -1.48 C
2440 21-03-2018 12:00:00 4.5 C 67 % -1.08 C
2441 21-03-2018 12:05:00 4.6 C 64 % -1.61 C
2442 21-03-2018 12:10:00 4.7 C 61 % -2.16 C
2443 21-03-2018 12:15:00 4.7 C 58 % -2.84 C
2444 21-03-2018 12:20:00 4.8 C 61 % -2.07 C
2445 21-03-2018 12:25:00 5.1 C 59 % -2.24 C
2446 21-03-2018 12:30:00 5.2 C 58 % -2.37 C
2447 21-03-2018 12:35:00 5.3 C 59 % -2.05 C
2448 21-03-2018 12:40:00 5.5 C 57 % -2.33 C
2449 21-03-2018 12:45:00 5.6 C 56 % -2.47 C
2450 21-03-2018 12:50:00 5.7 C 55 % -2.62 C
Sensor: Nr:Datum:Temp:Feuchte:Taupunkt:
Aussen-T/F 2451 21-03-2018 12:55:00 5.8 C 55 % -2.53 C
2452 21-03-2018 13:00:00 5.9 C 54 % -2.68 C
2453 21-03-2018 13:05:00 6 C 54 % -2.59 C
2454 21-03-2018 13:10:00 6 C 53 % -2.84 C
2455 21-03-2018 13:15:00 5.9 C 53 % -2.93 C
2456 21-03-2018 13:20:00 5.9 C 53 % -2.93 C
2457 21-03-2018 13:25:00 5.9 C 53 % -2.93 C
2458 21-03-2018 13:30:00 6.1 C 51 % -3.26 C
2459 21-03-2018 13:35:00 6.1 C 51 % -3.26 C
2460 21-03-2018 13:40:00 6.2 C 51 % -3.17 C
2461 21-03-2018 13:45:00 6.3 C 52 % -2.81 C
2462 21-03-2018 13:50:00 6.4 C 50 % -3.25 C
2463 21-03-2018 13:55:00 6.4 C 49 % -3.52 C
2464 21-03-2018 14:00:00 6.4 C 49 % -3.52 C
2465 21-03-2018 14:05:00 6.6 C 50 % -3.06 C
2466 21-03-2018 14:10:00 6.7 C 50 % -2.97 C
2467 21-03-2018 14:15:00 6.7 C 50 % -2.97 C
2468 21-03-2018 14:20:00 6.6 C 50 % -3.06 C
2469 21-03-2018 14:25:00 6.6 C 51 % -2.8 C
2470 21-03-2018 14:30:00 6.7 C 50 % -2.97 C
2471 21-03-2018 14:35:00 6.8 C 52 % -2.35 C
2472 21-03-2018 14:40:00 6.9 C 51 % -2.52 C
2473 21-03-2018 14:45:00 6.9 C 50 % -2.79 C
2474 21-03-2018 14:50:00 6.9 C 50 % -2.79 C
2475 21-03-2018 14:55:00 6.8 C 49 % -3.15 C
Sensor: Nr:Datum:Temp:Feuchte:Taupunkt:
Aussen-T/F 2476 21-03-2018 15:00:00 6.9 C 51 % -2.52 C
2477 21-03-2018 15:05:00 6.9 C 52 % -2.26 C
2478 21-03-2018 15:10:00 6.9 C 51 % -2.52 C
2479 21-03-2018 15:15:00 6.9 C 50 % -2.79 C
2480 21-03-2018 15:20:00 7 C 51 % -2.43 C
2481 21-03-2018 15:25:00 6.9 C 52 % -2.26 C
2482 21-03-2018 15:30:00 6.9 C 52 % -2.26 C
2483 21-03-2018 15:35:00 7 C 52 % -2.17 C
2484 21-03-2018 15:40:00 7 C 51 % -2.43 C
2485 21-03-2018 15:45:00 7 C 52 % -2.17 C
2486 21-03-2018 15:50:00 7.2 C 52 % -1.98 C
2487 21-03-2018 15:55:00 7.2 C 50 % -2.51 C
2488 21-03-2018 16:00:00 7.1 C 48 % -3.15 C
2489 21-03-2018 16:05:00 7 C 48 % -3.24 C
2490 21-03-2018 16:10:00 7 C 48 % -3.24 C
2491 21-03-2018 16:15:00 7.1 C 47 % -3.43 C
2492 21-03-2018 16:20:00 7.2 C 45 % -3.92 C
2493 21-03-2018 16:25:00 7.3 C 45 % -3.83 C
2494 21-03-2018 16:30:00 7.5 C 44 % -3.94 C
2495 21-03-2018 16:35:00 7.7 C 44 % -3.76 C
2496 21-03-2018 16:40:00 7.9 C 44 % -3.58 C
2497 21-03-2018 16:45:00 7.9 C 43 % -3.89 C
2498 21-03-2018 16:50:00 7.8 C 45 % -3.37 C
2499 21-03-2018 16:55:00 7.9 C 46 % -2.99 C
2500 21-03-2018 17:00:00 7.9 C 44 % -3.58 C
Sensor: Nr:Datum:Temp:Feuchte:Taupunkt:
Aussen-T/F 2501 21-03-2018 17:05:00 7.9 C 46 % -2.99 C
2502 21-03-2018 17:10:00 7.7 C 47 % -2.88 C
2503 21-03-2018 17:15:00 7.5 C 48 % -2.78 C
2504 21-03-2018 17:20:00 7.4 C 50 % -2.33 C
2505 21-03-2018 17:25:00 7.6 C 48 % -2.69 C
2506 21-03-2018 17:30:00 7.7 C 49 % -2.32 C
2507 21-03-2018 17:35:00 7.7 C 50 % -2.05 C
2508 21-03-2018 17:40:00 7.4 C 51 % -2.06 C
2509 21-03-2018 17:45:00 7.1 C 52 % -2.07 C
2510 21-03-2018 17:50:00 6.8 C 56 % -1.35 C
2511 21-03-2018 17:55:00 6.7 C 57 % -1.2 C
2512 21-03-2018 18:00:00 6.6 C 59 % -0.83 C
2513 21-03-2018 18:05:00 6.5 C 60 % -0.69 C
2514 21-03-2018 18:10:00 6.3 C 60 % -0.88 C
2515 21-03-2018 18:15:00 6.1 C 59 % -1.3 C
2516 21-03-2018 18:20:00 5.8 C 60 % -1.35 C
2517 21-03-2018 18:25:00 5.6 C 61 % -1.31 C
2518 21-03-2018 18:30:00 5.3 C 62 % -1.38 C
2519 21-03-2018 18:35:00 5 C 64 % -1.23 C
2520 21-03-2018 18:40:00 4.7 C 65 % -1.3 C
2521 21-03-2018 18:45:00 4.4 C 67 % -1.18 C
2522 21-03-2018 18:50:00 4.2 C 67 % -1.37 C
2523 21-03-2018 18:55:00 3.9 C 69 % -1.26 C
2524 21-03-2018 19:00:00 3.7 C 71 % -1.06 C
2525 21-03-2018 19:05:00 3.7 C 72 % -0.87 C
Sensor: Nr:Datum:Temp:Feuchte:Taupunkt:
Aussen-T/F 2526 21-03-2018 19:10:00 3.6 C 72 % -0.96 C
2527 21-03-2018 19:15:00 3.6 C 72 % -0.96 C
2528 21-03-2018 19:20:00 3.4 C 72 % -1.16 C
2529 21-03-2018 19:25:00 3.2 C 73 % -1.16 C
2530 21-03-2018 19:30:00 2.8 C 74 % -1.36 C
2531 21-03-2018 19:35:00 2.7 C 75 % -1.28 C
2532 21-03-2018 19:40:00 2.4 C 76 % -1.39 C
2533 21-03-2018 19:45:00 2.2 C 78 % -1.23 C
2534 21-03-2018 19:50:00 1.9 C 79 % -1.35 C
2535 21-03-2018 19:55:00 1.7 C 80 % -1.37 C
2536 21-03-2018 20:00:00 1.5 C 81 % -1.4 C
2537 21-03-2018 20:05:00 1.3 C 81 % -1.59 C
2538 21-03-2018 20:10:00 1.2 C 82 % -1.52 C
2539 21-03-2018 20:15:00 1.1 C 83 % -1.46 C
2540 21-03-2018 20:20:00 1 C 83 % -1.55 C
2541 21-03-2018 20:25:00 0.9 C 84 % -1.49 C
2542 21-03-2018 20:30:00 0.9 C 84 % -1.49 C
2543 21-03-2018 20:35:00 0.8 C 84 % -1.59 C
2544 21-03-2018 20:40:00 0.7 C 84 % -1.69 C
2545 21-03-2018 20:45:00 0.6 C 85 % -1.62 C
2546 21-03-2018 20:50:00 0.5 C 85 % -1.72 C
2547 21-03-2018 20:55:00 0.4 C 86 % -1.66 C
2548 21-03-2018 21:00:00 0.4 C 86 % -1.66 C
2549 21-03-2018 21:05:00 0.3 C 86 % -1.76 C
2550 21-03-2018 21:10:00 0.2 C 86 % -1.86 C
Sensor: Nr:Datum:Temp:Feuchte:Taupunkt:
Aussen-T/F 2551 21-03-2018 21:15:00 0.1 C 86 % -1.96 C
2552 21-03-2018 21:20:00 0 C 87 % -1.9 C
2553 21-03-2018 21:25:00 -0.1 C 88 % -1.84 C
2554 21-03-2018 21:30:00 -0.1 C 88 % -1.84 C
2555 21-03-2018 21:35:00 -0.1 C 88 % -1.84 C
2556 21-03-2018 21:40:00 -0.2 C 88 % -1.94 C
2557 21-03-2018 21:45:00 -0.2 C 88 % -1.94 C
2558 21-03-2018 21:50:00 -0.2 C 89 % -1.79 C
2559 21-03-2018 21:55:00 -0.2 C 89 % -1.79 C
2560 21-03-2018 22:00:00 -0.2 C 89 % -1.79 C
2561 21-03-2018 22:05:00 -0.2 C 89 % -1.79 C
2562 21-03-2018 22:10:00 -0.2 C 89 % -1.79 C
2563 21-03-2018 22:15:00 -0.2 C 89 % -1.79 C
2564 21-03-2018 22:20:00 -0.1 C 89 % -1.69 C
2565 21-03-2018 22:25:00 -0.1 C 89 % -1.69 C
2566 21-03-2018 22:30:00 -0.1 C 89 % -1.69 C
2567 21-03-2018 22:35:00 -0.1 C 88 % -1.84 C
2568 21-03-2018 22:40:00 -0.2 C 88 % -1.94 C
2569 21-03-2018 22:45:00 -0.3 C 88 % -2.04 C
2570 21-03-2018 22:50:00 -0.3 C 88 % -2.04 C
2571 21-03-2018 22:55:00 -0.4 C 88 % -2.14 C
2572 21-03-2018 23:00:00 -0.4 C 88 % -2.14 C
2573 21-03-2018 23:05:00 -0.5 C 89 % -2.09 C
2574 21-03-2018 23:10:00 -0.6 C 89 % -2.18 C
2575 21-03-2018 23:15:00 -0.6 C 89 % -2.18 C
Sensor: Nr:Datum:Temp:Feuchte:Taupunkt:
Aussen-T/F 2576 21-03-2018 23:20:00 -0.6 C 89 % -2.18 C
2577 21-03-2018 23:25:00 -0.6 C 89 % -2.18 C
2578 21-03-2018 23:30:00 -0.6 C 89 % -2.18 C
2579 21-03-2018 23:35:00 -0.7 C 89 % -2.28 C
2580 21-03-2018 23:40:00 -0.7 C 89 % -2.28 C
2581 21-03-2018 23:45:00 -0.7 C 90 % -2.13 C
2582 21-03-2018 23:50:00 -0.7 C 90 % -2.13 C
2583 21-03-2018 23:55:00 -0.7 C 90 % -2.13 C
2584 22-03-2018 00:00:00 -0.7 C 90 % -2.13 C
2585 22-03-2018 00:05:00 -0.6 C 90 % -2.03 C
2586 22-03-2018 00:10:00 -0.7 C 90 % -2.13 C
2587 22-03-2018 00:15:00 -0.7 C 89 % -2.28 C
2588 22-03-2018 00:20:00 -0.7 C 89 % -2.28 C
2589 22-03-2018 00:25:00 -0.8 C 90 % -2.23 C
2590 22-03-2018 00:30:00 -0.8 C 90 % -2.23 C
2591 22-03-2018 00:35:00 -0.8 C 90 % -2.23 C
2592 22-03-2018 00:40:00 -0.8 C 90 % -2.23 C
2593 22-03-2018 00:45:00 -0.7 C 90 % -2.13 C
2594 22-03-2018 00:50:00 -0.7 C 90 % -2.13 C
2595 22-03-2018 00:55:00 -0.6 C 90 % -2.03 C
2596 22-03-2018 01:00:00 -0.6 C 90 % -2.03 C
2597 22-03-2018 01:05:00 -0.5 C 90 % -1.93 C
2598 22-03-2018 01:10:00 -0.4 C 90 % -1.84 C
2599 22-03-2018 01:15:00 -0.4 C 90 % -1.84 C
2600 22-03-2018 01:20:00 -0.3 C 90 % -1.74 C
Sensor: Nr:Datum:Temp:Feuchte:Taupunkt:
Aussen-T/F 2601 22-03-2018 01:25:00 -0.3 C 90 % -1.74 C
2602 22-03-2018 01:30:00 -0.3 C 90 % -1.74 C
2603 22-03-2018 01:35:00 -0.3 C 90 % -1.74 C
2604 22-03-2018 01:40:00 -0.3 C 90 % -1.74 C
2605 22-03-2018 01:45:00 -0.2 C 90 % -1.64 C
2606 22-03-2018 01:50:00 -0.2 C 90 % -1.64 C
2607 22-03-2018 01:55:00 -0.1 C 90 % -1.54 C
2608 22-03-2018 02:00:00 0.1 C 90 % -1.34 C
2609 22-03-2018 02:05:00 0.2 C 89 % -1.39 C
2610 22-03-2018 02:10:00 0.3 C 89 % -1.29 C
2611 22-03-2018 02:15:00 0.4 C 89 % -1.2 C
2612 22-03-2018 02:20:00 0.5 C 88 % -1.25 C
2613 22-03-2018 02:25:00 0.7 C 87 % -1.21 C
2614 22-03-2018 02:30:00 0.7 C 87 % -1.21 C
2615 22-03-2018 02:35:00 0.8 C 86 % -1.27 C
2616 22-03-2018 02:40:00 0.8 C 86 % -1.27 C
2617 22-03-2018 02:45:00 0.8 C 86 % -1.27 C
2618 22-03-2018 02:50:00 0.8 C 86 % -1.27 C
2619 22-03-2018 02:55:00 0.8 C 86 % -1.27 C
2620 22-03-2018 03:00:00 0.9 C 86 % -1.17 C
2621 22-03-2018 03:05:00 0.9 C 85 % -1.33 C
2622 22-03-2018 03:10:00 0.9 C 85 % -1.33 C
2623 22-03-2018 03:15:00 0.9 C 85 % -1.33 C
2624 22-03-2018 03:20:00 0.9 C 85 % -1.33 C
2625 22-03-2018 03:25:00 0.9 C 85 % -1.33 C
Sensor: Nr:Datum:Temp:Feuchte:Taupunkt:
Aussen-T/F 2626 22-03-2018 03:30:00 0.8 C 85 % -1.43 C
2627 22-03-2018 03:35:00 0.8 C 84 % -1.59 C
2628 22-03-2018 03:40:00 0.8 C 85 % -1.43 C
2629 22-03-2018 03:45:00 0.8 C 85 % -1.43 C
2630 22-03-2018 03:50:00 0.8 C 85 % -1.43 C
2631 22-03-2018 03:55:00 0.8 C 85 % -1.43 C
2632 22-03-2018 04:00:00 0.8 C 84 % -1.59 C
2633 22-03-2018 04:05:00 0.9 C 84 % -1.49 C
2634 22-03-2018 04:10:00 0.9 C 84 % -1.49 C
2635 22-03-2018 04:15:00 1 C 84 % -1.39 C
2636 22-03-2018 04:20:00 1.1 C 84 % -1.29 C
2637 22-03-2018 04:25:00 1.2 C 83 % -1.36 C
2638 22-03-2018 04:30:00 1.2 C 82 % -1.52 C
2639 22-03-2018 04:35:00 1.3 C 82 % -1.43 C
2640 22-03-2018 04:40:00 1.5 C 81 % -1.4 C
2641 22-03-2018 04:45:00 1.6 C 80 % -1.47 C
2642 22-03-2018 04:50:00 1.7 C 80 % -1.37 C
2643 22-03-2018 04:55:00 1.8 C 80 % -1.27 C
2644 22-03-2018 05:00:00 1.9 C 79 % -1.35 C
2645 22-03-2018 05:05:00 1.9 C 80 % -1.18 C
2646 22-03-2018 05:10:00 1.9 C 80 % -1.18 C
2647 22-03-2018 05:15:00 1.9 C 79 % -1.35 C
2648 22-03-2018 05:20:00 2 C 79 % -1.25 C
2649 22-03-2018 05:25:00 2.1 C 80 % -0.98 C
2650 22-03-2018 05:30:00 2.1 C 80 % -0.98 C
Sensor: Nr:Datum:Temp:Feuchte:Taupunkt:
Aussen-T/F 2651 22-03-2018 05:35:00 2.1 C 79 % -1.15 C
2652 22-03-2018 05:40:00 2.1 C 79 % -1.15 C
2653 22-03-2018 05:45:00 2.1 C 80 % -0.98 C
2654 22-03-2018 05:50:00 2.2 C 80 % -0.88 C
2655 22-03-2018 05:55:00 2.2 C 80 % -0.88 C
2656 22-03-2018 06:00:00 2.2 C 79 % -1.05 C
2657 22-03-2018 06:05:00 2.2 C 79 % -1.05 C
2658 22-03-2018 06:10:00 2.3 C 79 % -0.96 C
2659 22-03-2018 06:15:00 2.3 C 79 % -0.96 C
2660 22-03-2018 06:20:00 2.3 C 79 % -0.96 C
2661 22-03-2018 06:25:00 2.4 C 79 % -0.86 C
2662 22-03-2018 06:30:00 2.4 C 79 % -0.86 C
2663 22-03-2018 06:35:00 2.4 C 79 % -0.86 C
2664 22-03-2018 06:40:00 2.5 C 78 % -0.94 C
2665 22-03-2018 06:45:00 2.5 C 78 % -0.94 C
2666 22-03-2018 06:50:00 2.6 C 78 % -0.84 C
2667 22-03-2018 06:55:00 2.6 C 78 % -0.84 C
2668 22-03-2018 07:00:00 2.6 C 78 % -0.84 C
2669 22-03-2018 07:05:00 2.6 C 78 % -0.84 C
2670 22-03-2018 07:10:00 2.6 C 78 % -0.84 C
2671 22-03-2018 07:15:00 2.6 C 78 % -0.84 C
2672 22-03-2018 07:20:00 2.6 C 78 % -0.84 C
2673 22-03-2018 07:25:00 2.6 C 78 % -0.84 C
2674 22-03-2018 07:30:00 2.6 C 78 % -0.84 C
2675 22-03-2018 07:35:00 2.6 C 78 % -0.84 C
Sensor: Nr:Datum:Temp:Feuchte:Taupunkt:
Aussen-T/F 2676 22-03-2018 07:40:00 2.7 C 78 % -0.74 C
2677 22-03-2018 07:45:00 2.6 C 78 % -0.84 C
2678 22-03-2018 07:50:00 2.7 C 78 % -0.74 C
2679 22-03-2018 07:55:00 2.6 C 78 % -0.84 C
2680 22-03-2018 08:00:00 2.6 C 79 % -0.67 C
2681 22-03-2018 08:05:00 2.7 C 79 % -0.57 C
2682 22-03-2018 08:10:00 2.7 C 78 % -0.74 C
2683 22-03-2018 08:15:00 2.7 C 78 % -0.74 C
2684 22-03-2018 08:20:00 2.7 C 78 % -0.74 C
2685 22-03-2018 08:25:00 2.7 C 78 % -0.74 C
2686 22-03-2018 08:30:00 2.7 C 79 % -0.57 C
2687 22-03-2018 08:35:00 2.7 C 79 % -0.57 C
2688 22-03-2018 08:40:00 2.7 C 81 % -0.23 C
2689 22-03-2018 08:45:00 2.5 C 83 % -0.09 C
2690 22-03-2018 08:50:00 2.3 C 85 % 0.04 C
2691 22-03-2018 08:55:00 2.1 C 86 % 0.01 C
2692 22-03-2018 09:00:00 1.9 C 88 % 0.13 C
2693 22-03-2018 09:05:00 1.8 C 89 % 0.19 C
2694 22-03-2018 09:10:00 1.6 C 90 % 0.14 C
2695 22-03-2018 09:15:00 1.6 C 90 % 0.14 C
2696 22-03-2018 09:20:00 1.4 C 91 % 0.1 C
2697 22-03-2018 09:25:00 1.4 C 92 % 0.25 C
2698 22-03-2018 09:30:00 1.3 C 92 % 0.15 C
2699 22-03-2018 09:35:00 1.3 C 92 % 0.15 C
2700 22-03-2018 09:40:00 1.3 C 93 % 0.3 C
Sensor: Nr:Datum:Temp:Feuchte:Taupunkt:
Aussen-T/F 2701 22-03-2018 09:45:00 1.4 C 93 % 0.4 C
2702 22-03-2018 09:50:00 1.4 C 93 % 0.4 C
2703 22-03-2018 09:55:00 1.6 C 93 % 0.59 C
2704 22-03-2018 10:00:00 1.7 C 94 % 0.84 C
2705 22-03-2018 10:05:00 1.8 C 94 % 0.94 C
2706 22-03-2018 10:10:00 1.9 C 94 % 1.04 C
2707 22-03-2018 10:15:00 2.1 C 94 % 1.24 C
2708 22-03-2018 10:20:00 2.3 C 94 % 1.44 C
2709 22-03-2018 10:25:00 2.5 C 93 % 1.49 C
2710 22-03-2018 10:30:00 2.7 C 93 % 1.68 C
2711 22-03-2018 10:35:00 2.9 C 93 % 1.88 C
2712 22-03-2018 10:40:00 3 C 92 % 1.83 C
2713 22-03-2018 10:45:00 3.2 C 92 % 2.03 C
2714 22-03-2018 10:50:00 3.3 C 91 % 1.98 C
2715 22-03-2018 10:55:00 3.4 C 91 % 2.07 C
2716 22-03-2018 11:00:00 3.6 C 90 % 2.12 C
2717 22-03-2018 11:05:00 3.8 C 90 % 2.31 C
2718 22-03-2018 11:10:00 3.9 C 90 % 2.41 C
2719 22-03-2018 11:15:00 3.9 C 90 % 2.41 C
2720 22-03-2018 11:20:00 3.9 C 90 % 2.41 C
2721 22-03-2018 11:25:00 4.1 C 90 % 2.61 C
2722 22-03-2018 11:30:00 4.2 C 90 % 2.71 C
2723 22-03-2018 11:35:00 4.2 C 89 % 2.55 C
2724 22-03-2018 11:40:00 4.3 C 89 % 2.65 C
2725 22-03-2018 11:45:00 4.3 C 89 % 2.65 C
Sensor: Nr:Datum:Temp:Feuchte:Taupunkt:
Aussen-T/F 2726 22-03-2018 11:50:00 4.4 C 89 % 2.75 C
2727 22-03-2018 11:55:00 4.5 C 89 % 2.85 C
2728 22-03-2018 12:00:00 4.6 C 89 % 2.95 C
2729 22-03-2018 12:05:00 4.6 C 89 % 2.95 C
2730 22-03-2018 12:10:00 4.7 C 89 % 3.05 C
2731 22-03-2018 12:15:00 4.7 C 90 % 3.2 C
2732 22-03-2018 12:20:00 4.7 C 90 % 3.2 C
2733 22-03-2018 12:25:00 4.6 C 90 % 3.1 C
2734 22-03-2018 12:30:00 4.5 C 91 % 3.16 C
2735 22-03-2018 12:35:00 4.6 C 91 % 3.26 C
2736 22-03-2018 12:40:00 4.5 C 91 % 3.16 C
2737 22-03-2018 12:45:00 4.4 C 91 % 3.06 C
2738 22-03-2018 12:50:00 4.4 C 91 % 3.06 C
2739 22-03-2018 12:55:00 4.4 C 91 % 3.06 C
2740 22-03-2018 13:00:00 4.6 C 92 % 3.42 C
2741 22-03-2018 13:05:00 4.6 C 92 % 3.42 C
2742 22-03-2018 13:10:00 4.6 C 91 % 3.26 C
2743 22-03-2018 13:15:00 4.5 C 92 % 3.32 C
2744 22-03-2018 13:20:00 4.6 C 92 % 3.42 C
2745 22-03-2018 13:25:00 4.7 C 92 % 3.51 C
2746 22-03-2018 13:30:00 4.7 C 92 % 3.51 C
2747 22-03-2018 13:35:00 4.8 C 92 % 3.61 C
2748 22-03-2018 13:40:00 4.9 C 93 % 3.87 C
2749 22-03-2018 13:45:00 5 C 93 % 3.96 C
2750 22-03-2018 13:50:00 5 C 92 % 3.81 C
Sensor: Nr:Datum:Temp:Feuchte:Taupunkt:
Aussen-T/F 2751 22-03-2018 13:55:00 5.1 C 92 % 3.91 C
2752 22-03-2018 14:00:00 5.2 C 92 % 4.01 C
2753 22-03-2018 14:05:00 5.3 C 93 % 4.26 C
2754 22-03-2018 14:10:00 5.2 C 91 % 3.85 C
2755 22-03-2018 14:15:00 4.9 C 91 % 3.56 C
2756 22-03-2018 14:20:00 4.9 C 91 % 3.56 C
2757 22-03-2018 14:25:00 4.9 C 92 % 3.71 C
2758 22-03-2018 14:30:00 4.9 C 92 % 3.71 C
2759 22-03-2018 14:35:00 4.9 C 92 % 3.71 C
2760 22-03-2018 14:40:00 4.9 C 92 % 3.71 C
2761 22-03-2018 14:45:00 4.8 C 92 % 3.61 C
2762 22-03-2018 14:50:00 4.7 C 92 % 3.51 C
2763 22-03-2018 14:55:00 4.7 C 92 % 3.51 C
2764 22-03-2018 15:00:00 4.6 C 92 % 3.42 C
2765 22-03-2018 15:05:00 4.6 C 92 % 3.42 C
2766 22-03-2018 15:10:00 4.6 C 92 % 3.42 C
2767 22-03-2018 15:15:00 4.6 C 92 % 3.42 C
2768 22-03-2018 15:20:00 4.5 C 93 % 3.47 C
2769 22-03-2018 15:25:00 4.5 C 92 % 3.32 C
2770 22-03-2018 15:30:00 4.4 C 93 % 3.37 C
2771 22-03-2018 15:35:00 4.4 C 93 % 3.37 C
2772 22-03-2018 15:40:00 4.4 C 93 % 3.37 C
2773 22-03-2018 15:45:00 4.4 C 93 % 3.37 C
2774 22-03-2018 15:50:00 4.4 C 93 % 3.37 C
2775 22-03-2018 15:55:00 4.4 C 93 % 3.37 C
Sensor: Nr:Datum:Temp:Feuchte:Taupunkt:
Aussen-T/F 2776 22-03-2018 16:00:00 4.5 C 93 % 3.47 C
2777 22-03-2018 16:05:00 4.5 C 93 % 3.47 C
2778 22-03-2018 16:10:00 4.6 C 93 % 3.57 C
2779 22-03-2018 16:15:00 4.6 C 93 % 3.57 C
2780 22-03-2018 16:20:00 4.5 C 93 % 3.47 C
2781 22-03-2018 16:25:00 4.5 C 93 % 3.47 C
2782 22-03-2018 16:30:00 4.5 C 94 % 3.62 C
2783 22-03-2018 16:35:00 4.5 C 94 % 3.62 C
2784 22-03-2018 16:40:00 4.4 C 94 % 3.52 C
2785 22-03-2018 16:45:00 4.4 C 94 % 3.52 C
2786 22-03-2018 16:50:00 4.4 C 94 % 3.52 C
2787 22-03-2018 16:55:00 4.4 C 94 % 3.52 C
2788 22-03-2018 17:00:00 4.4 C 94 % 3.52 C
2789 22-03-2018 17:05:00 4.4 C 94 % 3.52 C
2790 22-03-2018 17:10:00 4.4 C 94 % 3.52 C
2791 22-03-2018 17:15:00 4.4 C 94 % 3.52 C
2792 22-03-2018 17:20:00 4.4 C 94 % 3.52 C
2793 22-03-2018 17:25:00 4.4 C 94 % 3.52 C
2794 22-03-2018 17:30:00 4.4 C 94 % 3.52 C
2795 22-03-2018 17:35:00 4.4 C 94 % 3.52 C
2796 22-03-2018 17:40:00 4.4 C 94 % 3.52 C
2797 22-03-2018 17:45:00 4.4 C 94 % 3.52 C
2798 22-03-2018 17:50:00 4.4 C 94 % 3.52 C
2799 22-03-2018 17:55:00 4.4 C 94 % 3.52 C
2800 22-03-2018 18:00:00 4.4 C 94 % 3.52 C
Sensor: Nr:Datum:Temp:Feuchte:Taupunkt:
Aussen-T/F 2801 22-03-2018 18:05:00 4.4 C 94 % 3.52 C
2802 22-03-2018 18:10:00 4.4 C 94 % 3.52 C
2803 22-03-2018 18:15:00 4.3 C 94 % 3.42 C
2804 22-03-2018 18:20:00 4.3 C 94 % 3.42 C
2805 22-03-2018 18:25:00 4.3 C 95 % 3.57 C
2806 22-03-2018 18:30:00 4.3 C 95 % 3.57 C
2807 22-03-2018 18:35:00 4.3 C 95 % 3.57 C
2808 22-03-2018 18:40:00 4.3 C 95 % 3.57 C
2809 22-03-2018 18:45:00 4.3 C 95 % 3.57 C
2810 22-03-2018 18:50:00 4.3 C 95 % 3.57 C
2811 22-03-2018 18:55:00 4.3 C 95 % 3.57 C
2812 22-03-2018 19:00:00 4.3 C 95 % 3.57 C
2813 22-03-2018 19:05:00 4.3 C 95 % 3.57 C
2814 22-03-2018 19:10:00 4.4 C 95 % 3.67 C
2815 22-03-2018 19:15:00 4.4 C 95 % 3.67 C
2816 22-03-2018 19:20:00 4.4 C 95 % 3.67 C
2817 22-03-2018 19:25:00 4.4 C 95 % 3.67 C
2818 22-03-2018 19:30:00 4.4 C 95 % 3.67 C
2819 22-03-2018 19:35:00 4.4 C 95 % 3.67 C
2820 22-03-2018 19:40:00 4.4 C 95 % 3.67 C
2821 22-03-2018 19:45:00 4.4 C 95 % 3.67 C
2822 22-03-2018 19:50:00 4.4 C 95 % 3.67 C
2823 22-03-2018 19:55:00 4.4 C 95 % 3.67 C
2824 22-03-2018 20:00:00 4.4 C 95 % 3.67 C
2825 22-03-2018 20:05:00 4.4 C 95 % 3.67 C
Sensor: Nr:Datum:Temp:Feuchte:Taupunkt:
Aussen-T/F 2826 22-03-2018 20:10:00 4.4 C 95 % 3.67 C
2827 22-03-2018 20:15:00 4.4 C 95 % 3.67 C
2828 22-03-2018 20:20:00 4.4 C 95 % 3.67 C
2829 22-03-2018 20:25:00 4.4 C 95 % 3.67 C
2830 22-03-2018 20:30:00 4.4 C 96 % 3.82 C
2831 22-03-2018 20:35:00 4.4 C 96 % 3.82 C
2832 22-03-2018 20:40:00 4.4 C 95 % 3.67 C
2833 22-03-2018 20:45:00 4.3 C 95 % 3.57 C
2834 22-03-2018 20:50:00 4.4 C 96 % 3.82 C
2835 22-03-2018 20:55:00 4.4 C 95 % 3.67 C
2836 22-03-2018 21:00:00 4.5 C 96 % 3.92 C
2837 22-03-2018 21:05:00 4.5 C 96 % 3.92 C
2838 22-03-2018 21:10:00 4.5 C 96 % 3.92 C
2839 22-03-2018 21:15:00 4.5 C 96 % 3.92 C
2840 22-03-2018 21:20:00 4.6 C 96 % 4.02 C
2841 22-03-2018 21:25:00 4.6 C 96 % 4.02 C
2842 22-03-2018 21:30:00 4.5 C 96 % 3.92 C
2843 22-03-2018 21:35:00 4.5 C 96 % 3.92 C
2844 22-03-2018 21:40:00 4.5 C 96 % 3.92 C
2845 22-03-2018 21:45:00 4.5 C 96 % 3.92 C
2846 22-03-2018 21:50:00 4.5 C 96 % 3.92 C
2847 22-03-2018 21:55:00 4.6 C 96 % 4.02 C
2848 22-03-2018 22:00:00 4.6 C 96 % 4.02 C
2849 22-03-2018 22:05:00 4.6 C 96 % 4.02 C
2850 22-03-2018 22:10:00 4.5 C 96 % 3.92 C
Sensor: Nr:Datum:Temp:Feuchte:Taupunkt:
Aussen-T/F 2851 22-03-2018 22:15:00 4.5 C 96 % 3.92 C
2852 22-03-2018 22:20:00 4.4 C 96 % 3.82 C
2853 22-03-2018 22:25:00 4.4 C 96 % 3.82 C
2854 22-03-2018 22:30:00 4.4 C 96 % 3.82 C
2855 22-03-2018 22:35:00 4.4 C 96 % 3.82 C
2856 22-03-2018 22:40:00 4.3 C 96 % 3.72 C
2857 22-03-2018 22:45:00 4.3 C 96 % 3.72 C
2858 22-03-2018 22:50:00 4.3 C 96 % 3.72 C
2859 22-03-2018 22:55:00 4.3 C 96 % 3.72 C
2860 22-03-2018 23:00:00 4.3 C 96 % 3.72 C
2861 22-03-2018 23:05:00 4.4 C 96 % 3.82 C
2862 22-03-2018 23:10:00 4.4 C 96 % 3.82 C
2863 22-03-2018 23:15:00 4.4 C 96 % 3.82 C
2864 22-03-2018 23:20:00 4.4 C 96 % 3.82 C
2865 22-03-2018 23:25:00 4.4 C 96 % 3.82 C
2866 22-03-2018 23:30:00 4.4 C 96 % 3.82 C
2867 22-03-2018 23:35:00 4.4 C 96 % 3.82 C
2868 22-03-2018 23:40:00 4.4 C 96 % 3.82 C
2869 22-03-2018 23:45:00 4.5 C 96 % 3.92 C
2870 22-03-2018 23:50:00 4.5 C 96 % 3.92 C
2871 22-03-2018 23:55:00 4.5 C 96 % 3.92 C
2872 23-03-2018 00:00:00 4.5 C 96 % 3.92 C
2873 23-03-2018 00:05:00 4.4 C 96 % 3.82 C
2874 23-03-2018 00:10:00 4.4 C 96 % 3.82 C
2875 23-03-2018 00:15:00 4.4 C 96 % 3.82 C
Sensor: Nr:Datum:Temp:Feuchte:Taupunkt:
Aussen-T/F 2876 23-03-2018 00:20:00 4.4 C 96 % 3.82 C
2877 23-03-2018 00:25:00 4.4 C 96 % 3.82 C
2878 23-03-2018 00:30:00 4.4 C 96 % 3.82 C
2879 23-03-2018 00:35:00 4.3 C 96 % 3.72 C
2880 23-03-2018 00:40:00 4.3 C 96 % 3.72 C
2881 23-03-2018 00:45:00 4.3 C 96 % 3.72 C
2882 23-03-2018 00:50:00 4.3 C 96 % 3.72 C
2883 23-03-2018 00:55:00 4.3 C 96 % 3.72 C
2884 23-03-2018 01:00:00 4.3 C 96 % 3.72 C
2885 23-03-2018 01:05:00 4.3 C 96 % 3.72 C
2886 23-03-2018 01:10:00 4.3 C 96 % 3.72 C
2887 23-03-2018 01:15:00 4.3 C 96 % 3.72 C
2888 23-03-2018 01:20:00 4.3 C 96 % 3.72 C
2889 23-03-2018 01:25:00 4.3 C 96 % 3.72 C
2890 23-03-2018 01:30:00 4.3 C 96 % 3.72 C
2891 23-03-2018 01:35:00 4.4 C 96 % 3.82 C
2892 23-03-2018 01:40:00 4.4 C 96 % 3.82 C
2893 23-03-2018 01:45:00 4.3 C 96 % 3.72 C
2894 23-03-2018 01:50:00 4.3 C 96 % 3.72 C
2895 23-03-2018 01:55:00 4.3 C 96 % 3.72 C
2896 23-03-2018 02:00:00 4.3 C 96 % 3.72 C
2897 23-03-2018 02:05:00 4.3 C 96 % 3.72 C
2898 23-03-2018 02:10:00 4.3 C 96 % 3.72 C
2899 23-03-2018 02:15:00 4.3 C 96 % 3.72 C
2900 23-03-2018 02:20:00 4.3 C 96 % 3.72 C
Sensor: Nr:Datum:Temp:Feuchte:Taupunkt:
Aussen-T/F 2901 23-03-2018 02:25:00 4.3 C 96 % 3.72 C
2902 23-03-2018 02:30:00 4.3 C 96 % 3.72 C
2903 23-03-2018 02:35:00 4.3 C 96 % 3.72 C
2904 23-03-2018 02:40:00 4.3 C 96 % 3.72 C
2905 23-03-2018 02:45:00 4.3 C 96 % 3.72 C
2906 23-03-2018 02:50:00 4.3 C 96 % 3.72 C
2907 23-03-2018 02:55:00 4.3 C 96 % 3.72 C
2908 23-03-2018 03:00:00 4.3 C 96 % 3.72 C
2909 23-03-2018 03:05:00 4.3 C 96 % 3.72 C
2910 23-03-2018 03:10:00 4.3 C 96 % 3.72 C
2911 23-03-2018 03:15:00 4.3 C 96 % 3.72 C
2912 23-03-2018 03:20:00 4.3 C 96 % 3.72 C
2913 23-03-2018 03:25:00 4.3 C 96 % 3.72 C
2914 23-03-2018 03:30:00 4.3 C 96 % 3.72 C
2915 23-03-2018 03:35:00 4.3 C 96 % 3.72 C
2916 23-03-2018 03:40:00 4.3 C 96 % 3.72 C
2917 23-03-2018 03:45:00 4.3 C 96 % 3.72 C
2918 23-03-2018 03:50:00 4.3 C 96 % 3.72 C
2919 23-03-2018 03:55:00 4.4 C 96 % 3.82 C
2920 23-03-2018 04:00:00 4.4 C 96 % 3.82 C
2921 23-03-2018 04:05:00 4.3 C 96 % 3.72 C
2922 23-03-2018 04:10:00 4.3 C 96 % 3.72 C
2923 23-03-2018 04:15:00 4.3 C 96 % 3.72 C
2924 23-03-2018 04:20:00 4.3 C 96 % 3.72 C
2925 23-03-2018 04:25:00 4.3 C 96 % 3.72 C
Sensor: Nr:Datum:Temp:Feuchte:Taupunkt:
Aussen-T/F 2926 23-03-2018 04:30:00 4.3 C 96 % 3.72 C
2927 23-03-2018 04:35:00 4.3 C 96 % 3.72 C
2928 23-03-2018 04:40:00 4.3 C 96 % 3.72 C
2929 23-03-2018 04:45:00 4.3 C 96 % 3.72 C
2930 23-03-2018 04:50:00 4.3 C 96 % 3.72 C
2931 23-03-2018 04:55:00 4.3 C 96 % 3.72 C
2932 23-03-2018 05:00:00 4.3 C 96 % 3.72 C
2933 23-03-2018 05:05:00 4.3 C 96 % 3.72 C
2934 23-03-2018 05:10:00 4.3 C 96 % 3.72 C
2935 23-03-2018 05:15:00 4.3 C 96 % 3.72 C
2936 23-03-2018 05:20:00 4.3 C 96 % 3.72 C
2937 23-03-2018 05:25:00 4.3 C 96 % 3.72 C
2938 23-03-2018 05:30:00 4.3 C 96 % 3.72 C
2939 23-03-2018 05:35:00 4.3 C 96 % 3.72 C
2940 23-03-2018 05:40:00 4.3 C 96 % 3.72 C
2941 23-03-2018 05:45:00 4.3 C 96 % 3.72 C
2942 23-03-2018 05:50:00 4.3 C 96 % 3.72 C
2943 23-03-2018 05:55:00 4.3 C 96 % 3.72 C
2944 23-03-2018 06:00:00 4.3 C 96 % 3.72 C
2945 23-03-2018 06:05:00 4.3 C 96 % 3.72 C
2946 23-03-2018 06:10:00 4.3 C 96 % 3.72 C
2947 23-03-2018 06:15:00 4.3 C 96 % 3.72 C
2948 23-03-2018 06:20:00 4.3 C 96 % 3.72 C
2949 23-03-2018 06:25:00 4.3 C 96 % 3.72 C
2950 23-03-2018 06:30:00 4.3 C 96 % 3.72 C
Sensor: Nr:Datum:Temp:Feuchte:Taupunkt:
Aussen-T/F 2951 23-03-2018 06:35:00 4.3 C 96 % 3.72 C
2952 23-03-2018 06:40:00 4.3 C 96 % 3.72 C
2953 23-03-2018 06:45:00 4.3 C 96 % 3.72 C
2954 23-03-2018 06:50:00 4.3 C 96 % 3.72 C
2955 23-03-2018 06:55:00 4.3 C 96 % 3.72 C
2956 23-03-2018 07:00:00 4.3 C 96 % 3.72 C
2957 23-03-2018 07:05:00 4.4 C 96 % 3.82 C
2958 23-03-2018 07:10:00 4.4 C 97 % 3.97 C
2959 23-03-2018 07:15:00 4.4 C 97 % 3.97 C
2960 23-03-2018 07:20:00 4.4 C 97 % 3.97 C
2961 23-03-2018 07:25:00 4.4 C 97 % 3.97 C
2962 23-03-2018 07:30:00 4.5 C 97 % 4.07 C
2963 23-03-2018 07:35:00 4.5 C 97 % 4.07 C
2964 23-03-2018 07:40:00 4.5 C 97 % 4.07 C
2965 23-03-2018 07:45:00 4.5 C 97 % 4.07 C
2966 23-03-2018 07:50:00 4.6 C 97 % 4.17 C
2967 23-03-2018 07:55:00 4.6 C 97 % 4.17 C
2968 23-03-2018 08:00:00 4.6 C 97 % 4.17 C
2969 23-03-2018 08:05:00 4.6 C 97 % 4.17 C
2970 23-03-2018 08:10:00 4.6 C 97 % 4.17 C
2971 23-03-2018 08:15:00 4.7 C 97 % 4.27 C
2972 23-03-2018 08:20:00 4.7 C 97 % 4.27 C
2973 23-03-2018 08:25:00 4.8 C 97 % 4.37 C
2974 23-03-2018 08:30:00 4.9 C 97 % 4.46 C
2975 23-03-2018 08:35:00 5.2 C 97 % 4.76 C
Sensor: Nr:Datum:Temp:Feuchte:Taupunkt:
Aussen-T/F 2976 23-03-2018 08:40:00 5.3 C 97 % 4.86 C
2977 23-03-2018 08:45:00 5.3 C 97 % 4.86 C
2978 23-03-2018 08:50:00 5.4 C 97 % 4.96 C
2979 23-03-2018 08:55:00 5.6 C 97 % 5.16 C
2980 23-03-2018 09:00:00 5.7 C 97 % 5.26 C
2981 23-03-2018 09:05:00 5.8 C 97 % 5.36 C
2982 23-03-2018 09:10:00 5.9 C 97 % 5.46 C
2983 23-03-2018 09:15:00 6 C 97 % 5.56 C
2984 23-03-2018 09:20:00 6.1 C 97 % 5.66 C
2985 23-03-2018 09:25:00 6.1 C 97 % 5.66 C
2986 23-03-2018 09:30:00 6.1 C 97 % 5.66 C
2987 23-03-2018 09:35:00 6.2 C 97 % 5.76 C
2988 23-03-2018 09:40:00 6.2 C 97 % 5.76 C
2989 23-03-2018 09:45:00 6.4 C 97 % 5.96 C
2990 23-03-2018 09:50:00 6.4 C 97 % 5.96 C
2991 23-03-2018 09:55:00 6.6 C 97 % 6.16 C
2992 23-03-2018 10:00:00 6.6 C 97 % 6.16 C
2993 23-03-2018 10:05:00 6.6 C 96 % 6.01 C
2994 23-03-2018 10:10:00 6.7 C 96 % 6.11 C
2995 23-03-2018 10:15:00 6.8 C 96 % 6.21 C
2996 23-03-2018 10:20:00 6.7 C 96 % 6.11 C
2997 23-03-2018 10:25:00 6.8 C 95 % 6.06 C
2998 23-03-2018 10:30:00 6.9 C 95 % 6.16 C
2999 23-03-2018 10:35:00 7.1 C 95 % 6.35 C
3000 23-03-2018 10:40:00 7.3 C 95 % 6.55 C
Sensor: Nr:Datum:Temp:Feuchte:Taupunkt:
Aussen-T/F 3001 23-03-2018 10:45:00 7.4 C 94 % 6.5 C
3002 23-03-2018 10:50:00 7.5 C 93 % 6.44 C
3003 23-03-2018 10:55:00 7.6 C 92 % 6.39 C
3004 23-03-2018 11:00:00 7.7 C 92 % 6.48 C
3005 23-03-2018 11:05:00 7.7 C 91 % 6.33 C
3006 23-03-2018 11:10:00 7.8 C 89 % 6.1 C
3007 23-03-2018 11:15:00 7.8 C 90 % 6.27 C
3008 23-03-2018 11:20:00 7.9 C 88 % 6.04 C
3009 23-03-2018 11:25:00 8 C 87 % 5.97 C
3010 23-03-2018 11:30:00 8.1 C 87 % 6.07 C
3011 23-03-2018 11:35:00 8.2 C 86 % 6 C
3012 23-03-2018 11:40:00 8.4 C 87 % 6.37 C
3013 23-03-2018 11:45:00 8.6 C 86 % 6.39 C
3014 23-03-2018 11:50:00 8.7 C 85 % 6.32 C
3015 23-03-2018 11:55:00 8.8 C 86 % 6.59 C
3016 23-03-2018 12:00:00 8.9 C 85 % 6.52 C
3017 23-03-2018 12:05:00 9 C 85 % 6.62 C
3018 23-03-2018 12:10:00 9.1 C 82 % 6.19 C
3019 23-03-2018 12:15:00 9.1 C 82 % 6.19 C
3020 23-03-2018 12:20:00 9.1 C 81 % 6.02 C
3021 23-03-2018 12:25:00 9 C 81 % 5.92 C
3022 23-03-2018 12:30:00 8.8 C 80 % 5.55 C
3023 23-03-2018 12:35:00 8.7 C 82 % 5.8 C
3024 23-03-2018 12:40:00 8.7 C 82 % 5.8 C
3025 23-03-2018 12:45:00 8.8 C 82 % 5.9 C
Sensor: Nr:Datum:Temp:Feuchte:Taupunkt:
Aussen-T/F 3026 23-03-2018 12:50:00 8.8 C 82 % 5.9 C
3027 23-03-2018 12:55:00 8.9 C 81 % 5.82 C
3028 23-03-2018 13:00:00 9 C 81 % 5.92 C
3029 23-03-2018 13:05:00 9 C 81 % 5.92 C
3030 23-03-2018 13:10:00 9.1 C 80 % 5.84 C
3031 23-03-2018 13:15:00 9.2 C 81 % 6.11 C
3032 23-03-2018 13:20:00 9.2 C 80 % 5.94 C
3033 23-03-2018 13:25:00 9.2 C 80 % 5.94 C
3034 23-03-2018 13:30:00 9.2 C 80 % 5.94 C
3035 23-03-2018 13:35:00 9.2 C 79 % 5.75 C
3036 23-03-2018 13:40:00 9.1 C 80 % 5.84 C
3037 23-03-2018 13:45:00 9.1 C 80 % 5.84 C
3038 23-03-2018 13:50:00 9.1 C 80 % 5.84 C
3039 23-03-2018 13:55:00 8.9 C 79 % 5.46 C
3040 23-03-2018 14:00:00 8.8 C 80 % 5.55 C
3041 23-03-2018 14:05:00 8.7 C 81 % 5.63 C
3042 23-03-2018 14:10:00 8.8 C 81 % 5.72 C
3043 23-03-2018 14:15:00 8.9 C 81 % 5.82 C
3044 23-03-2018 14:20:00 9 C 80 % 5.74 C
3045 23-03-2018 14:25:00 9.2 C 79 % 5.75 C
3046 23-03-2018 14:30:00 9.4 C 79 % 5.95 C
3047 23-03-2018 14:35:00 9.4 C 77 % 5.58 C
3048 23-03-2018 14:40:00 9.3 C 78 % 5.67 C
3049 23-03-2018 14:45:00 9.2 C 78 % 5.57 C
3050 23-03-2018 14:50:00 9.2 C 78 % 5.57 C
Sensor: Nr:Datum:Temp:Feuchte:Taupunkt:
Aussen-T/F 3051 23-03-2018 14:55:00 9.2 C 78 % 5.57 C
3052 23-03-2018 15:00:00 9.1 C 78 % 5.47 C
3053 23-03-2018 15:05:00 8.9 C 78 % 5.28 C
3054 23-03-2018 15:10:00 8.8 C 79 % 5.36 C
3055 23-03-2018 15:15:00 8.7 C 79 % 5.27 C
3056 23-03-2018 15:20:00 8.7 C 80 % 5.45 C
3057 23-03-2018 15:25:00 8.6 C 78 % 4.99 C
3058 23-03-2018 15:30:00 8.4 C 80 % 5.16 C
3059 23-03-2018 15:35:00 8.4 C 80 % 5.16 C
3060 23-03-2018 15:40:00 8.6 C 80 % 5.35 C
3061 23-03-2018 15:45:00 8.8 C 80 % 5.55 C
3062 23-03-2018 15:50:00 8.8 C 79 % 5.36 C
3063 23-03-2018 15:55:00 8.8 C 79 % 5.36 C
3064 23-03-2018 16:00:00 9 C 78 % 5.38 C
3065 23-03-2018 16:05:00 9 C 77 % 5.19 C
3066 23-03-2018 16:10:00 9.1 C 78 % 5.47 C
3067 23-03-2018 16:15:00 9.1 C 77 % 5.29 C
3068 23-03-2018 16:20:00 9.1 C 76 % 5.1 C
3069 23-03-2018 16:25:00 8.9 C 76 % 4.91 C
3070 23-03-2018 16:30:00 8.9 C 77 % 5.09 C
3071 23-03-2018 16:35:00 8.7 C 77 % 4.9 C
3072 23-03-2018 16:40:00 8.3 C 78 % 4.7 C
3073 23-03-2018 16:45:00 8.1 C 79 % 4.68 C
3074 23-03-2018 16:50:00 7.9 C 79 % 4.49 C
3075 23-03-2018 16:55:00 7.8 C 79 % 4.39 C
Sensor: Nr:Datum:Temp:Feuchte:Taupunkt:
Aussen-T/F 3076 23-03-2018 17:00:00 7.7 C 80 % 4.47 C
3077 23-03-2018 17:05:00 7.7 C 80 % 4.47 C
3078 23-03-2018 17:10:00 7.6 C 80 % 4.38 C
3079 23-03-2018 17:15:00 7.5 C 79 % 4.1 C
3080 23-03-2018 17:20:00 7.4 C 79 % 4 C
3081 23-03-2018 17:25:00 7.4 C 79 % 4 C
3082 23-03-2018 17:30:00 7.4 C 79 % 4 C
3083 23-03-2018 17:35:00 7.3 C 79 % 3.91 C
3084 23-03-2018 17:40:00 7.3 C 79 % 3.91 C
3085 23-03-2018 17:45:00 7.3 C 79 % 3.91 C
3086 23-03-2018 17:50:00 7.2 C 79 % 3.81 C
3087 23-03-2018 17:55:00 7.2 C 79 % 3.81 C
3088 23-03-2018 18:00:00 7.2 C 80 % 3.99 C
3089 23-03-2018 18:05:00 7.1 C 80 % 3.89 C
3090 23-03-2018 18:10:00 7.1 C 80 % 3.89 C
3091 23-03-2018 18:15:00 7 C 80 % 3.79 C
3092 23-03-2018 18:20:00 6.9 C 80 % 3.7 C
3093 23-03-2018 18:25:00 6.9 C 80 % 3.7 C
3094 23-03-2018 18:30:00 6.9 C 80 % 3.7 C
3095 23-03-2018 18:35:00 6.9 C 81 % 3.87 C
3096 23-03-2018 18:40:00 6.8 C 81 % 3.77 C
3097 23-03-2018 18:45:00 6.8 C 81 % 3.77 C
3098 23-03-2018 18:50:00 6.7 C 81 % 3.68 C
3099 23-03-2018 18:55:00 6.7 C 82 % 3.85 C
3100 23-03-2018 19:00:00 6.7 C 82 % 3.85 C
Sensor: Nr:Datum:Temp:Feuchte:Taupunkt:
Aussen-T/F 3101 23-03-2018 19:05:00 6.6 C 82 % 3.75 C
3102 23-03-2018 19:10:00 6.6 C 82 % 3.75 C
3103 23-03-2018 19:15:00 6.6 C 82 % 3.75 C
3104 23-03-2018 19:20:00 6.6 C 83 % 3.92 C
3105 23-03-2018 19:25:00 6.5 C 83 % 3.83 C
3106 23-03-2018 19:30:00 6.4 C 84 % 3.9 C
3107 23-03-2018 19:35:00 6.4 C 84 % 3.9 C
3108 23-03-2018 19:40:00 6.3 C 85 % 3.97 C
3109 23-03-2018 19:45:00 6.3 C 85 % 3.97 C
3110 23-03-2018 19:50:00 6.3 C 85 % 3.97 C
3111 23-03-2018 19:55:00 6.2 C 85 % 3.87 C
3112 23-03-2018 20:00:00 6.2 C 85 % 3.87 C
3113 23-03-2018 20:05:00 6.2 C 86 % 4.04 C
3114 23-03-2018 20:10:00 6.1 C 86 % 3.94 C
3115 23-03-2018 20:15:00 6.1 C 86 % 3.94 C
3116 23-03-2018 20:20:00 6 C 86 % 3.84 C
3117 23-03-2018 20:25:00 6 C 86 % 3.84 C
3118 23-03-2018 20:30:00 6 C 86 % 3.84 C
3119 23-03-2018 20:35:00 5.9 C 86 % 3.74 C
3120 23-03-2018 20:40:00 5.9 C 86 % 3.74 C
3121 23-03-2018 20:45:00 5.9 C 86 % 3.74 C
3122 23-03-2018 20:50:00 5.9 C 86 % 3.74 C
3123 23-03-2018 20:55:00 5.8 C 86 % 3.64 C
3124 23-03-2018 21:00:00 5.8 C 86 % 3.64 C
3125 23-03-2018 21:05:00 5.8 C 86 % 3.64 C
Sensor: Nr:Datum:Temp:Feuchte:Taupunkt:
Aussen-T/F 3126 23-03-2018 21:10:00 5.8 C 86 % 3.64 C
3127 23-03-2018 21:15:00 5.8 C 86 % 3.64 C
3128 23-03-2018 21:20:00 5.8 C 86 % 3.64 C
3129 23-03-2018 21:25:00 5.7 C 86 % 3.55 C
3130 23-03-2018 21:30:00 5.7 C 87 % 3.71 C
3131 23-03-2018 21:35:00 5.7 C 87 % 3.71 C
3132 23-03-2018 21:40:00 5.6 C 87 % 3.61 C
3133 23-03-2018 21:45:00 5.6 C 87 % 3.61 C
3134 23-03-2018 21:50:00 5.6 C 87 % 3.61 C
3135 23-03-2018 21:55:00 5.6 C 87 % 3.61 C
3136 23-03-2018 22:00:00 5.6 C 88 % 3.77 C
3137 23-03-2018 22:05:00 5.5 C 88 % 3.67 C
3138 23-03-2018 22:10:00 5.5 C 88 % 3.67 C
3139 23-03-2018 22:15:00 5.4 C 88 % 3.58 C
3140 23-03-2018 22:20:00 5.4 C 88 % 3.58 C
3141 23-03-2018 22:25:00 5.3 C 88 % 3.48 C
3142 23-03-2018 22:30:00 5.3 C 89 % 3.64 C
3143 23-03-2018 22:35:00 5.2 C 89 % 3.54 C
3144 23-03-2018 22:40:00 5.2 C 89 % 3.54 C
3145 23-03-2018 22:45:00 5.1 C 89 % 3.44 C
3146 23-03-2018 22:50:00 5.1 C 89 % 3.44 C
3147 23-03-2018 22:55:00 4.9 C 89 % 3.24 C
3148 23-03-2018 23:00:00 4.8 C 90 % 3.3 C
3149 23-03-2018 23:05:00 4.7 C 90 % 3.2 C
3150 23-03-2018 23:10:00 4.6 C 90 % 3.1 C
Sensor: Nr:Datum:Temp:Feuchte:Taupunkt:
Aussen-T/F 3151 23-03-2018 23:15:00 4.5 C 90 % 3.01 C
3152 23-03-2018 23:20:00 4.4 C 90 % 2.91 C
3153 23-03-2018 23:25:00 4.3 C 90 % 2.81 C
3154 23-03-2018 23:30:00 4.2 C 90 % 2.71 C
3155 23-03-2018 23:35:00 4.1 C 90 % 2.61 C
3156 23-03-2018 23:40:00 3.9 C 90 % 2.41 C
3157 23-03-2018 23:45:00 3.8 C 90 % 2.31 C
3158 23-03-2018 23:50:00 3.6 C 90 % 2.12 C
3159 23-03-2018 23:55:00 3.4 C 90 % 1.92 C
3160 24-03-2018 00:00:00 3.3 C 90 % 1.82 C
3161 24-03-2018 00:05:00 3.2 C 91 % 1.88 C
3162 24-03-2018 00:10:00 3 C 91 % 1.68 C
3163 24-03-2018 00:15:00 2.9 C 91 % 1.58 C
3164 24-03-2018 00:20:00 2.8 C 91 % 1.48 C
3165 24-03-2018 00:25:00 2.7 C 92 % 1.53 C
3166 24-03-2018 00:30:00 2.6 C 92 % 1.43 C
3167 24-03-2018 00:35:00 2.5 C 92 % 1.34 C
3168 24-03-2018 00:40:00 2.4 C 92 % 1.24 C
3169 24-03-2018 00:45:00 2.3 C 92 % 1.14 C
3170 24-03-2018 00:50:00 2.2 C 92 % 1.04 C
3171 24-03-2018 00:55:00 2.1 C 92 % 0.94 C
3172 24-03-2018 01:00:00 2 C 93 % 0.99 C
3173 24-03-2018 01:05:00 1.9 C 93 % 0.89 C
3174 24-03-2018 01:10:00 1.9 C 93 % 0.89 C
3175 24-03-2018 01:15:00 1.8 C 93 % 0.79 C
Sensor: Nr:Datum:Temp:Feuchte:Taupunkt:
Aussen-T/F 3176 24-03-2018 01:20:00 1.8 C 93 % 0.79 C
3177 24-03-2018 01:25:00 1.6 C 93 % 0.59 C
3178 24-03-2018 01:30:00 1.4 C 93 % 0.4 C
3179 24-03-2018 01:35:00 1.3 C 93 % 0.3 C
3180 24-03-2018 01:40:00 1.3 C 93 % 0.3 C
3181 24-03-2018 01:45:00 1.2 C 94 % 0.34 C
3182 24-03-2018 01:50:00 1.2 C 94 % 0.34 C
3183 24-03-2018 01:55:00 1.2 C 94 % 0.34 C
3184 24-03-2018 02:00:00 1.2 C 94 % 0.34 C
3185 24-03-2018 02:05:00 1.1 C 94 % 0.24 C
3186 24-03-2018 02:10:00 1 C 94 % 0.15 C
3187 24-03-2018 02:15:00 1 C 94 % 0.15 C
3188 24-03-2018 02:20:00 1 C 94 % 0.15 C
3189 24-03-2018 02:25:00 0.9 C 94 % 0.05 C
3190 24-03-2018 02:30:00 0.9 C 94 % 0.05 C
3191 24-03-2018 02:35:00 0.8 C 94 % -0.05 C
3192 24-03-2018 02:40:00 0.8 C 94 % -0.05 C
3193 24-03-2018 02:45:00 0.8 C 94 % -0.05 C
3194 24-03-2018 02:50:00 0.8 C 94 % -0.05 C
3195 24-03-2018 02:55:00 0.9 C 95 % 0.19 C
3196 24-03-2018 03:00:00 1 C 95 % 0.29 C
3197 24-03-2018 03:05:00 1.1 C 95 % 0.39 C
3198 24-03-2018 03:10:00 1.2 C 95 % 0.49 C
3199 24-03-2018 03:15:00 1.3 C 95 % 0.59 C
3200 24-03-2018 03:20:00 1.4 C 95 % 0.69 C
Sensor: Nr:Datum:Temp:Feuchte:Taupunkt:
Aussen-T/F 3201 24-03-2018 03:25:00 1.4 C 95 % 0.69 C
3202 24-03-2018 03:30:00 1.4 C 95 % 0.69 C
3203 24-03-2018 03:35:00 1.4 C 95 % 0.69 C
3204 24-03-2018 03:40:00 1.4 C 95 % 0.69 C
3205 24-03-2018 03:45:00 1.3 C 95 % 0.59 C
3206 24-03-2018 03:50:00 1.2 C 95 % 0.49 C
3207 24-03-2018 03:55:00 1.2 C 95 % 0.49 C
3208 24-03-2018 04:00:00 1.2 C 95 % 0.49 C
3209 24-03-2018 04:05:00 1.2 C 95 % 0.49 C
3210 24-03-2018 04:10:00 1.2 C 95 % 0.49 C
3211 24-03-2018 04:15:00 1.2 C 95 % 0.49 C
3212 24-03-2018 04:20:00 1.2 C 95 % 0.49 C
3213 24-03-2018 04:25:00 1.2 C 95 % 0.49 C
3214 24-03-2018 04:30:00 1.3 C 95 % 0.59 C
3215 24-03-2018 04:35:00 1.3 C 95 % 0.59 C
3216 24-03-2018 04:40:00 1.3 C 95 % 0.59 C
3217 24-03-2018 04:45:00 1.4 C 95 % 0.69 C
3218 24-03-2018 04:50:00 1.4 C 95 % 0.69 C
3219 24-03-2018 04:55:00 1.5 C 96 % 0.93 C
3220 24-03-2018 05:00:00 1.6 C 96 % 1.03 C
3221 24-03-2018 05:05:00 1.6 C 96 % 1.03 C
3222 24-03-2018 05:10:00 1.6 C 96 % 1.03 C
3223 24-03-2018 05:15:00 1.4 C 95 % 0.69 C
3224 24-03-2018 05:20:00 1.3 C 95 % 0.59 C
3225 24-03-2018 05:25:00 1.1 C 95 % 0.39 C
Sensor: Nr:Datum:Temp:Feuchte:Taupunkt:
Aussen-T/F 3226 24-03-2018 05:30:00 1 C 95 % 0.29 C
3227 24-03-2018 05:35:00 0.9 C 95 % 0.19 C
3228 24-03-2018 05:40:00 0.9 C 95 % 0.19 C
3229 24-03-2018 05:45:00 0.8 C 95 % 0.09 C
3230 24-03-2018 05:50:00 0.7 C 95 % -0.01 C
3231 24-03-2018 05:55:00 0.7 C 95 % -0.01 C
3232 24-03-2018 06:00:00 0.7 C 95 % -0.01 C
3233 24-03-2018 06:05:00 0.8 C 95 % 0.09 C
3234 24-03-2018 06:10:00 0.8 C 95 % 0.09 C
3235 24-03-2018 06:15:00 0.8 C 95 % 0.09 C
3236 24-03-2018 06:20:00 0.8 C 95 % 0.09 C
3237 24-03-2018 06:25:00 0.7 C 95 % -0.01 C
3238 24-03-2018 06:30:00 0.6 C 95 % -0.11 C
3239 24-03-2018 06:35:00 0.4 C 95 % -0.31 C
3240 24-03-2018 06:40:00 0.3 C 95 % -0.4 C
3241 24-03-2018 06:45:00 0.3 C 95 % -0.4 C
3242 24-03-2018 06:50:00 0.3 C 95 % -0.4 C
3243 24-03-2018 06:55:00 0.3 C 96 % -0.26 C
3244 24-03-2018 07:00:00 0.3 C 96 % -0.26 C
3245 24-03-2018 07:05:00 0.3 C 96 % -0.26 C
3246 24-03-2018 07:10:00 0.4 C 96 % -0.16 C
3247 24-03-2018 07:15:00 0.4 C 96 % -0.16 C
3248 24-03-2018 07:20:00 0.4 C 96 % -0.16 C
3249 24-03-2018 07:25:00 0.4 C 96 % -0.16 C
3250 24-03-2018 07:30:00 0.3 C 96 % -0.26 C
Sensor: Nr:Datum:Temp:Feuchte:Taupunkt:
Aussen-T/F 3251 24-03-2018 07:35:00 0.3 C 96 % -0.26 C
3252 24-03-2018 07:40:00 0.3 C 96 % -0.26 C
3253 24-03-2018 07:45:00 0.3 C 96 % -0.26 C
3254 24-03-2018 07:50:00 0.4 C 96 % -0.16 C
3255 24-03-2018 07:55:00 0.4 C 96 % -0.16 C
3256 24-03-2018 08:00:00 0.4 C 96 % -0.16 C
3257 24-03-2018 08:05:00 0.6 C 96 % 0.04 C
3258 24-03-2018 08:10:00 0.6 C 96 % 0.04 C
3259 24-03-2018 08:15:00 0.8 C 96 % 0.24 C
3260 24-03-2018 08:20:00 0.9 C 96 % 0.34 C
3261 24-03-2018 08:25:00 1 C 96 % 0.44 C
3262 24-03-2018 08:30:00 1.2 C 96 % 0.63 C
3263 24-03-2018 08:35:00 1.3 C 96 % 0.73 C
3264 24-03-2018 08:40:00 1.4 C 96 % 0.83 C
3265 24-03-2018 08:45:00 1.6 C 96 % 1.03 C
3266 24-03-2018 08:50:00 1.7 C 96 % 1.13 C
3267 24-03-2018 08:55:00 1.9 C 97 % 1.48 C
3268 24-03-2018 09:00:00 2 C 96 % 1.43 C
3269 24-03-2018 09:05:00 2.3 C 97 % 1.87 C
3270 24-03-2018 09:10:00 2.5 C 97 % 2.07 C
3271 24-03-2018 09:15:00 2.7 C 97 % 2.27 C
3272 24-03-2018 09:20:00 2.9 C 97 % 2.47 C
3273 24-03-2018 09:25:00 3.1 C 97 % 2.67 C
3274 24-03-2018 09:30:00 3.3 C 97 % 2.87 C
3275 24-03-2018 09:35:00 3.6 C 97 % 3.17 C
Sensor: Nr:Datum:Temp:Feuchte:Taupunkt:
Aussen-T/F 3276 24-03-2018 09:40:00 3.7 C 97 % 3.27 C
3277 24-03-2018 09:45:00 3.9 C 97 % 3.47 C
3278 24-03-2018 09:50:00 4.1 C 97 % 3.67 C
3279 24-03-2018 09:55:00 4.3 C 97 % 3.87 C
3280 24-03-2018 10:00:00 4.5 C 97 % 4.07 C
3281 24-03-2018 10:05:00 4.7 C 96 % 4.12 C
3282 24-03-2018 10:10:00 4.8 C 95 % 4.07 C
3283 24-03-2018 10:15:00 5 C 95 % 4.27 C
3284 24-03-2018 10:20:00 5.2 C 94 % 4.32 C
3285 24-03-2018 10:25:00 5.4 C 94 % 4.51 C
3286 24-03-2018 10:30:00 5.6 C 92 % 4.41 C
3287 24-03-2018 10:35:00 5.8 C 91 % 4.45 C
3288 24-03-2018 10:40:00 6.2 C 90 % 4.69 C
3289 24-03-2018 10:45:00 6.5 C 88 % 4.66 C
3290 24-03-2018 10:50:00 6.7 C 86 % 4.53 C
3291 24-03-2018 10:55:00 6.9 C 86 % 4.72 C
3292 24-03-2018 11:00:00 7.2 C 84 % 4.68 C
3293 24-03-2018 11:05:00 7.6 C 81 % 4.55 C
3294 24-03-2018 11:10:00 7.9 C 80 % 4.67 C
3295 24-03-2018 11:15:00 8 C 80 % 4.77 C
3296 24-03-2018 11:20:00 8.2 C 78 % 4.6 C
3297 24-03-2018 11:25:00 8.3 C 77 % 4.51 C
3298 24-03-2018 11:30:00 8.6 C 75 % 4.43 C
3299 24-03-2018 11:35:00 8.7 C 75 % 4.52 C
3300 24-03-2018 11:40:00 8.8 C 74 % 4.43 C
Sensor: Nr:Datum:Temp:Feuchte:Taupunkt:
Aussen-T/F 3301 24-03-2018 11:45:00 9 C 73 % 4.43 C
3302 24-03-2018 11:50:00 9.2 C 71 % 4.22 C
3303 24-03-2018 11:55:00 9.3 C 68 % 3.71 C
3304 24-03-2018 12:00:00 9.5 C 66 % 3.47 C
3305 24-03-2018 12:05:00 9.6 C 66 % 3.57 C
3306 24-03-2018 12:10:00 9.7 C 64 % 3.23 C
3307 24-03-2018 12:15:00 9.7 C 61 % 2.55 C
3308 24-03-2018 12:20:00 9.8 C 63 % 3.1 C
3309 24-03-2018 12:25:00 10 C 60 % 2.6 C
3310 24-03-2018 12:30:00 10.2 C 58 % 2.32 C
3311 24-03-2018 12:35:00 10.3 C 56 % 1.92 C
3312 24-03-2018 12:40:00 10.4 C 56 % 2.01 C
3313 24-03-2018 12:45:00 10.6 C 55 % 1.95 C
3314 24-03-2018 12:50:00 10.7 C 53 % 1.52 C
3315 24-03-2018 12:55:00 10.7 C 54 % 1.78 C
3316 24-03-2018 13:00:00 10.7 C 52 % 1.26 C
3317 24-03-2018 13:05:00 10.8 C 54 % 1.88 C
3318 24-03-2018 13:10:00 11 C 53 % 1.8 C
3319 24-03-2018 13:15:00 11.1 C 53 % 1.9 C
3320 24-03-2018 13:20:00 11.2 C 54 % 2.25 C
3321 24-03-2018 13:25:00 11.1 C 52 % 1.63 C
3322 24-03-2018 13:30:00 11.1 C 54 % 2.16 C
3323 24-03-2018 13:35:00 11.3 C 52 % 1.81 C
3324 24-03-2018 13:40:00 11.3 C 52 % 1.81 C
3325 24-03-2018 13:45:00 11.3 C 54 % 2.34 C
Sensor: Nr:Datum:Temp:Feuchte:Taupunkt:
Aussen-T/F 3326 24-03-2018 13:50:00 11.2 C 52 % 1.72 C
3327 24-03-2018 13:55:00 11.2 C 54 % 2.25 C
3328 24-03-2018 14:00:00 11.4 C 54 % 2.44 C
3329 24-03-2018 14:05:00 11.4 C 51 % 1.64 C
3330 24-03-2018 14:10:00 11.4 C 50 % 1.36 C
3331 24-03-2018 14:15:00 11.3 C 51 % 1.54 C
3332 24-03-2018 14:20:00 11.3 C 52 % 1.81 C
3333 24-03-2018 14:25:00 11.4 C 52 % 1.91 C
3334 24-03-2018 14:30:00 11.6 C 51 % 1.82 C
3335 24-03-2018 14:35:00 11.6 C 51 % 1.82 C
3336 24-03-2018 14:40:00 11.6 C 52 % 2.09 C
3337 24-03-2018 14:45:00 11.5 C 51 % 1.73 C
3338 24-03-2018 14:50:00 11.5 C 53 % 2.27 C
3339 24-03-2018 14:55:00 11.4 C 52 % 1.91 C
3340 24-03-2018 15:00:00 11.4 C 53 % 2.17 C
3341 24-03-2018 15:05:00 11.5 C 52 % 2 C
3342 24-03-2018 15:10:00 11.6 C 51 % 1.82 C
3343 24-03-2018 15:15:00 11.6 C 52 % 2.09 C
3344 24-03-2018 15:20:00 11.6 C 52 % 2.09 C
3345 24-03-2018 15:25:00 11.6 C 52 % 2.09 C
3346 24-03-2018 15:30:00 11.6 C 52 % 2.09 C
3347 24-03-2018 15:35:00 11.7 C 52 % 2.18 C
3348 24-03-2018 15:40:00 11.8 C 52 % 2.28 C
3349 24-03-2018 15:45:00 11.6 C 51 % 1.82 C
3350 24-03-2018 15:50:00 11.7 C 53 % 2.45 C
Sensor: Nr:Datum:Temp:Feuchte:Taupunkt:
Aussen-T/F 3351 24-03-2018 15:55:00 11.8 C 51 % 2.01 C
3352 24-03-2018 16:00:00 11.8 C 51 % 2.01 C
3353 24-03-2018 16:05:00 11.8 C 51 % 2.01 C
3354 24-03-2018 16:10:00 11.9 C 52 % 2.37 C
3355 24-03-2018 16:15:00 12 C 52 % 2.46 C
3356 24-03-2018 16:20:00 12.2 C 52 % 2.65 C
3357 24-03-2018 16:25:00 12.3 C 51 % 2.47 C
3358 24-03-2018 16:30:00 12.3 C 49 % 1.91 C
3359 24-03-2018 16:35:00 12.4 C 51 % 2.56 C
3360 24-03-2018 16:40:00 12.7 C 48 % 1.99 C
3361 24-03-2018 16:45:00 12.7 C 49 % 2.27 C
3362 24-03-2018 16:50:00 12.8 C 50 % 2.65 C
3363 24-03-2018 16:55:00 12.8 C 49 % 2.37 C
3364 24-03-2018 17:00:00 12.7 C 49 % 2.27 C
3365 24-03-2018 17:05:00 12.5 C 50 % 2.37 C
3366 24-03-2018 17:10:00 12.4 C 50 % 2.28 C
3367 24-03-2018 17:15:00 12.3 C 50 % 2.19 C
3368 24-03-2018 17:20:00 12.3 C 50 % 2.19 C
3369 24-03-2018 17:25:00 12.3 C 51 % 2.47 C
3370 24-03-2018 17:30:00 12.4 C 51 % 2.56 C
3371 24-03-2018 17:35:00 12.2 C 51 % 2.37 C
3372 24-03-2018 17:40:00 12.2 C 51 % 2.37 C
3373 24-03-2018 17:45:00 12.1 C 51 % 2.28 C
3374 24-03-2018 17:50:00 11.9 C 51 % 2.1 C
3375 24-03-2018 17:55:00 11.8 C 51 % 2.01 C
Sensor: Nr:Datum:Temp:Feuchte:Taupunkt:
Aussen-T/F 3376 24-03-2018 18:00:00 11.7 C 52 % 2.18 C
3377 24-03-2018 18:05:00 11.6 C 54 % 2.62 C
3378 24-03-2018 18:10:00 11.4 C 53 % 2.17 C
3379 24-03-2018 18:15:00 11.2 C 59 % 3.5 C
3380 24-03-2018 18:20:00 11.1 C 60 % 3.64 C
3381 24-03-2018 18:25:00 10.7 C 59 % 3.03 C
3382 24-03-2018 18:30:00 10.2 C 63 % 3.48 C
3383 24-03-2018 18:35:00 9.6 C 65 % 3.35 C
3384 24-03-2018 18:40:00 9 C 67 % 3.21 C
3385 24-03-2018 18:45:00 8.4 C 70 % 3.26 C
3386 24-03-2018 18:50:00 7.9 C 71 % 2.98 C
3387 24-03-2018 18:55:00 7.6 C 72 % 2.88 C
3388 24-03-2018 19:00:00 7.2 C 73 % 2.69 C
3389 24-03-2018 19:05:00 6.9 C 74 % 2.6 C
3390 24-03-2018 19:10:00 6.7 C 75 % 2.59 C
3391 24-03-2018 19:15:00 6.6 C 75 % 2.49 C
3392 24-03-2018 19:20:00 6.4 C 76 % 2.49 C
3393 24-03-2018 19:25:00 6.2 C 77 % 2.48 C
3394 24-03-2018 19:30:00 6.1 C 77 % 2.38 C
3395 24-03-2018 19:35:00 6 C 78 % 2.46 C
3396 24-03-2018 19:40:00 5.9 C 78 % 2.37 C
3397 24-03-2018 19:45:00 5.8 C 78 % 2.27 C
3398 24-03-2018 19:50:00 5.7 C 79 % 2.35 C
3399 24-03-2018 19:55:00 5.6 C 79 % 2.25 C
3400 24-03-2018 20:00:00 5.4 C 80 % 2.23 C
Sensor: Nr:Datum:Temp:Feuchte:Taupunkt:
Aussen-T/F 3401 24-03-2018 20:05:00 5.2 C 80 % 2.04 C
3402 24-03-2018 20:10:00 5 C 81 % 2.02 C
3403 24-03-2018 20:15:00 4.8 C 82 % 1.99 C
3404 24-03-2018 20:20:00 4.7 C 82 % 1.9 C
3405 24-03-2018 20:25:00 4.6 C 83 % 1.97 C
3406 24-03-2018 20:30:00 4.5 C 84 % 2.04 C
3407 24-03-2018 20:35:00 4.4 C 84 % 1.94 C
3408 24-03-2018 20:40:00 4.3 C 84 % 1.84 C
3409 24-03-2018 20:45:00 4.3 C 84 % 1.84 C
3410 24-03-2018 20:50:00 4.3 C 83 % 1.67 C
3411 24-03-2018 20:55:00 4.3 C 84 % 1.84 C
3412 24-03-2018 21:00:00 4.2 C 83 % 1.58 C
3413 24-03-2018 21:05:00 4.1 C 84 % 1.65 C
3414 24-03-2018 21:10:00 3.9 C 85 % 1.61 C
3415 24-03-2018 21:15:00 3.8 C 85 % 1.52 C
3416 24-03-2018 21:20:00 3.7 C 85 % 1.42 C
3417 24-03-2018 21:25:00 3.7 C 86 % 1.58 C
3418 24-03-2018 21:30:00 3.5 C 86 % 1.38 C
3419 24-03-2018 21:35:00 3.4 C 86 % 1.29 C
3420 24-03-2018 21:40:00 3.2 C 86 % 1.09 C
3421 24-03-2018 21:45:00 3 C 85 % 0.73 C
3422 24-03-2018 21:50:00 2.8 C 86 % 0.7 C
3423 24-03-2018 21:55:00 2.8 C 87 % 0.86 C
3424 24-03-2018 22:00:00 2.8 C 88 % 1.02 C
3425 24-03-2018 22:05:00 2.7 C 88 % 0.92 C
Sensor: Nr:Datum:Temp:Feuchte:Taupunkt:
Aussen-T/F 3426 24-03-2018 22:10:00 2.6 C 88 % 0.82 C
3427 24-03-2018 22:15:00 2.4 C 88 % 0.62 C
3428 24-03-2018 22:20:00 2.4 C 88 % 0.62 C
3429 24-03-2018 22:25:00 2.3 C 88 % 0.52 C
3430 24-03-2018 22:30:00 2.2 C 88 % 0.42 C
3431 24-03-2018 22:35:00 2.2 C 88 % 0.42 C
3432 24-03-2018 22:40:00 2.1 C 87 % 0.17 C
3433 24-03-2018 22:45:00 1.9 C 87 % -0.03 C
3434 24-03-2018 22:50:00 1.7 C 87 % -0.23 C
3435 24-03-2018 22:55:00 1.6 C 88 % -0.17 C
3436 24-03-2018 23:00:00 1.5 C 88 % -0.27 C
3437 24-03-2018 23:05:00 1.5 C 89 % -0.11 C
3438 24-03-2018 23:10:00 1.4 C 89 % -0.21 C
3439 24-03-2018 23:15:00 1.4 C 89 % -0.21 C
3440 24-03-2018 23:20:00 1.4 C 90 % -0.06 C
3441 24-03-2018 23:25:00 1.3 C 89 % -0.31 C
3442 24-03-2018 23:30:00 1.2 C 89 % -0.41 C
3443 24-03-2018 23:35:00 1.1 C 89 % -0.51 C
3444 24-03-2018 23:40:00 1 C 89 % -0.6 C
3445 24-03-2018 23:45:00 0.9 C 89 % -0.7 C
3446 24-03-2018 23:50:00 0.8 C 90 % -0.65 C
3447 24-03-2018 23:55:00 0.8 C 90 % -0.65 C
3448 25-03-2018 00:00:00 0.7 C 90 % -0.75 C
3449 25-03-2018 00:05:00 0.6 C 90 % -0.85 C
3450 25-03-2018 00:10:00 0.6 C 90 % -0.85 C
Sensor: Nr:Datum:Temp:Feuchte:Taupunkt:
Aussen-T/F 3451 25-03-2018 00:15:00 0.4 C 90 % -1.04 C
3452 25-03-2018 00:20:00 0.4 C 91 % -0.89 C
3453 25-03-2018 00:25:00 0.4 C 91 % -0.89 C
3454 25-03-2018 00:30:00 0.3 C 91 % -0.99 C
3455 25-03-2018 00:35:00 0.3 C 91 % -0.99 C
3456 25-03-2018 00:40:00 0.3 C 91 % -0.99 C
3457 25-03-2018 00:45:00 0.3 C 92 % -0.84 C
3458 25-03-2018 00:50:00 0.3 C 92 % -0.84 C
3459 25-03-2018 00:55:00 0.2 C 92 % -0.94 C
3460 25-03-2018 01:00:00 0.2 C 92 % -0.94 C
3461 25-03-2018 01:05:00 0.3 C 92 % -0.84 C
3462 25-03-2018 01:10:00 0.3 C 92 % -0.84 C
3463 25-03-2018 01:15:00 0.2 C 92 % -0.94 C
3464 25-03-2018 01:20:00 0.1 C 92 % -1.04 C
3465 25-03-2018 01:25:00 0 C 92 % -1.14 C
3466 25-03-2018 01:30:00 -0.1 C 92 % -1.24 C
3467 25-03-2018 01:35:00 0 C 92 % -1.14 C
3468 25-03-2018 01:40:00 0 C 92 % -1.14 C
3469 25-03-2018 01:45:00 -0.1 C 92 % -1.24 C
3470 25-03-2018 01:50:00 -0.2 C 92 % -1.34 C
3471 25-03-2018 01:55:00 -0.3 C 92 % -1.44 C
3472 25-03-2018 02:00:00 -0.3 C 92 % -1.44 C
3473 25-03-2018 02:05:00 -0.3 C 92 % -1.44 C
3474 25-03-2018 02:10:00 -0.4 C 93 % -1.39 C
3475 25-03-2018 02:15:00 -0.4 C 93 % -1.39 C
Sensor: Nr:Datum:Temp:Feuchte:Taupunkt:
Aussen-T/F 3476 25-03-2018 02:20:00 -0.5 C 92 % -1.64 C
3477 25-03-2018 02:25:00 -0.6 C 93 % -1.59 C
3478 25-03-2018 02:30:00 -0.6 C 93 % -1.59 C
3479 25-03-2018 02:35:00 -0.6 C 93 % -1.59 C
3480 25-03-2018 02:40:00 -0.6 C 93 % -1.59 C
3481 25-03-2018 02:45:00 -0.6 C 93 % -1.59 C
3482 25-03-2018 02:50:00 -0.6 C 93 % -1.59 C
3483 25-03-2018 02:55:00 -0.6 C 93 % -1.59 C
3484 25-03-2018 04:00:00 -0.6 C 93 % -1.59 C
3485 25-03-2018 04:05:00 -0.7 C 93 % -1.69 C
3486 25-03-2018 04:10:00 -0.7 C 93 % -1.69 C
3487 25-03-2018 04:15:00 -0.8 C 93 % -1.79 C
3488 25-03-2018 04:20:00 -0.8 C 93 % -1.79 C
3489 25-03-2018 04:25:00 -0.8 C 93 % -1.79 C
3490 25-03-2018 04:30:00 -0.8 C 94 % -1.64 C
3491 25-03-2018 04:35:00 -0.8 C 93 % -1.79 C
3492 25-03-2018 04:40:00 -0.9 C 93 % -1.89 C
3493 25-03-2018 04:45:00 -0.9 C 94 % -1.74 C
3494 25-03-2018 04:50:00 -0.9 C 94 % -1.74 C
3495 25-03-2018 04:55:00 -0.9 C 94 % -1.74 C
3496 25-03-2018 05:00:00 -0.9 C 94 % -1.74 C
3497 25-03-2018 05:05:00 -1 C 94 % -1.84 C
3498 25-03-2018 05:10:00 -1 C 94 % -1.84 C
3499 25-03-2018 05:15:00 -1.1 C 94 % -1.94 C
3500 25-03-2018 05:20:00 -1.1 C 94 % -1.94 C
Sensor: Nr:Datum:Temp:Feuchte:Taupunkt:
Aussen-T/F 3501 25-03-2018 05:25:00 -1.1 C 94 % -1.94 C
3502 25-03-2018 05:30:00 -1.1 C 94 % -1.94 C
3503 25-03-2018 05:35:00 -1.1 C 94 % -1.94 C
3504 25-03-2018 05:40:00 -1.2 C 94 % -2.04 C
3505 25-03-2018 05:45:00 -1.3 C 94 % -2.14 C
3506 25-03-2018 05:50:00 -1.3 C 94 % -2.14 C
3507 25-03-2018 05:55:00 -1.3 C 94 % -2.14 C
3508 25-03-2018 06:00:00 -1.3 C 94 % -2.14 C
3509 25-03-2018 06:05:00 -1.4 C 94 % -2.24 C
3510 25-03-2018 06:10:00 -1.4 C 94 % -2.24 C
3511 25-03-2018 06:15:00 -1.4 C 94 % -2.24 C
3512 25-03-2018 06:20:00 -1.4 C 94 % -2.24 C
3513 25-03-2018 06:25:00 -1.4 C 94 % -2.24 C
3514 25-03-2018 06:30:00 -1.5 C 94 % -2.34 C
3515 25-03-2018 06:35:00 -1.5 C 94 % -2.34 C
3516 25-03-2018 06:40:00 -1.6 C 94 % -2.44 C
3517 25-03-2018 06:45:00 -1.6 C 94 % -2.44 C
3518 25-03-2018 06:50:00 -1.6 C 94 % -2.44 C
3519 25-03-2018 06:55:00 -1.6 C 94 % -2.44 C
3520 25-03-2018 07:00:00 -1.6 C 95 % -2.29 C
3521 25-03-2018 07:05:00 -1.6 C 95 % -2.29 C
3522 25-03-2018 07:10:00 -1.5 C 95 % -2.19 C
3523 25-03-2018 07:15:00 -1.6 C 95 % -2.29 C
3524 25-03-2018 07:20:00 -1.6 C 95 % -2.29 C
3525 25-03-2018 07:25:00 -1.6 C 95 % -2.29 C
Sensor: Nr:Datum:Temp:Feuchte:Taupunkt:
Aussen-T/F 3526 25-03-2018 07:30:00 -1.7 C 95 % -2.39 C
3527 25-03-2018 07:35:00 -1.6 C 95 % -2.29 C
3528 25-03-2018 07:40:00 -1.6 C 95 % -2.29 C
3529 25-03-2018 07:45:00 -1.7 C 95 % -2.39 C
3530 25-03-2018 07:50:00 -1.7 C 95 % -2.39 C
3531 25-03-2018 07:55:00 -1.7 C 95 % -2.39 C
3532 25-03-2018 08:00:00 -1.7 C 95 % -2.39 C
3533 25-03-2018 08:05:00 -1.6 C 95 % -2.29 C
3534 25-03-2018 08:10:00 -1.5 C 95 % -2.19 C
3535 25-03-2018 08:15:00 -1.4 C 95 % -2.1 C
3536 25-03-2018 08:20:00 -1.4 C 95 % -2.1 C
3537 25-03-2018 08:25:00 -1.4 C 95 % -2.1 C
3538 25-03-2018 08:30:00 -1.3 C 95 % -2 C
3539 25-03-2018 08:35:00 -1.3 C 95 % -2 C
3540 25-03-2018 08:40:00 -1.2 C 95 % -1.9 C
3541 25-03-2018 08:45:00 -1.2 C 95 % -1.9 C
3542 25-03-2018 08:50:00 -1.1 C 95 % -1.8 C
3543 25-03-2018 08:55:00 -1.1 C 95 % -1.8 C
3544 25-03-2018 09:00:00 -1.1 C 95 % -1.8 C
3545 25-03-2018 09:05:00 -0.9 C 95 % -1.6 C
3546 25-03-2018 09:10:00 -0.9 C 95 % -1.6 C
3547 25-03-2018 09:15:00 -0.8 C 95 % -1.5 C
3548 25-03-2018 09:20:00 -0.7 C 96 % -1.26 C
3549 25-03-2018 09:25:00 -0.6 C 96 % -1.16 C
3550 25-03-2018 09:30:00 -0.5 C 95 % -1.2 C
Sensor: Nr:Datum:Temp:Feuchte:Taupunkt:
Aussen-T/F 3551 25-03-2018 09:35:00 -0.4 C 95 % -1.1 C
3552 25-03-2018 09:40:00 -0.3 C 96 % -0.86 C
3553 25-03-2018 09:45:00 -0.3 C 96 % -0.86 C
3554 25-03-2018 09:50:00 -0.2 C 96 % -0.76 C
3555 25-03-2018 09:55:00 -0.1 C 96 % -0.66 C
3556 25-03-2018 10:00:00 0.1 C 96 % -0.46 C
3557 25-03-2018 10:05:00 0.2 C 96 % -0.36 C
3558 25-03-2018 10:10:00 0.3 C 96 % -0.26 C
3559 25-03-2018 10:15:00 0.4 C 96 % -0.16 C
3560 25-03-2018 10:20:00 0.6 C 96 % 0.04 C
3561 25-03-2018 10:25:00 0.7 C 96 % 0.14 C
3562 25-03-2018 10:30:00 0.8 C 96 % 0.24 C
3563 25-03-2018 10:35:00 0.9 C 96 % 0.34 C
3564 25-03-2018 10:40:00 1.1 C 96 % 0.54 C
3565 25-03-2018 10:45:00 1.3 C 96 % 0.73 C
3566 25-03-2018 10:50:00 1.5 C 95 % 0.79 C
3567 25-03-2018 10:55:00 1.8 C 95 % 1.09 C
3568 25-03-2018 11:00:00 1.9 C 95 % 1.19 C
3569 25-03-2018 11:05:00 2.2 C 95 % 1.48 C
3570 25-03-2018 11:10:00 2.4 C 95 % 1.68 C
3571 25-03-2018 11:15:00 2.6 C 94 % 1.73 C
3572 25-03-2018 11:20:00 2.8 C 94 % 1.93 C
3573 25-03-2018 11:25:00 3 C 93 % 1.98 C
3574 25-03-2018 11:30:00 3.2 C 93 % 2.18 C
3575 25-03-2018 11:35:00 3.4 C 92 % 2.23 C
Sensor: Nr:Datum:Temp:Feuchte:Taupunkt:
Aussen-T/F 3576 25-03-2018 11:40:00 3.7 C 92 % 2.52 C
3577 25-03-2018 11:45:00 4 C 91 % 2.67 C
3578 25-03-2018 11:50:00 4.3 C 89 % 2.65 C
3579 25-03-2018 11:55:00 4.7 C 89 % 3.05 C
3580 25-03-2018 12:00:00 5.1 C 86 % 2.96 C
3581 25-03-2018 12:05:00 5.3 C 86 % 3.15 C
3582 25-03-2018 12:10:00 5.7 C 83 % 3.04 C
3583 25-03-2018 12:15:00 5.9 C 83 % 3.24 C
3584 25-03-2018 12:20:00 6.3 C 82 % 3.46 C
3585 25-03-2018 12:25:00 6.5 C 81 % 3.48 C
3586 25-03-2018 12:30:00 6.8 C 79 % 3.42 C
3587 25-03-2018 12:35:00 7.1 C 78 % 3.53 C
3588 25-03-2018 12:40:00 7.3 C 76 % 3.36 C
3589 25-03-2018 12:45:00 7.5 C 75 % 3.36 C
3590 25-03-2018 12:50:00 7.7 C 75 % 3.56 C
3591 25-03-2018 12:55:00 7.9 C 73 % 3.37 C
3592 25-03-2018 13:00:00 8.2 C 72 % 3.46 C
3593 25-03-2018 13:05:00 8.4 C 71 % 3.46 C
3594 25-03-2018 13:10:00 8.6 C 71 % 3.65 C
3595 25-03-2018 13:15:00 8.8 C 69 % 3.44 C
3596 25-03-2018 13:20:00 9 C 67 % 3.21 C
3597 25-03-2018 13:25:00 9.2 C 66 % 3.19 C
3598 25-03-2018 13:30:00 9.5 C 65 % 3.26 C
3599 25-03-2018 13:35:00 9.8 C 63 % 3.1 C
3600 25-03-2018 13:40:00 10 C 59 % 2.37 C
Sensor: Nr:Datum:Temp:Feuchte:Taupunkt:
Aussen-T/F 3601 25-03-2018 13:45:00 10.2 C 59 % 2.56 C
3602 25-03-2018 13:50:00 10.3 C 58 % 2.41 C
3603 25-03-2018 13:55:00 10.4 C 57 % 2.26 C
3604 25-03-2018 14:00:00 10.6 C 59 % 2.93 C
3605 25-03-2018 14:05:00 10.8 C 56 % 2.39 C
3606 25-03-2018 14:10:00 10.9 C 56 % 2.48 C
3607 25-03-2018 14:15:00 11 C 55 % 2.32 C
3608 25-03-2018 14:20:00 11.1 C 58 % 3.16 C
3609 25-03-2018 14:25:00 11.1 C 54 % 2.16 C
3610 25-03-2018 14:30:00 11.2 C 53 % 1.99 C
3611 25-03-2018 14:35:00 11.3 C 55 % 2.6 C
3612 25-03-2018 14:40:00 11.4 C 52 % 1.91 C
3613 25-03-2018 14:45:00 11.5 C 53 % 2.27 C
3614 25-03-2018 14:50:00 11.6 C 53 % 2.36 C
3615 25-03-2018 14:55:00 11.7 C 53 % 2.45 C
3616 25-03-2018 15:00:00 11.9 C 55 % 3.16 C
3617 25-03-2018 15:05:00 12.1 C 51 % 2.28 C
3618 25-03-2018 15:10:00 12.1 C 52 % 2.55 C
3619 25-03-2018 15:15:00 12.2 C 54 % 3.18 C
3620 25-03-2018 15:20:00 12.3 C 51 % 2.47 C
3621 25-03-2018 15:25:00 12.2 C 50 % 2.1 C
3622 25-03-2018 15:30:00 12.2 C 50 % 2.1 C
3623 25-03-2018 15:35:00 12.2 C 51 % 2.37 C
3624 25-03-2018 15:40:00 12.2 C 51 % 2.37 C
3625 25-03-2018 15:45:00 12.2 C 50 % 2.1 C
Sensor: Nr:Datum:Temp:Feuchte:Taupunkt:
Aussen-T/F 3626 25-03-2018 15:50:00 12.3 C 50 % 2.19 C
3627 25-03-2018 15:55:00 12.3 C 50 % 2.19 C
3628 25-03-2018 16:00:00 12.4 C 49 % 2 C
3629 25-03-2018 16:05:00 12.4 C 48 % 1.71 C
3630 25-03-2018 16:10:00 12.5 C 48 % 1.8 C
3631 25-03-2018 16:15:00 12.6 C 48 % 1.89 C
3632 25-03-2018 16:20:00 12.6 C 47 % 1.6 C
3633 25-03-2018 16:25:00 12.6 C 48 % 1.89 C
3634 25-03-2018 16:30:00 12.6 C 48 % 1.89 C
3635 25-03-2018 16:35:00 12.7 C 47 % 1.69 C
3636 25-03-2018 16:40:00 12.8 C 49 % 2.37 C
3637 25-03-2018 16:45:00 12.9 C 47 % 1.87 C
3638 25-03-2018 16:50:00 12.9 C 48 % 2.17 C
3639 25-03-2018 16:55:00 12.9 C 51 % 3.02 C
3640 25-03-2018 17:00:00 13 C 48 % 2.26 C
3641 25-03-2018 17:05:00 13.1 C 50 % 2.93 C
3642 25-03-2018 17:10:00 13.2 C 49 % 2.73 C
3643 25-03-2018 17:15:00 13.3 C 48 % 2.54 C
3644 25-03-2018 17:20:00 13.5 C 48 % 2.72 C
3645 25-03-2018 17:25:00 13.6 C 48 % 2.81 C
3646 25-03-2018 17:30:00 13.6 C 49 % 3.1 C
3647 25-03-2018 17:35:00 13.6 C 48 % 2.81 C
3648 25-03-2018 17:40:00 13.6 C 48 % 2.81 C
3649 25-03-2018 17:45:00 13.8 C 48 % 2.99 C
3650 25-03-2018 17:50:00 13.8 C 47 % 2.7 C
Sensor: Nr:Datum:Temp:Feuchte:Taupunkt:
Aussen-T/F 3651 25-03-2018 17:55:00 13.8 C 47 % 2.7 C
3652 25-03-2018 18:00:00 13.7 C 46 % 2.3 C
3653 25-03-2018 18:05:00 13.8 C 48 % 2.99 C
3654 25-03-2018 18:10:00 13.8 C 46 % 2.4 C
3655 25-03-2018 18:15:00 13.7 C 46 % 2.3 C
3656 25-03-2018 18:20:00 13.6 C 47 % 2.51 C
3657 25-03-2018 18:25:00 13.5 C 49 % 3.01 C
3658 25-03-2018 18:30:00 13.4 C 50 % 3.2 C
3659 25-03-2018 18:35:00 13.4 C 48 % 2.63 C
3660 25-03-2018 18:40:00 13.3 C 48 % 2.54 C
3661 25-03-2018 18:45:00 13.2 C 48 % 2.44 C
3662 25-03-2018 18:50:00 13 C 49 % 2.55 C
3663 25-03-2018 18:55:00 12.8 C 49 % 2.37 C
3664 25-03-2018 19:00:00 12.6 C 52 % 3.02 C
3665 25-03-2018 19:05:00 12.4 C 51 % 2.56 C
3666 25-03-2018 19:10:00 12.3 C 56 % 3.79 C
3667 25-03-2018 19:15:00 12.1 C 60 % 4.58 C
3668 25-03-2018 19:20:00 11.7 C 60 % 4.2 C
3669 25-03-2018 19:25:00 11.4 C 61 % 4.16 C
3670 25-03-2018 19:30:00 11.2 C 64 % 4.65 C
3671 25-03-2018 19:35:00 10.9 C 64 % 4.37 C
3672 25-03-2018 19:40:00 10.6 C 66 % 4.52 C
3673 25-03-2018 19:45:00 10.4 C 66 % 4.33 C
3674 25-03-2018 19:50:00 10.2 C 68 % 4.57 C
3675 25-03-2018 19:55:00 10 C 67 % 4.16 C
Sensor: Nr:Datum:Temp:Feuchte:Taupunkt:
Aussen-T/F 3676 25-03-2018 20:00:00 9.9 C 68 % 4.28 C
3677 25-03-2018 20:05:00 9.8 C 69 % 4.39 C
3678 25-03-2018 20:10:00 9.7 C 69 % 4.3 C
3679 25-03-2018 20:15:00 9.6 C 71 % 4.61 C
3680 25-03-2018 20:20:00 9.5 C 71 % 4.51 C
3681 25-03-2018 20:25:00 9.3 C 70 % 4.12 C
3682 25-03-2018 20:30:00 9.3 C 71 % 4.32 C
3683 25-03-2018 20:35:00 9.2 C 69 % 3.82 C
3684 25-03-2018 20:40:00 9.2 C 68 % 3.61 C
3685 25-03-2018 20:45:00 9.3 C 68 % 3.71 C
3686 25-03-2018 20:50:00 9.3 C 69 % 3.91 C
3687 25-03-2018 20:55:00 9.4 C 66 % 3.38 C
3688 25-03-2018 21:00:00 9.4 C 65 % 3.16 C
3689 25-03-2018 21:05:00 9.6 C 64 % 3.14 C
3690 25-03-2018 21:10:00 9.7 C 66 % 3.67 C
3691 25-03-2018 21:15:00 9.7 C 65 % 3.45 C
3692 25-03-2018 21:20:00 9.7 C 63 % 3.01 C
3693 25-03-2018 21:25:00 9.8 C 64 % 3.32 C
3694 25-03-2018 21:30:00 9.8 C 64 % 3.32 C
3695 25-03-2018 21:35:00 9.9 C 62 % 2.97 C
3696 25-03-2018 21:40:00 10.1 C 63 % 3.39 C
3697 25-03-2018 21:45:00 10.1 C 64 % 3.61 C
3698 25-03-2018 21:50:00 9.9 C 66 % 3.86 C
3699 25-03-2018 21:55:00 9.8 C 65 % 3.54 C
3700 25-03-2018 22:00:00 9.8 C 66 % 3.76 C
Sensor: Nr:Datum:Temp:Feuchte:Taupunkt:
Aussen-T/F 3701 25-03-2018 22:05:00 9.7 C 65 % 3.45 C
3702 25-03-2018 22:10:00 9.7 C 67 % 3.88 C
3703 25-03-2018 22:15:00 9.7 C 67 % 3.88 C
3704 25-03-2018 22:20:00 9.7 C 66 % 3.67 C
3705 25-03-2018 22:25:00 9.7 C 67 % 3.88 C
3706 25-03-2018 22:30:00 9.6 C 67 % 3.78 C
3707 25-03-2018 22:35:00 9.6 C 67 % 3.78 C
3708 25-03-2018 22:40:00 9.6 C 69 % 4.2 C
3709 25-03-2018 22:45:00 9.4 C 69 % 4.01 C
3710 25-03-2018 22:50:00 9.3 C 70 % 4.12 C
3711 25-03-2018 22:55:00 9.2 C 69 % 3.82 C
3712 25-03-2018 23:00:00 9.1 C 71 % 4.13 C
3713 25-03-2018 23:05:00 9.1 C 71 % 4.13 C
3714 25-03-2018 23:10:00 9 C 71 % 4.03 C
3715 25-03-2018 23:15:00 8.9 C 73 % 4.33 C
3716 25-03-2018 23:20:00 8.8 C 71 % 3.84 C
3717 25-03-2018 23:25:00 8.8 C 70 % 3.64 C
3718 25-03-2018 23:30:00 8.8 C 73 % 4.24 C
3719 25-03-2018 23:35:00 8.8 C 73 % 4.24 C
3720 25-03-2018 23:40:00 8.7 C 73 % 4.14 C
3721 25-03-2018 23:45:00 8.7 C 74 % 4.33 C
3722 25-03-2018 23:50:00 8.6 C 74 % 4.24 C
3723 25-03-2018 23:55:00 8.6 C 74 % 4.24 C
3724 26-03-2018 00:00:00 8.5 C 75 % 4.33 C
3725 26-03-2018 00:05:00 8.4 C 75 % 4.23 C
Sensor: Nr:Datum:Temp:Feuchte:Taupunkt:
Aussen-T/F 3726 26-03-2018 00:10:00 8.4 C 72 % 3.65 C
3727 26-03-2018 00:15:00 8.6 C 72 % 3.85 C
3728 26-03-2018 00:20:00 8.7 C 71 % 3.74 C
3729 26-03-2018 00:25:00 8.8 C 71 % 3.84 C
3730 26-03-2018 00:30:00 8.8 C 71 % 3.84 C
3731 26-03-2018 00:35:00 8.8 C 72 % 4.04 C
3732 26-03-2018 00:40:00 8.7 C 73 % 4.14 C
3733 26-03-2018 00:45:00 8.6 C 73 % 4.04 C
3734 26-03-2018 00:50:00 8.4 C 74 % 4.04 C
3735 26-03-2018 00:55:00 8.3 C 74 % 3.95 C
3736 26-03-2018 01:00:00 8.2 C 75 % 4.04 C
3737 26-03-2018 01:05:00 8.2 C 75 % 4.04 C
3738 26-03-2018 01:10:00 8.1 C 76 % 4.13 C
3739 26-03-2018 01:15:00 8 C 76 % 4.04 C
3740 26-03-2018 01:20:00 7.9 C 76 % 3.94 C
3741 26-03-2018 01:25:00 7.7 C 76 % 3.75 C
3742 26-03-2018 01:30:00 7.4 C 76 % 3.45 C
3743 26-03-2018 01:35:00 7.2 C 77 % 3.45 C
3744 26-03-2018 01:40:00 7 C 78 % 3.43 C
3745 26-03-2018 01:45:00 6.9 C 78 % 3.34 C
3746 26-03-2018 01:50:00 6.8 C 79 % 3.42 C
3747 26-03-2018 01:55:00 6.7 C 79 % 3.32 C
3748 26-03-2018 02:00:00 6.7 C 79 % 3.32 C
3749 26-03-2018 02:05:00 6.7 C 79 % 3.32 C
3750 26-03-2018 02:10:00 6.6 C 80 % 3.4 C
Sensor: Nr:Datum:Temp:Feuchte:Taupunkt:
Aussen-T/F 3751 26-03-2018 02:15:00 6.5 C 81 % 3.48 C
3752 26-03-2018 02:20:00 6.5 C 81 % 3.48 C
3753 26-03-2018 02:25:00 6.4 C 81 % 3.38 C
3754 26-03-2018 02:30:00 6.5 C 82 % 3.66 C
3755 26-03-2018 02:35:00 6.5 C 82 % 3.66 C
3756 26-03-2018 02:40:00 6.6 C 82 % 3.75 C
3757 26-03-2018 02:45:00 6.7 C 81 % 3.68 C
3758 26-03-2018 02:50:00 6.7 C 81 % 3.68 C
3759 26-03-2018 02:55:00 6.7 C 81 % 3.68 C
3760 26-03-2018 03:00:00 6.7 C 82 % 3.85 C
3761 26-03-2018 03:05:00 6.7 C 82 % 3.85 C
3762 26-03-2018 03:10:00 6.7 C 82 % 3.85 C
3763 26-03-2018 03:15:00 6.7 C 82 % 3.85 C
3764 26-03-2018 03:20:00 6.6 C 82 % 3.75 C
3765 26-03-2018 03:25:00 6.6 C 83 % 3.92 C
3766 26-03-2018 03:30:00 6.5 C 83 % 3.83 C
3767 26-03-2018 03:35:00 6.4 C 83 % 3.73 C
3768 26-03-2018 03:40:00 6.4 C 84 % 3.9 C
3769 26-03-2018 03:45:00 6.4 C 84 % 3.9 C
3770 26-03-2018 03:50:00 6.4 C 84 % 3.9 C
3771 26-03-2018 03:55:00 6.4 C 84 % 3.9 C
3772 26-03-2018 04:00:00 6.3 C 84 % 3.8 C
3773 26-03-2018 04:05:00 6.3 C 84 % 3.8 C
3774 26-03-2018 04:10:00 6.3 C 84 % 3.8 C
3775 26-03-2018 04:15:00 6.3 C 84 % 3.8 C
Sensor: Nr:Datum:Temp:Feuchte:Taupunkt:
Aussen-T/F 3776 26-03-2018 04:20:00 6.3 C 85 % 3.97 C
3777 26-03-2018 04:25:00 6.3 C 85 % 3.97 C
3778 26-03-2018 04:30:00 6.3 C 85 % 3.97 C
3779 26-03-2018 04:35:00 6.3 C 85 % 3.97 C
3780 26-03-2018 04:40:00 6.2 C 85 % 3.87 C
3781 26-03-2018 04:45:00 6.2 C 85 % 3.87 C
3782 26-03-2018 04:50:00 6.2 C 86 % 4.04 C
3783 26-03-2018 04:55:00 6.2 C 85 % 3.87 C
3784 26-03-2018 05:00:00 6.2 C 85 % 3.87 C
3785 26-03-2018 05:05:00 6.2 C 85 % 3.87 C
3786 26-03-2018 05:10:00 6.2 C 85 % 3.87 C
3787 26-03-2018 05:15:00 6.2 C 85 % 3.87 C
3788 26-03-2018 05:20:00 6.1 C 86 % 3.94 C
3789 26-03-2018 05:25:00 6.1 C 86 % 3.94 C
3790 26-03-2018 05:30:00 6.1 C 86 % 3.94 C
3791 26-03-2018 05:35:00 5.9 C 86 % 3.74 C
3792 26-03-2018 05:40:00 5.9 C 86 % 3.74 C
3793 26-03-2018 05:45:00 5.9 C 86 % 3.74 C
3794 26-03-2018 05:50:00 5.9 C 86 % 3.74 C
3795 26-03-2018 05:55:00 5.9 C 86 % 3.74 C
3796 26-03-2018 06:00:00 5.9 C 85 % 3.58 C
3797 26-03-2018 06:05:00 6.1 C 83 % 3.44 C
3798 26-03-2018 06:10:00 6.3 C 83 % 3.63 C
3799 26-03-2018 06:15:00 6.4 C 82 % 3.56 C
3800 26-03-2018 06:20:00 6.5 C 82 % 3.66 C
Sensor: Nr:Datum:Temp:Feuchte:Taupunkt:
Aussen-T/F 3801 26-03-2018 06:25:00 6.5 C 81 % 3.48 C
3802 26-03-2018 06:30:00 6.5 C 82 % 3.66 C
3803 26-03-2018 06:35:00 6.4 C 82 % 3.56 C
3804 26-03-2018 06:40:00 6.4 C 82 % 3.56 C
3805 26-03-2018 06:45:00 6.4 C 82 % 3.56 C
3806 26-03-2018 06:50:00 6.4 C 82 % 3.56 C
3807 26-03-2018 06:55:00 6.4 C 82 % 3.56 C
3808 26-03-2018 07:00:00 6.5 C 82 % 3.66 C
3809 26-03-2018 07:05:00 6.4 C 83 % 3.73 C
3810 26-03-2018 07:10:00 6.4 C 83 % 3.73 C
3811 26-03-2018 07:15:00 6.4 C 84 % 3.9 C
3812 26-03-2018 07:20:00 6.4 C 84 % 3.9 C
3813 26-03-2018 07:25:00 6.4 C 84 % 3.9 C
3814 26-03-2018 07:30:00 6.4 C 84 % 3.9 C
3815 26-03-2018 07:35:00 6.4 C 84 % 3.9 C
3816 26-03-2018 07:40:00 6.4 C 85 % 4.07 C
3817 26-03-2018 07:45:00 6.3 C 85 % 3.97 C
3818 26-03-2018 07:50:00 6.3 C 85 % 3.97 C
3819 26-03-2018 07:55:00 6.4 C 85 % 4.07 C
3820 26-03-2018 08:00:00 6.4 C 85 % 4.07 C
3821 26-03-2018 08:05:00 6.4 C 85 % 4.07 C
3822 26-03-2018 08:10:00 6.4 C 86 % 4.23 C
3823 26-03-2018 08:15:00 6.4 C 86 % 4.23 C
3824 26-03-2018 08:20:00 6.3 C 86 % 4.14 C
3825 26-03-2018 08:25:00 6.3 C 86 % 4.14 C
Sensor: Nr:Datum:Temp:Feuchte:Taupunkt:
Aussen-T/F 3826 26-03-2018 08:30:00 6.3 C 87 % 4.3 C
3827 26-03-2018 08:35:00 6.3 C 87 % 4.3 C
3828 26-03-2018 08:40:00 6.3 C 87 % 4.3 C
3829 26-03-2018 08:45:00 6.4 C 88 % 4.56 C
3830 26-03-2018 08:50:00 6.4 C 88 % 4.56 C
3831 26-03-2018 08:55:00 6.4 C 88 % 4.56 C
3832 26-03-2018 09:00:00 6.4 C 88 % 4.56 C
3833 26-03-2018 09:05:00 6.5 C 88 % 4.66 C
3834 26-03-2018 09:10:00 6.5 C 89 % 4.82 C
3835 26-03-2018 09:15:00 6.5 C 89 % 4.82 C
3836 26-03-2018 09:20:00 6.5 C 88 % 4.66 C
3837 26-03-2018 09:25:00 6.5 C 88 % 4.66 C
3838 26-03-2018 09:30:00 6.6 C 88 % 4.76 C
3839 26-03-2018 09:35:00 6.6 C 88 % 4.76 C
3840 26-03-2018 09:40:00 6.6 C 88 % 4.76 C
3841 26-03-2018 09:45:00 6.6 C 88 % 4.76 C
3842 26-03-2018 09:50:00 6.6 C 89 % 4.92 C
3843 26-03-2018 09:55:00 6.6 C 88 % 4.76 C
3844 26-03-2018 10:00:00 6.6 C 88 % 4.76 C
3845 26-03-2018 10:05:00 6.6 C 88 % 4.76 C
3846 26-03-2018 10:10:00 6.7 C 88 % 4.86 C
3847 26-03-2018 10:15:00 6.7 C 87 % 4.69 C
3848 26-03-2018 10:20:00 6.7 C 87 % 4.69 C
3849 26-03-2018 10:25:00 6.7 C 87 % 4.69 C
3850 26-03-2018 10:30:00 6.7 C 87 % 4.69 C
Sensor: Nr:Datum:Temp:Feuchte:Taupunkt:
Aussen-T/F 3851 26-03-2018 10:35:00 6.8 C 86 % 4.63 C
3852 26-03-2018 10:40:00 6.9 C 86 % 4.72 C
3853 26-03-2018 10:45:00 6.9 C 86 % 4.72 C
3854 26-03-2018 10:50:00 6.9 C 86 % 4.72 C
3855 26-03-2018 10:55:00 7 C 85 % 4.66 C
3856 26-03-2018 11:00:00 7.1 C 85 % 4.75 C
3857 26-03-2018 11:05:00 7.2 C 85 % 4.85 C
3858 26-03-2018 11:10:00 7.3 C 85 % 4.95 C
3859 26-03-2018 11:15:00 7.4 C 85 % 5.05 C
3860 26-03-2018 11:20:00 7.6 C 85 % 5.24 C
3861 26-03-2018 11:25:00 7.8 C 84 % 5.27 C
3862 26-03-2018 11:30:00 8 C 83 % 5.29 C
3863 26-03-2018 11:35:00 8.1 C 82 % 5.22 C
3864 26-03-2018 11:40:00 8.2 C 81 % 5.14 C
3865 26-03-2018 11:45:00 8.2 C 81 % 5.14 C
3866 26-03-2018 11:50:00 8.3 C 81 % 5.24 C
3867 26-03-2018 11:55:00 8.3 C 81 % 5.24 C
3868 26-03-2018 12:00:00 8.4 C 81 % 5.33 C
3869 26-03-2018 12:05:00 8.6 C 80 % 5.35 C
3870 26-03-2018 12:10:00 8.7 C 80 % 5.45 C
3871 26-03-2018 12:15:00 8.9 C 78 % 5.28 C
3872 26-03-2018 12:20:00 9 C 78 % 5.38 C
3873 26-03-2018 12:25:00 9.2 C 77 % 5.38 C
3874 26-03-2018 12:30:00 9.3 C 77 % 5.48 C
3875 26-03-2018 12:35:00 9.4 C 74 % 5.01 C
Sensor: Nr:Datum:Temp:Feuchte:Taupunkt:
Aussen-T/F 3876 26-03-2018 12:40:00 9.6 C 75 % 5.39 C
3877 26-03-2018 12:45:00 9.7 C 72 % 4.9 C
3878 26-03-2018 12:50:00 9.8 C 71 % 4.8 C
3879 26-03-2018 12:55:00 10 C 72 % 5.19 C
3880 26-03-2018 13:00:00 10.3 C 69 % 4.87 C
3881 26-03-2018 13:05:00 10.3 C 67 % 4.45 C
3882 26-03-2018 13:10:00 10.2 C 66 % 4.14 C
3883 26-03-2018 13:15:00 10.1 C 67 % 4.26 C
3884 26-03-2018 13:20:00 10.2 C 65 % 3.92 C
3885 26-03-2018 13:25:00 10.3 C 65 % 4.02 C
3886 26-03-2018 13:30:00 10.5 C 64 % 3.99 C
3887 26-03-2018 13:35:00 10.6 C 64 % 4.08 C
3888 26-03-2018 13:40:00 10.6 C 63 % 3.86 C
3889 26-03-2018 13:45:00 10.4 C 64 % 3.89 C
3890 26-03-2018 13:50:00 10.3 C 66 % 4.24 C
3891 26-03-2018 13:55:00 10.2 C 65 % 3.92 C
3892 26-03-2018 14:00:00 10.2 C 67 % 4.36 C
3893 26-03-2018 14:05:00 10.3 C 65 % 4.02 C
3894 26-03-2018 14:10:00 10